Wetterdaten: Mittwoch, 20.05.2020
Datum Zeit Temp. 2m Temp +5 cm Feuchte A. Luftdruck Regen Wind Richtung Richtung Sonnenschein UV Solar Taupunkt Windchill Windben
20.05.2020 00:00 14,4 C 11,1 C 72 % 1023,8 hPa 0,0 l/m 1,6 km/h (1 Bft) W-NW 292 0 min 0,0 UV-I 0 W/m 9,4 C 14,4 C 4,8 km/h (1 Bft)
20.05.2020 00:01 14,4 C 11,1 C 72 % 1023,8 hPa 0,0 l/m 1,6 km/h (1 Bft) W-NW 292 0 min 0,0 UV-I 0 W/m 9,4 C 14,4 C 1,6 km/h (1 Bft)
20.05.2020 00:02 14,4 C 10,6 C 72 % 1023,7 hPa 0,0 l/m 1,6 km/h (1 Bft) N 0 0 min 0,0 UV-I 0 W/m 9,4 C 14,4 C 0,0 km/h (0 Bft)
20.05.2020 00:03 14,3 C 10,6 C 73 % 1023,8 hPa 0,0 l/m 3,2 km/h (1 Bft) NW 315 0 min 0,0 UV-I 0 W/m 9,5 C 14,3 C 4,8 km/h (1 Bft)
20.05.2020 00:04 14,2 C 10,6 C 73 % 1023,8 hPa 0,0 l/m 3,2 km/h (1 Bft) NW 315 0 min 0,0 UV-I 0 W/m 9,4 C 14,2 C 4,8 km/h (1 Bft)
20.05.2020 00:05 14,2 C 10,6 C 73 % 1023,7 hPa 0,0 l/m 3,2 km/h (1 Bft) NW 315 0 min 0,0 UV-I 0 W/m 9,4 C 14,2 C 6,4 km/h (2 Bft)
20.05.2020 00:06 14,2 C 10,6 C 73 % 1023,7 hPa 0,0 l/m 1,6 km/h (1 Bft) NW 315 0 min 0,0 UV-I 0 W/m 9,4 C 14,2 C 3,2 km/h (1 Bft)
20.05.2020 00:07 14,2 C 10,6 C 73 % 1023,8 hPa 0,0 l/m 3,2 km/h (1 Bft) NW 315 0 min 0,0 UV-I 0 W/m 9,4 C 14,2 C 6,4 km/h (2 Bft)
20.05.2020 00:08 14,2 C 11,1 C 73 % 1023,7 hPa 0,0 l/m 4,8 km/h (1 Bft) NW 315 0 min 0,0 UV-I 0 W/m 9,4 C 14,2 C 6,4 km/h (2 Bft)
20.05.2020 00:09 14,2 C 11,1 C 73 % 1023,7 hPa 0,0 l/m 1,6 km/h (1 Bft) N-NW 337 0 min 0,0 UV-I 0 W/m 9,4 C 14,2 C 3,2 km/h (1 Bft)
20.05.2020 00:10 14,2 C 10,6 C 73 % 1023,7 hPa 0,0 l/m 1,6 km/h (1 Bft) N-NW 337 0 min 0,0 UV-I 0 W/m 9,4 C 14,2 C 4,8 km/h (1 Bft)
20.05.2020 00:11 14,1 C 10,6 C 73 % 1023,7 hPa 0,0 l/m 4,8 km/h (1 Bft) N-NW 337 0 min 0,0 UV-I 0 W/m 9,3 C 14,1 C 6,4 km/h (2 Bft)
20.05.2020 00:12 14,1 C 11,1 C 73 % 1023,7 hPa 0,0 l/m 3,2 km/h (1 Bft) N-NW 337 0 min 0,0 UV-I 0 W/m 9,3 C 14,1 C 4,8 km/h (1 Bft)
20.05.2020 00:13 14,1 C 10,6 C 73 % 1023,7 hPa 0,0 l/m 1,6 km/h (1 Bft) N-NW 337 0 min 0,0 UV-I 0 W/m 9,3 C 14,1 C 3,2 km/h (1 Bft)
20.05.2020 00:14 14,1 C 10,6 C 73 % 1023,7 hPa 0,0 l/m 1,6 km/h (1 Bft) N-NW 337 0 min 0,0 UV-I 0 W/m 9,3 C 14,1 C 3,2 km/h (1 Bft)
20.05.2020 00:15 14,0 C 10,6 C 74 % 1023,7 hPa 0,0 l/m 1,6 km/h (1 Bft) N-NW 337 0 min 0,0 UV-I 0 W/m 9,4 C 14,0 C 3,2 km/h (1 Bft)
20.05.2020 00:16 14,0 C 10,6 C 74 % 1023,7 hPa 0,0 l/m 1,6 km/h (1 Bft) N-NW 337 0 min 0,0 UV-I 0 W/m 9,4 C 14,0 C 4,8 km/h (1 Bft)
20.05.2020 00:17 14,0 C 10,6 C 74 % 1023,7 hPa 0,0 l/m 1,6 km/h (1 Bft) N-NW 337 0 min 0,0 UV-I 0 W/m 9,4 C 14,0 C 4,8 km/h (1 Bft)
20.05.2020 00:18 13,9 C 10,0 C 74 % 1023,6 hPa 0,0 l/m 1,6 km/h (1 Bft) N-NW 337 0 min 0,0 UV-I 0 W/m 9,3 C 13,9 C 3,2 km/h (1 Bft)
20.05.2020 00:19 13,9 C 10,0 C 74 % 1023,7 hPa 0,0 l/m 1,6 km/h (1 Bft) N-NW 337 0 min 0,0 UV-I 0 W/m 9,3 C 13,9 C 3,2 km/h (1 Bft)
20.05.2020 00:20 13,9 C 10,0 C 74 % 1023,6 hPa 0,0 l/m 3,2 km/h (1 Bft) N-NW 337 0 min 0,0 UV-I 0 W/m 9,3 C 13,9 C 4,8 km/h (1 Bft)
20.05.2020 00:21 13,9 C 10,0 C 74 % 1023,6 hPa 0,0 l/m 1,6 km/h (1 Bft) N-NW 337 0 min 0,0 UV-I 0 W/m 9,3 C 13,9 C 3,2 km/h (1 Bft)
20.05.2020 00:22 13,9 C 10,0 C 74 % 1023,7 hPa 0,0 l/m 1,6 km/h (1 Bft) N-NW 337 0 min 0,0 UV-I 0 W/m 9,3 C 13,9 C 3,2 km/h (1 Bft)
20.05.2020 00:23 13,8 C 10,0 C 74 % 1023,6 hPa 0,0 l/m 1,6 km/h (1 Bft) N-NW 337 0 min 0,0 UV-I 0 W/m 9,2 C 13,8 C 3,2 km/h (1 Bft)
20.05.2020 00:24 13,8 C 10,0 C 74 % 1023,7 hPa 0,0 l/m 1,6 km/h (1 Bft) N-NW 337 0 min 0,0 UV-I 0 W/m 9,2 C 13,8 C 3,2 km/h (1 Bft)
20.05.2020 00:25 13,8 C 10,0 C 74 % 1023,7 hPa 0,0 l/m 1,6 km/h (1 Bft) N-NW 337 0 min 0,0 UV-I 0 W/m 9,2 C 13,8 C 3,2 km/h (1 Bft)
20.05.2020 00:26 13,8 C 10,0 C 74 % 1023,7 hPa 0,0 l/m 3,2 km/h (1 Bft) N-NW 337 0 min 0,0 UV-I 0 W/m 9,2 C 13,8 C 3,2 km/h (1 Bft)
20.05.2020 00:27 13,7 C 10,0 C 74 % 1023,6 hPa 0,0 l/m 3,2 km/h (1 Bft) N-NW 337 0 min 0,0 UV-I 0 W/m 9,2 C 13,7 C 6,4 km/h (2 Bft)
20.05.2020 00:28 13,7 C 10,0 C 74 % 1023,6 hPa 0,0 l/m 4,8 km/h (1 Bft) N-NW 337 0 min 0,0 UV-I 0 W/m 9,2 C 13,7 C 6,4 km/h (2 Bft)
20.05.2020 00:29 13,6 C 10,0 C 74 % 1023,6 hPa 0,0 l/m 4,8 km/h (1 Bft) N-NW 337 0 min 0,0 UV-I 0 W/m 9,1 C 13,6 C 6,4 km/h (2 Bft)
20.05.2020 00:30 13,6 C 10,0 C 75 % 1023,6 hPa 0,0 l/m 4,8 km/h (1 Bft) N-NW 337 0 min 0,0 UV-I 0 W/m 9,3 C 13,6 C 6,4 km/h (2 Bft)
20.05.2020 00:31 13,6 C 10,0 C 74 % 1023,7 hPa 0,0 l/m 1,6 km/h (1 Bft) N-NW 337 0 min 0,0 UV-I 0 W/m 9,1 C 13,6 C 4,8 km/h (1 Bft)
20.05.2020 00:32 13,6 C 10,0 C 74 % 1023,6 hPa 0,0 l/m 1,6 km/h (1 Bft) N-NW 337 0 min 0,0 UV-I 0 W/m 9,1 C 13,6 C 3,2 km/h (1 Bft)
20.05.2020 00:33 13,6 C 10,6 C 74 % 1023,6 hPa 0,0 l/m 3,2 km/h (1 Bft) N-NW 337 0 min 0,0 UV-I 0 W/m 9,1 C 13,6 C 6,4 km/h (2 Bft)
20.05.2020 00:34 13,5 C 10,6 C 74 % 1023,5 hPa 0,0 l/m 3,2 km/h (1 Bft) N-NW 337 0 min 0,0 UV-I 0 W/m 9,0 C 13,5 C 4,8 km/h (1 Bft)
20.05.2020 00:35 13,4 C 10,6 C 74 % 1023,6 hPa 0,0 l/m 3,2 km/h (1 Bft) N-NW 337 0 min 0,0 UV-I 0 W/m 8,9 C 13,4 C 4,8 km/h (1 Bft)
20.05.2020 00:36 13,3 C 10,0 C 75 % 1023,7 hPa 0,0 l/m 3,2 km/h (1 Bft) N-NW 337 0 min 0,0 UV-I 0 W/m 9,0 C 13,3 C 4,8 km/h (1 Bft)
20.05.2020 00:37 13,3 C 10,0 C 75 % 1023,7 hPa 0,0 l/m 1,6 km/h (1 Bft) N-NW 337 0 min 0,0 UV-I 0 W/m 9,0 C 13,3 C 3,2 km/h (1 Bft)
20.05.2020 00:38 13,2 C 10,0 C 75 % 1023,6 hPa 0,0 l/m 3,2 km/h (1 Bft) N-NW 337 0 min 0,0 UV-I 0 W/m 8,9 C 13,2 C 3,2 km/h (1 Bft)
20.05.2020 00:39 13,2 C 10,0 C 75 % 1023,6 hPa 0,0 l/m 3,2 km/h (1 Bft) N-NW 337 0 min 0,0 UV-I 0 W/m 8,9 C 13,2 C 4,8 km/h (1 Bft)
20.05.2020 00:40 13,2 C 9,4 C 76 % 1023,7 hPa 0,0 l/m 3,2 km/h (1 Bft) N-NW 337 0 min 0,0 UV-I 0 W/m 9,1 C 13,2 C 4,8 km/h (1 Bft)
20.05.2020 00:41 13,1 C 10,0 C 76 % 1023,6 hPa 0,0 l/m 3,2 km/h (1 Bft) N-NW 337 0 min 0,0 UV-I 0 W/m 9,0 C 13,1 C 4,8 km/h (1 Bft)
20.05.2020 00:42 13,1 C 10,0 C 76 % 1023,6 hPa 0,0 l/m 3,2 km/h (1 Bft) N-NW 337 0 min 0,0 UV-I 0 W/m 9,0 C 13,1 C 4,8 km/h (1 Bft)
20.05.2020 00:43 13,1 C 10,0 C 76 % 1023,7 hPa 0,0 l/m 3,2 km/h (1 Bft) N-NW 337 0 min 0,0 UV-I 0 W/m 9,0 C 13,1 C 4,8 km/h (1 Bft)
20.05.2020 00:44 13,1 C 9,4 C 76 % 1023,6 hPa 0,0 l/m 3,2 km/h (1 Bft) N-NW 337 0 min 0,0 UV-I 0 W/m 9,0 C 13,1 C 4,8 km/h (1 Bft)
20.05.2020 00:45 13,1 C 9,4 C 76 % 1023,7 hPa 0,0 l/m 3,2 km/h (1 Bft) N-NW 337 0 min 0,0 UV-I 0 W/m 9,0 C 13,1 C 4,8 km/h (1 Bft)
20.05.2020 00:46 13,0 C 10,0 C 76 % 1023,6 hPa 0,0 l/m 3,2 km/h (1 Bft) NW 315 0 min 0,0 UV-I 0 W/m 8,9 C 13,0 C 6,4 km/h (2 Bft)
20.05.2020 00:47 13,1 C 9,4 C 76 % 1023,7 hPa 0,0 l/m 3,2 km/h (1 Bft) NW 315 0 min 0,0 UV-I 0 W/m 9,0 C 13,1 C 4,8 km/h (1 Bft)
20.05.2020 00:48 13,0 C 9,4 C 76 % 1023,6 hPa 0,0 l/m 3,2 km/h (1 Bft) NW 315 0 min 0,0 UV-I 0 W/m 8,9 C 13,0 C 4,8 km/h (1 Bft)
20.05.2020 00:49 13,0 C 9,4 C 76 % 1023,6 hPa 0,0 l/m 3,2 km/h (1 Bft) NW 315 0 min 0,0 UV-I 0 W/m 8,9 C 13,0 C 6,4 km/h (2 Bft)
20.05.2020 00:50 12,9 C 9,4 C 76 % 1023,6 hPa 0,0 l/m 3,2 km/h (1 Bft) NW 315 0 min 0,0 UV-I 0 W/m 8,8 C 12,9 C 6,4 km/h (2 Bft)
20.05.2020 00:51 12,8 C 9,4 C 76 % 1023,6 hPa 0,0 l/m 1,6 km/h (1 Bft) NW 315 0 min 0,0 UV-I 0 W/m 8,7 C 12,8 C 1,6 km/h (1 Bft)
20.05.2020 00:52 12,8 C 9,4 C 77 % 1023,6 hPa 0,0 l/m 1,6 km/h (1 Bft) NW 315 0 min 0,0 UV-I 0 W/m 8,9 C 12,8 C 3,2 km/h (1 Bft)
20.05.2020 00:53 12,7 C 9,4 C 77 % 1023,5 hPa 0,0 l/m 1,6 km/h (1 Bft) NW 315 0 min 0,0 UV-I 0 W/m 8,8 C 12,7 C 3,2 km/h (1 Bft)
20.05.2020 00:54 12,7 C 9,4 C 77 % 1023,5 hPa 0,0 l/m 1,6 km/h (1 Bft) NW 315 0 min 0,0 UV-I 0 W/m 8,8 C 12,7 C 3,2 km/h (1 Bft)
20.05.2020 00:55 12,6 C 9,4 C 77 % 1023,5 hPa 0,0 l/m 1,6 km/h (1 Bft) NW 315 0 min 0,0 UV-I 0 W/m 8,7 C 12,6 C 3,2 km/h (1 Bft)
20.05.2020 00:56 12,5 C 9,4 C 78 % 1023,6 hPa 0,0 l/m 3,2 km/h (1 Bft) NW 315 0 min 0,0 UV-I 0 W/m 8,8 C 12,5 C 4,8 km/h (1 Bft)
20.05.2020 00:57 12,5 C 9,4 C 78 % 1023,6 hPa 0,0 l/m 1,6 km/h (1 Bft) NW 315 0 min 0,0 UV-I 0 W/m 8,8 C 12,5 C 4,8 km/h (1 Bft)
20.05.2020 00:58 12,4 C 8,9 C 78 % 1023,6 hPa 0,0 l/m 3,2 km/h (1 Bft) NW 315 0 min 0,0 UV-I 0 W/m 8,7 C 12,4 C 6,4 km/h (2 Bft)
20.05.2020 00:59 12,4 C 8,9 C 78 % 1023,6 hPa 0,0 l/m 3,2 km/h (1 Bft) W-NW 292 0 min 0,0 UV-I 0 W/m 8,7 C 12,4 C 6,4 km/h (2 Bft)
20.05.2020 01:00 12,4 C 8,9 C 78 % 1023,5 hPa 0,0 l/m 3,2 km/h (1 Bft) W-NW 292 0 min 0,0 UV-I 0 W/m 8,7 C 12,4 C 6,4 km/h (2 Bft)
20.05.2020 01:01 12,4 C 9,4 C 78 % 1023,5 hPa 0,0 l/m 3,2 km/h (1 Bft) W-NW 292 0 min 0,0 UV-I 0 W/m 8,7 C 12,4 C 6,4 km/h (2 Bft)
20.05.2020 01:02 12,4 C 9,4 C 78 % 1023,4 hPa 0,0 l/m 3,2 km/h (1 Bft) W-NW 292 0 min 0,0 UV-I 0 W/m 8,7 C 12,4 C 4,8 km/h (1 Bft)
20.05.2020 01:03 12,4 C 9,4 C 78 % 1023,5 hPa 0,0 l/m 3,2 km/h (1 Bft) W-NW 292 0 min 0,0 UV-I 0 W/m 8,7 C 12,4 C 6,4 km/h (2 Bft)
20.05.2020 01:04 12,4 C 9,4 C 78 % 1023,5 hPa 0,0 l/m 3,2 km/h (1 Bft) W-NW 292 0 min 0,0 UV-I 0 W/m 8,7 C 12,4 C 4,8 km/h (1 Bft)
20.05.2020 01:05 12,3 C 9,4 C 78 % 1023,6 hPa 0,0 l/m 1,6 km/h (1 Bft) W-NW 292 0 min 0,0 UV-I 0 W/m 8,6 C 12,3 C 4,8 km/h (1 Bft)
20.05.2020 01:06 12,3 C 9,4 C 78 % 1023,6 hPa 0,0 l/m 3,2 km/h (1 Bft) W-NW 292 0 min 0,0 UV-I 0 W/m 8,6 C 12,3 C 4,8 km/h (1 Bft)
20.05.2020 01:07 12,3 C 8,9 C 78 % 1023,6 hPa 0,0 l/m 1,6 km/h (1 Bft) W-NW 292 0 min 0,0 UV-I 0 W/m 8,6 C 12,3 C 3,2 km/h (1 Bft)
20.05.2020 01:08 12,2 C 8,9 C 78 % 1023,6 hPa 0,0 l/m 1,6 km/h (1 Bft) W-NW 292 0 min 0,0 UV-I 0 W/m 8,5 C 12,2 C 1,6 km/h (1 Bft)
20.05.2020 01:09 12,3 C 8,9 C 78 % 1023,6 hPa 0,0 l/m 1,6 km/h (1 Bft) W-NW 292 0 min 0,0 UV-I 0 W/m 8,6 C 12,3 C 3,2 km/h (1 Bft)
20.05.2020 01:10 12,2 C 8,9 C 78 % 1023,6 hPa 0,0 l/m 0,0 km/h (0 Bft) W-NW 292 0 min 0,0 UV-I 0 W/m 8,5 C 12,2 C 1,6 km/h (1 Bft)
20.05.2020 01:11 12,1 C 9,4 C 78 % 1023,6 hPa 0,0 l/m 1,6 km/h (1 Bft) W-NW 292 0 min 0,0 UV-I 0 W/m 8,4 C 12,1 C 1,6 km/h (1 Bft)
20.05.2020 01:12 12,1 C 9,4 C 78 % 1023,5 hPa 0,0 l/m 0,0 km/h (0 Bft) W-NW 292 0 min 0,0 UV-I 0 W/m 8,4 C 12,1 C 1,6 km/h (1 Bft)
20.05.2020 01:13 12,0 C 8,9 C 78 % 1023,5 hPa 0,0 l/m 0,0 km/h (0 Bft) W-NW 292 0 min 0,0 UV-I 0 W/m 8,3 C 12,0 C 1,6 km/h (1 Bft)
20.05.2020 01:14 11,9 C 8,9 C 78 % 1023,5 hPa 0,0 l/m 0,0 km/h (0 Bft) W-NW 292 0 min 0,0 UV-I 0 W/m 8,2 C 11,9 C 1,6 km/h (1 Bft)
20.05.2020 01:15 11,7 C 8,9 C 78 % 1023,5 hPa 0,0 l/m 0,0 km/h (0 Bft) W-NW 292 0 min 0,0 UV-I 0 W/m 8,0 C 11,7 C 1,6 km/h (1 Bft)
20.05.2020 01:16 11,7 C 8,9 C 79 % 1023,5 hPa 0,0 l/m 1,6 km/h (1 Bft) W-NW 292 0 min 0,0 UV-I 0 W/m 8,2 C 11,7 C 3,2 km/h (1 Bft)
20.05.2020 01:17 11,6 C 8,9 C 80 % 1023,5 hPa 0,0 l/m 3,2 km/h (1 Bft) W-NW 292 0 min 0,0 UV-I 0 W/m 8,3 C 11,6 C 4,8 km/h (1 Bft)
20.05.2020 01:18 11,6 C 8,9 C 79 % 1023,4 hPa 0,0 l/m 1,6 km/h (1 Bft) W-NW 292 0 min 0,0 UV-I 0 W/m 8,1 C 11,6 C 1,6 km/h (1 Bft)
20.05.2020 01:19 11,4 C 8,3 C 80 % 1023,5 hPa 0,0 l/m 1,6 km/h (1 Bft) W-NW 292 0 min 0,0 UV-I 0 W/m 8,1 C 11,4 C 1,6 km/h (1 Bft)
20.05.2020 01:20 11,4 C 8,3 C 81 % 1023,5 hPa 0,0 l/m 1,6 km/h (1 Bft) W-NW 292 0 min 0,0 UV-I 0 W/m 8,3 C 11,4 C 3,2 km/h (1 Bft)
20.05.2020 01:21 11,4 C 8,3 C 81 % 1023,5 hPa 0,0 l/m 1,6 km/h (1 Bft) W-NW 292 0 min 0,0 UV-I 0 W/m 8,3 C 11,4 C 3,2 km/h (1 Bft)
20.05.2020 01:22 11,4 C 8,3 C 81 % 1023,5 hPa 0,0 l/m 1,6 km/h (1 Bft) W-NW 292 0 min 0,0 UV-I 0 W/m 8,3 C 11,4 C 3,2 km/h (1 Bft)
20.05.2020 01:23 11,4 C 8,3 C 81 % 1023,5 hPa 0,0 l/m 3,2 km/h (1 Bft) W-NW 292 0 min 0,0 UV-I 0 W/m 8,3 C 11,4 C 3,2 km/h (1 Bft)
20.05.2020 01:24 11,4 C 8,3 C 81 % 1023,5 hPa 0,0 l/m 1,6 km/h (1 Bft) W-NW 292 0 min 0,0 UV-I 0 W/m 8,3 C 11,4 C 3,2 km/h (1 Bft)
20.05.2020 01:25 11,4 C 8,3 C 81 % 1023,5 hPa 0,0 l/m 1,6 km/h (1 Bft) W-NW 292 0 min 0,0 UV-I 0 W/m 8,3 C 11,4 C 3,2 km/h (1 Bft)
20.05.2020 01:26 11,4 C 8,3 C 81 % 1023,4 hPa 0,0 l/m 1,6 km/h (1 Bft) W-NW 292 0 min 0,0 UV-I 0 W/m 8,3 C 11,4 C 4,8 km/h (1 Bft)
20.05.2020 01:27 11,4 C 8,3 C 82 % 1023,4 hPa 0,0 l/m 3,2 km/h (1 Bft) W-NW 292 0 min 0,0 UV-I 0 W/m 8,4 C 11,4 C 4,8 km/h (1 Bft)
20.05.2020 01:28 11,3 C 8,3 C 81 % 1023,5 hPa 0,0 l/m 1,6 km/h (1 Bft) W-NW 292 0 min 0,0 UV-I 0 W/m 8,2 C 11,3 C 3,2 km/h (1 Bft)
20.05.2020 01:29 11,3 C 8,3 C 81 % 1023,5 hPa 0,0 l/m 0,0 km/h (0 Bft) W-NW 292 0 min 0,0 UV-I 0 W/m 8,2 C 11,3 C 1,6 km/h (1 Bft)
20.05.2020 01:30 11,3 C 8,3 C 82 % 1023,5 hPa 0,0 l/m 1,6 km/h (1 Bft) W-NW 292 0 min 0,0 UV-I 0 W/m 8,3 C 11,3 C 3,2 km/h (1 Bft)
20.05.2020 01:31 11,3 C 8,3 C 82 % 1023,5 hPa 0,0 l/m 1,6 km/h (1 Bft) W-NW 292 0 min 0,0 UV-I 0 W/m 8,3 C 11,3 C 3,2 km/h (1 Bft)
20.05.2020 01:32 11,3 C 8,3 C 82 % 1023,5 hPa 0,0 l/m 0,0 km/h (0 Bft) N 0 0 min 0,0 UV-I 0 W/m 8,3 C 11,3 C 0,0 km/h (0 Bft)
20.05.2020 01:33 11,3 C 8,3 C 82 % 1023,5 hPa 0,0 l/m 0,0 km/h (0 Bft) N 0 0 min 0,0 UV-I 0 W/m 8,3 C 11,3 C 0,0 km/h (0 Bft)
20.05.2020 01:34 11,4 C 8,3 C 82 % 1023,5 hPa 0,0 l/m 0,0 km/h (0 Bft) W-NW 292 0 min 0,0 UV-I 0 W/m 8,4 C 11,4 C 1,6 km/h (1 Bft)
20.05.2020 01:35 11,4 C 8,3 C 82 % 1023,5 hPa 0,0 l/m 1,6 km/h (1 Bft) W-NW 292 0 min 0,0 UV-I 0 W/m 8,4 C 11,4 C 1,6 km/h (1 Bft)
20.05.2020 01:36 11,4 C 8,3 C 82 % 1023,5 hPa 0,0 l/m 1,6 km/h (1 Bft) W-NW 292 0 min 0,0 UV-I 0 W/m 8,4 C 11,4 C 3,2 km/h (1 Bft)
20.05.2020 01:37 11,4 C 8,3 C 81 % 1023,6 hPa 0,0 l/m 0,0 km/h (0 Bft) N 0 0 min 0,0 UV-I 0 W/m 8,3 C 11,4 C 0,0 km/h (0 Bft)
20.05.2020 01:38 11,5 C 8,3 C 81 % 1023,5 hPa 0,0 l/m 0,0 km/h (0 Bft) W-NW 292 0 min 0,0 UV-I 0 W/m 8,4 C 11,5 C 1,6 km/h (1 Bft)
20.05.2020 01:39 11,5 C 8,3 C 81 % 1023,5 hPa 0,0 l/m 1,6 km/h (1 Bft) W-NW 292 0 min 0,0 UV-I 0 W/m 8,4 C 11,5 C 1,6 km/h (1 Bft)
20.05.2020 01:40 11,6 C 7,8 C 81 % 1023,5 hPa 0,0 l/m 1,6 km/h (1 Bft) W-NW 292 0 min 0,0 UV-I 0 W/m 8,5 C 11,6 C 3,2 km/h (1 Bft)
20.05.2020 01:41 11,6 C 7,8 C 81 % 1023,5 hPa 0,0 l/m 1,6 km/h (1 Bft) W-NW 292 0 min 0,0 UV-I 0 W/m 8,5 C 11,6 C 1,6 km/h (1 Bft)
20.05.2020 01:42 11,4 C 7,8 C 81 % 1023,4 hPa 0,0 l/m 0,0 km/h (0 Bft) W-NW 292 0 min 0,0 UV-I 0 W/m 8,3 C 11,4 C 1,6 km/h (1 Bft)
20.05.2020 01:43 11,4 C 7,8 C 81 % 1023,4 hPa 0,0 l/m 0,0 km/h (0 Bft) N 0 0 min 0,0 UV-I 0 W/m 8,3 C 11,4 C 0,0 km/h (0 Bft)
20.05.2020 01:44 11,3 C 7,8 C 81 % 1023,4 hPa 0,0 l/m 0,0 km/h (0 Bft) N 0 0 min 0,0 UV-I 0 W/m 8,2 C 11,3 C 0,0 km/h (0 Bft)
20.05.2020 01:45 11,2 C 7,8 C 81 % 1023,4 hPa 0,0 l/m 0,0 km/h (0 Bft) W-NW 292 0 min 0,0 UV-I 0 W/m 8,1 C 11,2 C 1,6 km/h (1 Bft)
20.05.2020 01:46 11,1 C 7,8 C 81 % 1023,5 hPa 0,0 l/m 0,0 km/h (0 Bft) N 0 0 min 0,0 UV-I 0 W/m 8,0 C 11,1 C 0,0 km/h (0 Bft)
20.05.2020 01:47 10,9 C 7,2 C 82 % 1023,4 hPa 0,0 l/m 0,0 km/h (0 Bft) N 0 0 min 0,0 UV-I 0 W/m 7,9 C 10,9 C 0,0 km/h (0 Bft)
20.05.2020 01:48 10,8 C 7,2 C 82 % 1023,4 hPa 0,0 l/m 0,0 km/h (0 Bft) N 0 0 min 0,0 UV-I 0 W/m 7,9 C 10,8 C 0,0 km/h (0 Bft)
20.05.2020 01:49 10,8 C 7,2 C 83 % 1023,4 hPa 0,0 l/m 1,6 km/h (1 Bft) W-NW 292 0 min 0,0 UV-I 0 W/m 8,0 C 10,8 C 3,2 km/h (1 Bft)
20.05.2020 01:50 10,7 C 7,8 C 83 % 1023,4 hPa 0,0 l/m 0,0 km/h (0 Bft) W-NW 292 0 min 0,0 UV-I 0 W/m 7,9 C 10,7 C 1,6 km/h (1 Bft)
20.05.2020 01:51 10,7 C 7,2 C 83 % 1023,4 hPa 0,0 l/m 0,0 km/h (0 Bft) W-NW 292 0 min 0,0 UV-I 0 W/m 7,9 C 10,7 C 1,6 km/h (1 Bft)
20.05.2020 01:52 10,7 C 7,2 C 83 % 1023,4 hPa 0,0 l/m 0,0 km/h (0 Bft) W-NW 292 0 min 0,0 UV-I 0 W/m 7,9 C 10,7 C 1,6 km/h (1 Bft)
20.05.2020 01:53 10,7 C 7,2 C 83 % 1023,4 hPa 0,0 l/m 1,6 km/h (1 Bft) W-NW 292 0 min 0,0 UV-I 0 W/m 7,9 C 10,7 C 1,6 km/h (1 Bft)
20.05.2020 01:54 10,7 C 7,2 C 83 % 1023,4 hPa 0,0 l/m 0,0 km/h (0 Bft) W-NW 292 0 min 0,0 UV-I 0 W/m 7,9 C 10,7 C 1,6 km/h (1 Bft)
20.05.2020 01:55 10,7 C 7,2 C 83 % 1023,4 hPa 0,0 l/m 0,0 km/h (0 Bft) N 0 0 min 0,0 UV-I 0 W/m 7,9 C 10,7 C 0,0 km/h (0 Bft)
20.05.2020 01:56 10,6 C 7,2 C 83 % 1023,4 hPa 0,0 l/m 0,0 km/h (0 Bft) N 0 0 min 0,0 UV-I 0 W/m 7,8 C 10,6 C 0,0 km/h (0 Bft)
20.05.2020 01:57 10,6 C 7,2 C 83 % 1023,4 hPa 0,0 l/m 0,0 km/h (0 Bft) N 0 0 min 0,0 UV-I 0 W/m 7,8 C 10,6 C 0,0 km/h (0 Bft)
20.05.2020 01:58 10,7 C 7,2 C 84 % 1023,4 hPa 0,0 l/m 0,0 km/h (0 Bft) N 0 0 min 0,0 UV-I 0 W/m 8,1 C 10,7 C 0,0 km/h (0 Bft)
20.05.2020 01:59 10,7 C 7,2 C 84 % 1023,3 hPa 0,0 l/m 0,0 km/h (0 Bft) N 0 0 min 0,0 UV-I 0 W/m 8,1 C 10,7 C 0,0 km/h (0 Bft)
20.05.2020 02:00 10,7 C 7,2 C 83 % 1023,3 hPa 0,0 l/m 0,0 km/h (0 Bft) N 0 0 min 0,0 UV-I 0 W/m 7,9 C 10,7 C 0,0 km/h (0 Bft)
20.05.2020 02:01 10,6 C 7,2 C 83 % 1023,3 hPa 0,0 l/m 0,0 km/h (0 Bft) N 0 0 min 0,0 UV-I 0 W/m 7,8 C 10,6 C 0,0 km/h (0 Bft)
20.05.2020 02:02 10,7 C 7,2 C 84 % 1023,3 hPa 0,0 l/m 0,0 km/h (0 Bft) W-NW 292 0 min 0,0 UV-I 0 W/m 8,1 C 10,7 C 1,6 km/h (1 Bft)
20.05.2020 02:03 10,7 C 7,2 C 84 % 1023,3 hPa 0,0 l/m 1,6 km/h (1 Bft) W-NW 292 0 min 0,0 UV-I 0 W/m 8,1 C 10,7 C 3,2 km/h (1 Bft)
20.05.2020 02:04 10,7 C 7,2 C 83 % 1023,3 hPa 0,0 l/m 0,0 km/h (0 Bft) W-NW 292 0 min 0,0 UV-I 0 W/m 7,9 C 10,7 C 1,6 km/h (1 Bft)
20.05.2020 02:05 10,6 C 7,2 C 83 % 1023,3 hPa 0,0 l/m 0,0 km/h (0 Bft) N 0 0 min 0,0 UV-I 0 W/m 7,8 C 10,6 C 0,0 km/h (0 Bft)
20.05.2020 02:06 10,6 C 7,2 C 84 % 1023,3 hPa 0,0 l/m 0,0 km/h (0 Bft) N 0 0 min 0,0 UV-I 0 W/m 8,0 C 10,6 C 0,0 km/h (0 Bft)
20.05.2020 02:07 10,6 C 7,2 C 84 % 1023,2 hPa 0,0 l/m 0,0 km/h (0 Bft) N 0 0 min 0,0 UV-I 0 W/m 8,0 C 10,6 C 0,0 km/h (0 Bft)
20.05.2020 02:08 10,6 C 7,2 C 83 % 1023,2 hPa 0,0 l/m 0,0 km/h (0 Bft) N 0 0 min 0,0 UV-I 0 W/m 7,8 C 10,6 C 0,0 km/h (0 Bft)
20.05.2020 02:09 10,5 C 7,2 C 84 % 1023,2 hPa 0,0 l/m 0,0 km/h (0 Bft) W-NW 292 0 min 0,0 UV-I 0 W/m 7,9 C 10,5 C 1,6 km/h (1 Bft)
20.05.2020 02:10 10,4 C 7,2 C 84 % 1023,2 hPa 0,0 l/m 0,0 km/h (0 Bft) N 0 0 min 0,0 UV-I 0 W/m 7,8 C 10,4 C 0,0 km/h (0 Bft)
20.05.2020 02:11 10,4 C 7,2 C 84 % 1023,2 hPa 0,0 l/m 0,0 km/h (0 Bft) N 0 0 min 0,0 UV-I 0 W/m 7,8 C 10,4 C 0,0 km/h (0 Bft)
20.05.2020 02:12 10,4 C 7,2 C 84 % 1023,2 hPa 0,0 l/m 0,0 km/h (0 Bft) N 0 0 min 0,0 UV-I 0 W/m 7,8 C 10,4 C 0,0 km/h (0 Bft)
20.05.2020 02:13 10,4 C 7,2 C 84 % 1023,2 hPa 0,0 l/m 0,0 km/h (0 Bft) N 0 0 min 0,0 UV-I 0 W/m 7,8 C 10,4 C 0,0 km/h (0 Bft)
20.05.2020 02:14 10,4 C 7,2 C 84 % 1023,2 hPa 0,0 l/m 0,0 km/h (0 Bft) N 0 0 min 0,0 UV-I 0 W/m 7,8 C 10,4 C 0,0 km/h (0 Bft)
20.05.2020 02:15 10,3 C 7,2 C 84 % 1023,2 hPa 0,0 l/m 0,0 km/h (0 Bft) W-NW 292 0 min 0,0 UV-I 0 W/m 7,7 C 10,3 C 1,6 km/h (1 Bft)
20.05.2020 02:16 10,3 C 7,2 C 84 % 1023,2 hPa 0,0 l/m 0,0 km/h (0 Bft) W-NW 292 0 min 0,0 UV-I 0 W/m 7,7 C 10,3 C 1,6 km/h (1 Bft)
20.05.2020 02:17 10,2 C 7,2 C 85 % 1023,2 hPa 0,0 l/m 0,0 km/h (0 Bft) W-NW 292 0 min 0,0 UV-I 0 W/m 7,8 C 10,2 C 1,6 km/h (1 Bft)
20.05.2020 02:18 10,2 C 7,2 C 85 % 1023,3 hPa 0,0 l/m 0,0 km/h (0 Bft) W-NW 292 0 min 0,0 UV-I 0 W/m 7,8 C 10,2 C 1,6 km/h (1 Bft)
20.05.2020 02:19 10,2 C 7,2 C 85 % 1023,2 hPa 0,0 l/m 0,0 km/h (0 Bft) W-NW 292 0 min 0,0 UV-I 0 W/m 7,8 C 10,2 C 1,6 km/h (1 Bft)
20.05.2020 02:20 10,1 C 7,8 C 85 % 1023,2 hPa 0,0 l/m 0,0 km/h (0 Bft) W-NW 292 0 min 0,0 UV-I 0 W/m 7,7 C 10,1 C 1,6 km/h (1 Bft)
20.05.2020 02:21 10,1 C 7,8 C 85 % 1023,2 hPa 0,0 l/m 1,6 km/h (1 Bft) W-NW 292 0 min 0,0 UV-I 0 W/m 7,7 C 10,1 C 1,6 km/h (1 Bft)
20.05.2020 02:22 10,1 C 7,8 C 85 % 1023,3 hPa 0,0 l/m 1,6 km/h (1 Bft) W-NW 292 0 min 0,0 UV-I 0 W/m 7,7 C 10,1 C 1,6 km/h (1 Bft)
20.05.2020 02:23 10,1 C 7,8 C 86 % 1023,3 hPa 0,0 l/m 1,6 km/h (1 Bft) W-NW 292 0 min 0,0 UV-I 0 W/m 7,9 C 10,1 C 1,6 km/h (1 Bft)
20.05.2020 02:24 10,0 C 7,8 C 86 % 1023,3 hPa 0,0 l/m 1,6 km/h (1 Bft) W-NW 292 0 min 0,0 UV-I 0 W/m 7,8 C 10,0 C 1,6 km/h (1 Bft)
20.05.2020 02:25 9,9 C 7,8 C 86 % 1023,3 hPa 0,0 l/m 0,0 km/h (0 Bft) N 0 0 min 0,0 UV-I 0 W/m 7,7 C 9,9 C 0,0 km/h (0 Bft)
20.05.2020 02:26 9,9 C 7,2 C 86 % 1023,3 hPa 0,0 l/m 0,0 km/h (0 Bft) W-NW 292 0 min 0,0 UV-I 0 W/m 7,7 C 9,9 C 1,6 km/h (1 Bft)
20.05.2020 02:27 9,9 C 7,2 C 86 % 1023,3 hPa 0,0 l/m 1,6 km/h (1 Bft) W-NW 292 0 min 0,0 UV-I 0 W/m 7,7 C 9,9 C 3,2 km/h (1 Bft)
20.05.2020 02:28 9,9 C 7,2 C 86 % 1023,2 hPa 0,0 l/m 3,2 km/h (1 Bft) W-NW 292 0 min 0,0 UV-I 0 W/m 7,7 C 9,9 C 3,2 km/h (1 Bft)
20.05.2020 02:29 10,0 C 7,2 C 86 % 1023,3 hPa 0,0 l/m 1,6 km/h (1 Bft) W-NW 292 0 min 0,0 UV-I 0 W/m 7,8 C 10,0 C 1,6 km/h (1 Bft)
20.05.2020 02:30 10,0 C 7,2 C 86 % 1023,3 hPa 0,0 l/m 1,6 km/h (1 Bft) W-NW 292 0 min 0,0 UV-I 0 W/m 7,8 C 10,0 C 1,6 km/h (1 Bft)
20.05.2020 02:31 10,1 C 7,2 C 86 % 1023,3 hPa 0,0 l/m 1,6 km/h (1 Bft) W-NW 292 0 min 0,0 UV-I 0 W/m 7,9 C 10,1 C 1,6 km/h (1 Bft)
20.05.2020 02:32 9,9 C 6,7 C 86 % 1023,3 hPa 0,0 l/m 0,0 km/h (0 Bft) W-NW 292 0 min 0,0 UV-I 0 W/m 7,7 C 9,9 C 1,6 km/h (1 Bft)
20.05.2020 02:33 9,8 C 6,7 C 85 % 1023,2 hPa 0,0 l/m 0,0 km/h (0 Bft) W-NW 292 0 min 0,0 UV-I 0 W/m 7,4 C 9,8 C 1,6 km/h (1 Bft)
20.05.2020 02:34 9,8 C 6,7 C 86 % 1023,3 hPa 0,0 l/m 0,0 km/h (0 Bft) W-NW 292 0 min 0,0 UV-I 0 W/m 7,6 C 9,8 C 1,6 km/h (1 Bft)
20.05.2020 02:35 9,7 C 6,7 C 85 % 1023,2 hPa 0,0 l/m 0,0 km/h (0 Bft) N 0 0 min 0,0 UV-I 0 W/m 7,3 C 9,7 C 0,0 km/h (0 Bft)
20.05.2020 02:36 9,6 C 6,7 C 85 % 1023,3 hPa 0,0 l/m 0,0 km/h (0 Bft) N 0 0 min 0,0 UV-I 0 W/m 7,2 C 9,6 C 0,0 km/h (0 Bft)
20.05.2020 02:37 9,4 C 6,7 C 85 % 1023,2 hPa 0,0 l/m 0,0 km/h (0 Bft) N 0 0 min 0,0 UV-I 0 W/m 7,0 C 9,4 C 0,0 km/h (0 Bft)
20.05.2020 02:38 9,4 C 6,7 C 85 % 1023,3 hPa 0,0 l/m 0,0 km/h (0 Bft) N 0 0 min 0,0 UV-I 0 W/m 7,0 C 9,4 C 0,0 km/h (0 Bft)
20.05.2020 02:39 9,3 C 6,7 C 86 % 1023,2 hPa 0,0 l/m 0,0 km/h (0 Bft) N 0 0 min 0,0 UV-I 0 W/m 7,1 C 9,3 C 0,0 km/h (0 Bft)
20.05.2020 02:40 9,3 C 6,7 C 86 % 1023,3 hPa 0,0 l/m 0,0 km/h (0 Bft) N 0 0 min 0,0 UV-I 0 W/m 7,1 C 9,3 C 0,0 km/h (0 Bft)
20.05.2020 02:41 9,3 C 6,1 C 86 % 1023,2 hPa 0,0 l/m 0,0 km/h (0 Bft) N 0 0 min 0,0 UV-I 0 W/m 7,1 C 9,3 C 0,0 km/h (0 Bft)
20.05.2020 02:42 9,3 C 6,7 C 86 % 1023,3 hPa 0,0 l/m 0,0 km/h (0 Bft) N 0 0 min 0,0 UV-I 0 W/m 7,1 C 9,3 C 0,0 km/h (0 Bft)
20.05.2020 02:43 9,4 C 6,7 C 87 % 1023,4 hPa 0,0 l/m 0,0 km/h (0 Bft) N 0 0 min 0,0 UV-I 0 W/m 7,3 C 9,4 C 0,0 km/h (0 Bft)
20.05.2020 02:44 9,4 C 6,7 C 87 % 1023,2 hPa 0,0 l/m 0,0 km/h (0 Bft) N 0 0 min 0,0 UV-I 0 W/m 7,3 C 9,4 C 0,0 km/h (0 Bft)
20.05.2020 02:45 9,5 C 6,7 C 87 % 1023,4 hPa 0,0 l/m 0,0 km/h (0 Bft) N 0 0 min 0,0 UV-I 0 W/m 7,4 C 9,5 C 0,0 km/h (0 Bft)
20.05.2020 02:46 9,4 C 6,7 C 86 % 1023,3 hPa 0,0 l/m 0,0 km/h (0 Bft) N 0 0 min 0,0 UV-I 0 W/m 7,2 C 9,4 C 0,0 km/h (0 Bft)
20.05.2020 02:47 9,4 C 6,7 C 87 % 1023,3 hPa 0,0 l/m 0,0 km/h (0 Bft) N 0 0 min 0,0 UV-I 0 W/m 7,3 C 9,4 C 0,0 km/h (0 Bft)
20.05.2020 02:48 9,3 C 6,1 C 87 % 1023,3 hPa 0,0 l/m 0,0 km/h (0 Bft) N 0 0 min 0,0 UV-I 0 W/m 7,2 C 9,3 C 0,0 km/h (0 Bft)
20.05.2020 02:49 9,3 C 6,1 C 87 % 1023,3 hPa 0,0 l/m 0,0 km/h (0 Bft) N 0 0 min 0,0 UV-I 0 W/m 7,2 C 9,3 C 0,0 km/h (0 Bft)
20.05.2020 02:50 9,4 C 6,1 C 87 % 1023,4 hPa 0,0 l/m 0,0 km/h (0 Bft) N 0 0 min 0,0 UV-I 0 W/m 7,3 C 9,4 C 0,0 km/h (0 Bft)
20.05.2020 02:51 9,4 C 6,1 C 87 % 1023,3 hPa 0,0 l/m 0,0 km/h (0 Bft) N 0 0 min 0,0 UV-I 0 W/m 7,3 C 9,4 C 0,0 km/h (0 Bft)
20.05.2020 02:52 9,4 C 6,7 C 87 % 1023,3 hPa 0,0 l/m 0,0 km/h (0 Bft) N 0 0 min 0,0 UV-I 0 W/m 7,3 C 9,4 C 0,0 km/h (0 Bft)
20.05.2020 02:53 9,4 C 6,7 C 87 % 1023,4 hPa 0,0 l/m 0,0 km/h (0 Bft) N 0 0 min 0,0 UV-I 0 W/m 7,3 C 9,4 C 0,0 km/h (0 Bft)
20.05.2020 02:54 9,4 C 6,7 C 87 % 1023,4 hPa 0,0 l/m 0,0 km/h (0 Bft) N 0 0 min 0,0 UV-I 0 W/m 7,3 C 9,4 C 0,0 km/h (0 Bft)
20.05.2020 02:55 9,4 C 6,7 C 87 % 1023,3 hPa 0,0 l/m 0,0 km/h (0 Bft) N 0 0 min 0,0 UV-I 0 W/m 7,3 C 9,4 C 0,0 km/h (0 Bft)
20.05.2020 02:56 9,4 C 6,7 C 86 % 1023,4 hPa 0,0 l/m 0,0 km/h (0 Bft) N 0 0 min 0,0 UV-I 0 W/m 7,2 C 9,4 C 0,0 km/h (0 Bft)
20.05.2020 02:57 9,4 C 6,7 C 87 % 1023,5 hPa 0,0 l/m 0,0 km/h (0 Bft) N 0 0 min 0,0 UV-I 0 W/m 7,3 C 9,4 C 0,0 km/h (0 Bft)
20.05.2020 02:58 9,4 C 6,1 C 87 % 1023,4 hPa 0,0 l/m 0,0 km/h (0 Bft) N 0 0 min 0,0 UV-I 0 W/m 7,3 C 9,4 C 0,0 km/h (0 Bft)
20.05.2020 02:59 9,4 C 6,1 C 87 % 1023,4 hPa 0,0 l/m 0,0 km/h (0 Bft) N 0 0 min 0,0 UV-I 0 W/m 7,3 C 9,4 C 0,0 km/h (0 Bft)
20.05.2020 03:00 9,4 C 6,1 C 87 % 1023,4 hPa 0,0 l/m 0,0 km/h (0 Bft) N 0 0 min 0,0 UV-I 0 W/m 7,3 C 9,4 C 0,0 km/h (0 Bft)
20.05.2020 03:01 9,5 C 6,1 C 87 % 1023,4 hPa 0,0 l/m 0,0 km/h (0 Bft) N 0 0 min 0,0 UV-I 0 W/m 7,4 C 9,5 C 0,0 km/h (0 Bft)
20.05.2020 03:02 9,4 C 6,1 C 87 % 1023,3 hPa 0,0 l/m 0,0 km/h (0 Bft) N 0 0 min 0,0 UV-I 0 W/m 7,3 C 9,4 C 0,0 km/h (0 Bft)
20.05.2020 03:03 9,4 C 6,1 C 87 % 1023,4 hPa 0,0 l/m 0,0 km/h (0 Bft) N 0 0 min 0,0 UV-I 0 W/m 7,3 C 9,4 C 0,0 km/h (0 Bft)
20.05.2020 03:04 9,3 C 6,7 C 87 % 1023,4 hPa 0,0 l/m 0,0 km/h (0 Bft) N 0 0 min 0,0 UV-I 0 W/m 7,2 C 9,3 C 0,0 km/h (0 Bft)
20.05.2020 03:05 9,3 C 6,1 C 87 % 1023,4 hPa 0,0 l/m 0,0 km/h (0 Bft) N 0 0 min 0,0 UV-I 0 W/m 7,2 C 9,3 C 0,0 km/h (0 Bft)
20.05.2020 03:06 9,3 C 6,1 C 87 % 1023,4 hPa 0,0 l/m 0,0 km/h (0 Bft) N 0 0 min 0,0 UV-I 0 W/m 7,2 C 9,3 C 0,0 km/h (0 Bft)
20.05.2020 03:07 9,3 C 6,1 C 88 % 1023,4 hPa 0,0 l/m 0,0 km/h (0 Bft) N 0 0 min 0,0 UV-I 0 W/m 7,4 C 9,3 C 0,0 km/h (0 Bft)
20.05.2020 03:08 9,3 C 6,1 C 88 % 1023,4 hPa 0,0 l/m 0,0 km/h (0 Bft) N 0 0 min 0,0 UV-I 0 W/m 7,4 C 9,3 C 0,0 km/h (0 Bft)
20.05.2020 03:09 9,2 C 6,1 C 88 % 1023,3 hPa 0,0 l/m 0,0 km/h (0 Bft) N 0 0 min 0,0 UV-I 0 W/m 7,3 C 9,2 C 0,0 km/h (0 Bft)
20.05.2020 03:10 9,1 C 6,1 C 87 % 1023,4 hPa 0,0 l/m 0,0 km/h (0 Bft) N 0 0 min 0,0 UV-I 0 W/m 7,1 C 9,1 C 0,0 km/h (0 Bft)
20.05.2020 03:11 8,9 C 6,1 C 87 % 1023,4 hPa 0,0 l/m 0,0 km/h (0 Bft) N 0 0 min 0,0 UV-I 0 W/m 6,9 C 8,9 C 0,0 km/h (0 Bft)
20.05.2020 03:12 8,9 C 6,1 C 87 % 1023,4 hPa 0,0 l/m 0,0 km/h (0 Bft) N 0 0 min 0,0 UV-I 0 W/m 6,9 C 8,9 C 0,0 km/h (0 Bft)
20.05.2020 03:13 8,8 C 6,1 C 87 % 1023,4 hPa 0,0 l/m 0,0 km/h (0 Bft) N 0 0 min 0,0 UV-I 0 W/m 6,8 C 8,8 C 0,0 km/h (0 Bft)
20.05.2020 03:14 8,8 C 6,1 C 87 % 1023,4 hPa 0,0 l/m 0,0 km/h (0 Bft) N 0 0 min 0,0 UV-I 0 W/m 6,8 C 8,8 C 0,0 km/h (0 Bft)
20.05.2020 03:15 8,8 C 6,1 C 88 % 1023,4 hPa 0,0 l/m 0,0 km/h (0 Bft) N 0 0 min 0,0 UV-I 0 W/m 6,9 C 8,8 C 0,0 km/h (0 Bft)
20.05.2020 03:16 8,8 C 6,1 C 88 % 1023,4 hPa 0,0 l/m 0,0 km/h (0 Bft) N 0 0 min 0,0 UV-I 0 W/m 6,9 C 8,8 C 0,0 km/h (0 Bft)
20.05.2020 03:17 8,8 C 6,1 C 88 % 1023,4 hPa 0,0 l/m 0,0 km/h (0 Bft) N 0 0 min 0,0 UV-I 0 W/m 6,9 C 8,8 C 0,0 km/h (0 Bft)
20.05.2020 03:18 8,8 C 6,1 C 89 % 1023,4 hPa 0,0 l/m 0,0 km/h (0 Bft) N 0 0 min 0,0 UV-I 0 W/m 7,1 C 8,8 C 0,0 km/h (0 Bft)
20.05.2020 03:19 8,9 C 6,1 C 89 % 1023,4 hPa 0,0 l/m 0,0 km/h (0 Bft) N 0 0 min 0,0 UV-I 0 W/m 7,2 C 8,9 C 0,0 km/h (0 Bft)
20.05.2020 03:20 8,9 C 6,1 C 89 % 1023,4 hPa 0,0 l/m 0,0 km/h (0 Bft) N 0 0 min 0,0 UV-I 0 W/m 7,2 C 8,9 C 0,0 km/h (0 Bft)
20.05.2020 03:21 8,9 C 6,1 C 89 % 1023,4 hPa 0,0 l/m 0,0 km/h (0 Bft) N 0 0 min 0,0 UV-I 0 W/m 7,2 C 8,9 C 0,0 km/h (0 Bft)
20.05.2020 03:22 9,0 C 6,1 C 89 % 1023,4 hPa 0,0 l/m 0,0 km/h (0 Bft) N 0 0 min 0,0 UV-I 0 W/m 7,3 C 9,0 C 0,0 km/h (0 Bft)
20.05.2020 03:23 9,0 C 6,1 C 88 % 1023,5 hPa 0,0 l/m 0,0 km/h (0 Bft) N 0 0 min 0,0 UV-I 0 W/m 7,1 C 9,0 C 0,0 km/h (0 Bft)
20.05.2020 03:24 9,0 C 6,1 C 88 % 1023,3 hPa 0,0 l/m 0,0 km/h (0 Bft) N 0 0 min 0,0 UV-I 0 W/m 7,1 C 9,0 C 0,0 km/h (0 Bft)
20.05.2020 03:25 9,0 C 5,6 C 88 % 1023,3 hPa 0,0 l/m 0,0 km/h (0 Bft) N 0 0 min 0,0 UV-I 0 W/m 7,1 C 9,0 C 0,0 km/h (0 Bft)
20.05.2020 03:26 9,0 C 5,6 C 89 % 1023,4 hPa 0,0 l/m 0,0 km/h (0 Bft) N 0 0 min 0,0 UV-I 0 W/m 7,3 C 9,0 C 0,0 km/h (0 Bft)
20.05.2020 03:27 9,1 C 5,6 C 89 % 1023,4 hPa 0,0 l/m 0,0 km/h (0 Bft) N 0 0 min 0,0 UV-I 0 W/m 7,4 C 9,1 C 0,0 km/h (0 Bft)
20.05.2020 03:28 9,0 C 5,6 C 89 % 1023,3 hPa 0,0 l/m 0,0 km/h (0 Bft) N 0 0 min 0,0 UV-I 0 W/m 7,3 C 9,0 C 0,0 km/h (0 Bft)
20.05.2020 03:29 8,9 C 5,6 C 88 % 1023,3 hPa 0,0 l/m 0,0 km/h (0 Bft) N 0 0 min 0,0 UV-I 0 W/m 7,0 C 8,9 C 0,0 km/h (0 Bft)
20.05.2020 03:30 8,9 C 6,1 C 88 % 1023,3 hPa 0,0 l/m 0,0 km/h (0 Bft) N 0 0 min 0,0 UV-I 0 W/m 7,0 C 8,9 C 0,0 km/h (0 Bft)
20.05.2020 03:31 8,9 C 6,1 C 88 % 1023,3 hPa 0,0 l/m 0,0 km/h (0 Bft) N 0 0 min 0,0 UV-I 0 W/m 7,0 C 8,9 C 0,0 km/h (0 Bft)
20.05.2020 03:32 8,9 C 6,7 C 89 % 1023,3 hPa 0,0 l/m 0,0 km/h (0 Bft) N 0 0 min 0,0 UV-I 0 W/m 7,2 C 8,9 C 0,0 km/h (0 Bft)
20.05.2020 03:33 8,9 C 6,7 C 89 % 1023,3 hPa 0,0 l/m 0,0 km/h (0 Bft) N 0 0 min 0,0 UV-I 0 W/m 7,2 C 8,9 C 0,0 km/h (0 Bft)
20.05.2020 03:34 8,9 C 6,1 C 90 % 1023,3 hPa 0,0 l/m 0,0 km/h (0 Bft) N 0 0 min 0,0 UV-I 0 W/m 7,4 C 8,9 C 0,0 km/h (0 Bft)
20.05.2020 03:35 9,0 C 6,1 C 90 % 1023,3 hPa 0,0 l/m 0,0 km/h (0 Bft) N 0 0 min 0,0 UV-I 0 W/m 7,4 C 9,0 C 0,0 km/h (0 Bft)
20.05.2020 03:36 9,0 C 6,1 C 90 % 1023,3 hPa 0,0 l/m 0,0 km/h (0 Bft) N 0 0 min 0,0 UV-I 0 W/m 7,4 C 9,0 C 0,0 km/h (0 Bft)
20.05.2020 03:37 9,1 C 6,1 C 90 % 1023,2 hPa 0,0 l/m 0,0 km/h (0 Bft) N 0 0 min 0,0 UV-I 0 W/m 7,5 C 9,1 C 0,0 km/h (0 Bft)
20.05.2020 03:38 9,0 C 6,1 C 89 % 1023,3 hPa 0,0 l/m 0,0 km/h (0 Bft) N 0 0 min 0,0 UV-I 0 W/m 7,3 C 9,0 C 0,0 km/h (0 Bft)
20.05.2020 03:39 8,9 C 6,1 C 89 % 1023,2 hPa 0,0 l/m 0,0 km/h (0 Bft) N 0 0 min 0,0 UV-I 0 W/m 7,2 C 8,9 C 0,0 km/h (0 Bft)
20.05.2020 03:40 8,7 C 6,1 C 89 % 1023,2 hPa 0,0 l/m 0,0 km/h (0 Bft) N 0 0 min 0,0 UV-I 0 W/m 7,0 C 8,7 C 0,0 km/h (0 Bft)
20.05.2020 03:41 8,7 C 6,1 C 89 % 1023,3 hPa 0,0 l/m 0,0 km/h (0 Bft) N 0 0 min 0,0 UV-I 0 W/m 7,0 C 8,7 C 0,0 km/h (0 Bft)
20.05.2020 03:42 8,6 C 5,6 C 88 % 1023,1 hPa 0,0 l/m 0,0 km/h (0 Bft) W-NW 292 0 min 0,0 UV-I 0 W/m 6,7 C 8,6 C 1,6 km/h (1 Bft)
20.05.2020 03:43 8,4 C 6,1 C 89 % 1023,2 hPa 0,0 l/m 0,0 km/h (0 Bft) W-NW 292 0 min 0,0 UV-I 0 W/m 6,7 C 8,4 C 1,6 km/h (1 Bft)
20.05.2020 03:44 8,3 C 6,1 C 89 % 1023,2 hPa 0,0 l/m 0,0 km/h (0 Bft) W-NW 292 0 min 0,0 UV-I 0 W/m 6,6 C 8,3 C 1,6 km/h (1 Bft)
20.05.2020 03:45 8,2 C 5,6 C 88 % 1023,1 hPa 0,0 l/m 0,0 km/h (0 Bft) N 0 0 min 0,0 UV-I 0 W/m 6,3 C 8,2 C 0,0 km/h (0 Bft)
20.05.2020 03:46 8,1 C 5,6 C 88 % 1023,2 hPa 0,0 l/m 0,0 km/h (0 Bft) N 0 0 min 0,0 UV-I 0 W/m 6,2 C 8,1 C 0,0 km/h (0 Bft)
20.05.2020 03:47 7,9 C 5,6 C 88 % 1023,2 hPa 0,0 l/m 0,0 km/h (0 Bft) N 0 0 min 0,0 UV-I 0 W/m 6,0 C 7,9 C 0,0 km/h (0 Bft)
20.05.2020 03:48 7,8 C 5,6 C 88 % 1023,2 hPa 0,0 l/m 0,0 km/h (0 Bft) N 0 0 min 0,0 UV-I 0 W/m 5,9 C 7,8 C 0,0 km/h (0 Bft)
20.05.2020 03:49 7,8 C 5,6 C 89 % 1023,1 hPa 0,0 l/m 0,0 km/h (0 Bft) N 0 0 min 0,0 UV-I 0 W/m 6,1 C 7,8 C 0,0 km/h (0 Bft)
20.05.2020 03:50 7,8 C 5,6 C 89 % 1023,2 hPa 0,0 l/m 0,0 km/h (0 Bft) N 0 0 min 0,0 UV-I 0 W/m 6,1 C 7,8 C 0,0 km/h (0 Bft)
20.05.2020 03:51 7,8 C 5,6 C 89 % 1023,2 hPa 0,0 l/m 0,0 km/h (0 Bft) N 0 0 min 0,0 UV-I 0 W/m 6,1 C 7,8 C 0,0 km/h (0 Bft)
20.05.2020 03:52 7,9 C 5,0 C 90 % 1023,2 hPa 0,0 l/m 0,0 km/h (0 Bft) N 0 0 min 0,0 UV-I 0 W/m 6,4 C 7,9 C 0,0 km/h (0 Bft)
20.05.2020 03:53 7,9 C 5,0 C 90 % 1023,3 hPa 0,0 l/m 0,0 km/h (0 Bft) N 0 0 min 0,0 UV-I 0 W/m 6,4 C 7,9 C 0,0 km/h (0 Bft)
20.05.2020 03:54 7,9 C 5,6 C 90 % 1023,2 hPa 0,0 l/m 0,0 km/h (0 Bft) N 0 0 min 0,0 UV-I 0 W/m 6,4 C 7,9 C 0,0 km/h (0 Bft)
20.05.2020 03:55 8,0 C 5,6 C 90 % 1023,2 hPa 0,0 l/m 0,0 km/h (0 Bft) N 0 0 min 0,0 UV-I 0 W/m 6,5 C 8,0 C 0,0 km/h (0 Bft)
20.05.2020 03:56 8,0 C 5,6 C 90 % 1023,2 hPa 0,0 l/m 0,0 km/h (0 Bft) N 0 0 min 0,0 UV-I 0 W/m 6,5 C 8,0 C 0,0 km/h (0 Bft)
20.05.2020 03:57 8,1 C 5,6 C 90 % 1023,2 hPa 0,0 l/m 0,0 km/h (0 Bft) N 0 0 min 0,0 UV-I 0 W/m 6,6 C 8,1 C 0,0 km/h (0 Bft)
20.05.2020 03:58 8,1 C 5,6 C 90 % 1023,3 hPa 0,0 l/m 0,0 km/h (0 Bft) N 0 0 min 0,0 UV-I 0 W/m 6,6 C 8,1 C 0,0 km/h (0 Bft)
20.05.2020 03:59 8,1 C 5,6 C 90 % 1023,2 hPa 0,0 l/m 0,0 km/h (0 Bft) W-NW 292 0 min 0,0 UV-I 0 W/m 6,6 C 8,1 C 1,6 km/h (1 Bft)
20.05.2020 04:00 8,1 C 5,6 C 89 % 1023,2 hPa 0,0 l/m 1,6 km/h (1 Bft) W-NW 292 0 min 0,0 UV-I 0 W/m 6,4 C 8,1 C 3,2 km/h (1 Bft)
20.05.2020 04:01 8,0 C 5,6 C 89 % 1023,2 hPa 0,0 l/m 1,6 km/h (1 Bft) W-NW 292 0 min 0,0 UV-I 0 W/m 6,3 C 8,0 C 3,2 km/h (1 Bft)
20.05.2020 04:02 8,0 C 5,0 C 90 % 1023,2 hPa 0,0 l/m 1,6 km/h (1 Bft) W-NW 292 0 min 0,0 UV-I 0 W/m 6,5 C 8,0 C 3,2 km/h (1 Bft)
20.05.2020 04:03 8,0 C 5,0 C 90 % 1023,1 hPa 0,0 l/m 1,6 km/h (1 Bft) W-NW 292 0 min 0,0 UV-I 0 W/m 6,5 C 8,0 C 3,2 km/h (1 Bft)
20.05.2020 04:04 8,0 C 5,6 C 90 % 1023,2 hPa 0,0 l/m 1,6 km/h (1 Bft) W-NW 292 0 min 0,0 UV-I 0 W/m 6,5 C 8,0 C 3,2 km/h (1 Bft)
20.05.2020 04:05 8,0 C 5,6 C 90 % 1023,2 hPa 0,0 l/m 0,0 km/h (0 Bft) W-NW 292 0 min 0,0 UV-I 0 W/m 6,5 C 8,0 C 1,6 km/h (1 Bft)
20.05.2020 04:06 7,9 C 5,6 C 90 % 1023,2 hPa 0,0 l/m 0,0 km/h (0 Bft) W-NW 292 0 min 0,0 UV-I 0 W/m 6,4 C 7,9 C 1,6 km/h (1 Bft)
20.05.2020 04:07 7,9 C 5,0 C 90 % 1023,1 hPa 0,0 l/m 0,0 km/h (0 Bft) W-NW 292 0 min 0,0 UV-I 0 W/m 6,4 C 7,9 C 1,6 km/h (1 Bft)
20.05.2020 04:08 7,9 C 5,0 C 90 % 1023,1 hPa 0,0 l/m 0,0 km/h (0 Bft) W-NW 292 0 min 0,0 UV-I 0 W/m 6,4 C 7,9 C 1,6 km/h (1 Bft)
20.05.2020 04:09 7,8 C 5,0 C 90 % 1023,1 hPa 0,0 l/m 0,0 km/h (0 Bft) N 0 0 min 0,0 UV-I 0 W/m 6,3 C 7,8 C 0,0 km/h (0 Bft)
20.05.2020 04:10 7,8 C 5,0 C 90 % 1023,2 hPa 0,0 l/m 0,0 km/h (0 Bft) N 0 0 min 0,0 UV-I 0 W/m 6,3 C 7,8 C 0,0 km/h (0 Bft)
20.05.2020 04:11 7,8 C 5,0 C 90 % 1023,2 hPa 0,0 l/m 0,0 km/h (0 Bft) N 0 0 min 0,0 UV-I 0 W/m 6,3 C 7,8 C 0,0 km/h (0 Bft)
20.05.2020 04:12 7,8 C 5,0 C 90 % 1023,1 hPa 0,0 l/m 0,0 km/h (0 Bft) N 0 0 min 0,0 UV-I 0 W/m 6,3 C 7,8 C 0,0 km/h (0 Bft)
20.05.2020 04:13 7,8 C 5,0 C 90 % 1023,2 hPa 0,0 l/m 0,0 km/h (0 Bft) N 0 0 min 0,0 UV-I 0 W/m 6,3 C 7,8 C 0,0 km/h (0 Bft)
20.05.2020 04:14 7,7 C 5,0 C 90 % 1023,1 hPa 0,0 l/m 0,0 km/h (0 Bft) N 0 0 min 0,0 UV-I 0 W/m 6,2 C 7,7 C 0,0 km/h (0 Bft)
20.05.2020 04:15 7,8 C 5,0 C 90 % 1023,1 hPa 0,0 l/m 0,0 km/h (0 Bft) N 0 0 min 0,0 UV-I 0 W/m 6,3 C 7,8 C 0,0 km/h (0 Bft)
20.05.2020 04:16 7,7 C 5,0 C 90 % 1023,1 hPa 0,0 l/m 0,0 km/h (0 Bft) N 0 0 min 0,0 UV-I 0 W/m 6,2 C 7,7 C 0,0 km/h (0 Bft)
20.05.2020 04:17 7,7 C 5,0 C 90 % 1023,1 hPa 0,0 l/m 0,0 km/h (0 Bft) W-NW 292 0 min 0,0 UV-I 0 W/m 6,2 C 7,7 C 1,6 km/h (1 Bft)
20.05.2020 04:18 7,6 C 5,0 C 90 % 1023,1 hPa 0,0 l/m 1,6 km/h (1 Bft) W-NW 292 0 min 0,0 UV-I 0 W/m 6,1 C 7,6 C 1,6 km/h (1 Bft)
20.05.2020 04:19 7,6 C 5,0 C 90 % 1023,1 hPa 0,0 l/m 0,0 km/h (0 Bft) W-NW 292 0 min 0,0 UV-I 0 W/m 6,1 C 7,6 C 1,6 km/h (1 Bft)
20.05.2020 04:20 7,6 C 5,6 C 90 % 1023,1 hPa 0,0 l/m 0,0 km/h (0 Bft) W-NW 292 0 min 0,0 UV-I 0 W/m 6,1 C 7,6 C 1,6 km/h (1 Bft)
20.05.2020 04:21 7,6 C 5,6 C 91 % 1023,1 hPa 0,0 l/m 1,6 km/h (1 Bft) W-NW 292 0 min 0,0 UV-I 0 W/m 6,2 C 7,6 C 3,2 km/h (1 Bft)
20.05.2020 04:22 7,7 C 5,6 C 91 % 1023,0 hPa 0,0 l/m 0,0 km/h (0 Bft) W-NW 292 0 min 0,0 UV-I 0 W/m 6,3 C 7,7 C 1,6 km/h (1 Bft)
20.05.2020 04:23 7,7 C 5,6 C 91 % 1023,0 hPa 0,0 l/m 1,6 km/h (1 Bft) W-NW 292 0 min 0,0 UV-I 0 W/m 6,3 C 7,7 C 1,6 km/h (1 Bft)
20.05.2020 04:24 7,8 C 5,6 C 91 % 1023,0 hPa 0,0 l/m 0,0 km/h (0 Bft) W-NW 292 0 min 0,0 UV-I 0 W/m 6,4 C 7,8 C 1,6 km/h (1 Bft)
20.05.2020 04:25 7,9 C 5,6 C 91 % 1023,1 hPa 0,0 l/m 1,6 km/h (1 Bft) W-NW 292 0 min 0,0 UV-I 0 W/m 6,5 C 7,9 C 1,6 km/h (1 Bft)
20.05.2020 04:26 8,0 C 5,6 C 91 % 1023,1 hPa 0,0 l/m 1,6 km/h (1 Bft) W-NW 292 0 min 0,0 UV-I 0 W/m 6,6 C 8,0 C 1,6 km/h (1 Bft)
20.05.2020 04:27 8,1 C 5,6 C 91 % 1023,1 hPa 0,0 l/m 1,6 km/h (1 Bft) W-NW 292 0 min 0,0 UV-I 0 W/m 6,7 C 8,1 C 1,6 km/h (1 Bft)
20.05.2020 04:28 8,1 C 5,6 C 91 % 1023,1 hPa 0,0 l/m 1,6 km/h (1 Bft) W-NW 292 0 min 0,0 UV-I 0 W/m 6,7 C 8,1 C 3,2 km/h (1 Bft)
20.05.2020 04:29 8,2 C 5,6 C 91 % 1023,0 hPa 0,0 l/m 1,6 km/h (1 Bft) W-NW 292 0 min 0,0 UV-I 0 W/m 6,8 C 8,2 C 1,6 km/h (1 Bft)
20.05.2020 04:30 8,3 C 5,6 C 91 % 1023,1 hPa 0,0 l/m 1,6 km/h (1 Bft) W-NW 292 0 min 0,0 UV-I 0 W/m 6,9 C 8,3 C 1,6 km/h (1 Bft)
20.05.2020 04:31 8,3 C 5,6 C 91 % 1023,1 hPa 0,0 l/m 1,6 km/h (1 Bft) W-NW 292 0 min 0,0 UV-I 0 W/m 6,9 C 8,3 C 3,2 km/h (1 Bft)
20.05.2020 04:32 8,3 C 5,6 C 91 % 1023,1 hPa 0,0 l/m 1,6 km/h (1 Bft) W-NW 292 0 min 0,0 UV-I 0 W/m 6,9 C 8,3 C 1,6 km/h (1 Bft)
20.05.2020 04:33 8,3 C 5,6 C 91 % 1023,1 hPa 0,0 l/m 1,6 km/h (1 Bft) W-NW 292 0 min 0,0 UV-I 0 W/m 6,9 C 8,3 C 3,2 km/h (1 Bft)
20.05.2020 04:34 8,3 C 5,6 C 91 % 1023,0 hPa 0,0 l/m 1,6 km/h (1 Bft) W-NW 292 0 min 0,0 UV-I 0 W/m 6,9 C 8,3 C 1,6 km/h (1 Bft)
20.05.2020 04:35 8,3 C 5,6 C 91 % 1023,1 hPa 0,0 l/m 0,0 km/h (0 Bft) W-NW 292 0 min 0,0 UV-I 0 W/m 6,9 C 8,3 C 1,6 km/h (1 Bft)
20.05.2020 04:36 8,1 C 5,6 C 91 % 1023,1 hPa 0,0 l/m 0,0 km/h (0 Bft) N 0 0 min 0,0 UV-I 0 W/m 6,7 C 8,1 C 0,0 km/h (0 Bft)
20.05.2020 04:37 7,9 C 5,6 C 90 % 1023,1 hPa 0,0 l/m 0,0 km/h (0 Bft) N 0 0 min 0,0 UV-I 0 W/m 6,4 C 7,9 C 0,0 km/h (0 Bft)
20.05.2020 04:38 7,7 C 5,6 C 89 % 1023,1 hPa 0,0 l/m 0,0 km/h (0 Bft) N 0 0 min 0,0 UV-I 0 W/m 6,0 C 7,7 C 0,0 km/h (0 Bft)
20.05.2020 04:39 7,6 C 5,6 C 89 % 1023,1 hPa 0,0 l/m 0,0 km/h (0 Bft) W-NW 292 0 min 0,0 UV-I 0 W/m 5,9 C 7,6 C 1,6 km/h (1 Bft)
20.05.2020 04:40 7,4 C 5,0 C 90 % 1023,1 hPa 0,0 l/m 0,0 km/h (0 Bft) N 0 0 min 0,0 UV-I 0 W/m 5,9 C 7,4 C 0,0 km/h (0 Bft)
20.05.2020 04:41 7,4 C 5,0 C 90 % 1023,0 hPa 0,0 l/m 0,0 km/h (0 Bft) N 0 0 min 0,0 UV-I 0 W/m 5,9 C 7,4 C 0,0 km/h (0 Bft)
20.05.2020 04:42 7,3 C 5,0 C 90 % 1023,0 hPa 0,0 l/m 0,0 km/h (0 Bft) N 0 0 min 0,0 UV-I 0 W/m 5,8 C 7,3 C 0,0 km/h (0 Bft)
20.05.2020 04:43 7,2 C 5,0 C 90 % 1023,0 hPa 0,0 l/m 0,0 km/h (0 Bft) N 0 0 min 0,0 UV-I 0 W/m 5,7 C 7,2 C 0,0 km/h (0 Bft)
20.05.2020 04:44 7,2 C 5,0 C 90 % 1023,1 hPa 0,0 l/m 0,0 km/h (0 Bft) N 0 0 min 0,0 UV-I 0 W/m 5,7 C 7,2 C 0,0 km/h (0 Bft)
20.05.2020 04:45 7,2 C 5,0 C 90 % 1023,0 hPa 0,0 l/m 0,0 km/h (0 Bft) N 0 0 min 0,0 UV-I 0 W/m 5,7 C 7,2 C 0,0 km/h (0 Bft)
20.05.2020 04:46 7,2 C 5,0 C 90 % 1023,0 hPa 0,0 l/m 0,0 km/h (0 Bft) N 0 0 min 0,0 UV-I 0 W/m 5,7 C 7,2 C 0,0 km/h (0 Bft)
20.05.2020 04:47 7,2 C 5,0 C 90 % 1023,0 hPa 0,0 l/m 0,0 km/h (0 Bft) N 0 0 min 0,0 UV-I 0 W/m 5,7 C 7,2 C 0,0 km/h (0 Bft)
20.05.2020 04:48 7,1 C 5,0 C 90 % 1023,0 hPa 0,0 l/m 0,0 km/h (0 Bft) N 0 0 min 0,0 UV-I 0 W/m 5,6 C 7,1 C 0,0 km/h (0 Bft)
20.05.2020 04:49 7,1 C 5,0 C 90 % 1023,0 hPa 0,0 l/m 0,0 km/h (0 Bft) N 0 0 min 0,0 UV-I 0 W/m 5,6 C 7,1 C 0,0 km/h (0 Bft)
20.05.2020 04:50 7,1 C 5,0 C 91 % 1023,0 hPa 0,0 l/m 0,0 km/h (0 Bft) N 0 0 min 0,0 UV-I 0 W/m 5,7 C 7,1 C 0,0 km/h (0 Bft)
20.05.2020 04:51 7,1 C 5,0 C 91 % 1023,0 hPa 0,0 l/m 0,0 km/h (0 Bft) N 0 0 min 0,0 UV-I 0 W/m 5,7 C 7,1 C 0,0 km/h (0 Bft)
20.05.2020 04:52 7,1 C 5,0 C 91 % 1022,9 hPa 0,0 l/m 0,0 km/h (0 Bft) W-NW 292 0 min 0,0 UV-I 0 W/m 5,7 C 7,1 C 3,2 km/h (1 Bft)
20.05.2020 04:53 7,1 C 5,0 C 91 % 1022,9 hPa 0,0 l/m 1,6 km/h (1 Bft) W-NW 292 0 min 0,0 UV-I 0 W/m 5,7 C 7,1 C 3,2 km/h (1 Bft)
20.05.2020 04:54 7,1 C 5,0 C 91 % 1022,9 hPa 0,0 l/m 1,6 km/h (1 Bft) W-NW 292 0 min 0,0 UV-I 0 W/m 5,7 C 7,1 C 3,2 km/h (1 Bft)
20.05.2020 04:55 7,2 C 5,0 C 91 % 1022,9 hPa 0,0 l/m 0,0 km/h (0 Bft) W-NW 292 0 min 0,0 UV-I 0 W/m 5,8 C 7,2 C 1,6 km/h (1 Bft)
20.05.2020 04:56 7,2 C 4,4 C 91 % 1022,9 hPa 0,0 l/m 0,0 km/h (0 Bft) W-NW 292 0 min 0,0 UV-I 0 W/m 5,8 C 7,2 C 1,6 km/h (1 Bft)
20.05.2020 04:57 7,1 C 4,4 C 91 % 1022,9 hPa 0,0 l/m 0,0 km/h (0 Bft) N 0 0 min 0,0 UV-I 0 W/m 5,7 C 7,1 C 0,0 km/h (0 Bft)
20.05.2020 04:58 7,2 C 5,0 C 91 % 1023,0 hPa 0,0 l/m 1,6 km/h (1 Bft) W-NW 292 0 min 0,0 UV-I 0 W/m 5,8 C 7,2 C 1,6 km/h (1 Bft)
20.05.2020 04:59 7,2 C 4,4 C 91 % 1022,9 hPa 0,0 l/m 0,0 km/h (0 Bft) W-NW 292 0 min 0,0 UV-I 0 W/m 5,8 C 7,2 C 1,6 km/h (1 Bft)
20.05.2020 05:00 7,2 C 5,0 C 91 % 1022,9 hPa 0,0 l/m 0,0 km/h (0 Bft) W-NW 292 0 min 0,0 UV-I 0 W/m 5,8 C 7,2 C 1,6 km/h (1 Bft)
20.05.2020 05:01 7,2 C 4,4 C 91 % 1022,9 hPa 0,0 l/m 0,0 km/h (0 Bft) W-NW 292 0 min 0,0 UV-I 0 W/m 5,8 C 7,2 C 1,6 km/h (1 Bft)
20.05.2020 05:02 7,2 C 4,4 C 91 % 1022,9 hPa 0,0 l/m 0,0 km/h (0 Bft) W-NW 292 0 min 0,0 UV-I 0 W/m 5,8 C 7,2 C 1,6 km/h (1 Bft)
20.05.2020 05:03 7,1 C 4,4 C 91 % 1022,9 hPa 0,0 l/m 1,6 km/h (1 Bft) W-NW 292 0 min 0,0 UV-I 0 W/m 5,7 C 7,1 C 1,6 km/h (1 Bft)
20.05.2020 05:04 7,2 C 4,4 C 91 % 1022,9 hPa 0,0 l/m 1,6 km/h (1 Bft) W-NW 292 0 min 0,0 UV-I 0 W/m 5,8 C 7,2 C 1,6 km/h (1 Bft)
20.05.2020 05:05 7,1 C 4,4 C 91 % 1022,8 hPa 0,0 l/m 0,0 km/h (0 Bft) W-NW 292 0 min 0,0 UV-I 0 W/m 5,7 C 7,1 C 1,6 km/h (1 Bft)
20.05.2020 05:06 7,2 C 4,4 C 91 % 1022,7 hPa 0,0 l/m 0,0 km/h (0 Bft) N 0 0 min 0,0 UV-I 0 W/m 5,8 C 7,2 C 0,0 km/h (0 Bft)
20.05.2020 05:07 7,2 C 4,4 C 92 % 1022,8 hPa 0,0 l/m 0,0 km/h (0 Bft) N 0 0 min 0,0 UV-I 0 W/m 6,0 C 7,2 C 0,0 km/h (0 Bft)
20.05.2020 05:08 7,2 C 5,0 C 92 % 1022,7 hPa 0,0 l/m 0,0 km/h (0 Bft) N 0 0 min 0,0 UV-I 0 W/m 6,0 C 7,2 C 0,0 km/h (0 Bft)
20.05.2020 05:09 7,3 C 4,4 C 92 % 1022,8 hPa 0,0 l/m 0,0 km/h (0 Bft) N 0 0 min 0,0 UV-I 0 W/m 6,1 C 7,3 C 0,0 km/h (0 Bft)
20.05.2020 05:10 7,3 C 4,4 C 92 % 1022,7 hPa 0,0 l/m 0,0 km/h (0 Bft) N 0 0 min 0,0 UV-I 0 W/m 6,1 C 7,3 C 0,0 km/h (0 Bft)
20.05.2020 05:11 7,4 C 4,4 C 92 % 1022,8 hPa 0,0 l/m 0,0 km/h (0 Bft) N 0 0 min 0,0 UV-I 0 W/m 6,2 C 7,4 C 0,0 km/h (0 Bft)
20.05.2020 05:12 7,4 C 4,4 C 92 % 1022,8 hPa 0,0 l/m 0,0 km/h (0 Bft) N 0 0 min 0,0 UV-I 0 W/m 6,2 C 7,4 C 0,0 km/h (0 Bft)
20.05.2020 05:13 7,4 C 4,4 C 92 % 1022,8 hPa 0,0 l/m 0,0 km/h (0 Bft) N 0 0 min 0,0 UV-I 0 W/m 6,2 C 7,4 C 0,0 km/h (0 Bft)
20.05.2020 05:14 7,6 C 4,4 C 92 % 1022,7 hPa 0,0 l/m 0,0 km/h (0 Bft) N 0 0 min 0,0 UV-I 0 W/m 6,4 C 7,6 C 0,0 km/h (0 Bft)
20.05.2020 05:15 7,6 C 4,4 C 92 % 1022,8 hPa 0,0 l/m 0,0 km/h (0 Bft) N 0 0 min 0,0 UV-I 0 W/m 6,4 C 7,6 C 0,0 km/h (0 Bft)
20.05.2020 05:16 7,6 C 5,0 C 92 % 1022,8 hPa 0,0 l/m 0,0 km/h (0 Bft) N 0 0 min 0,0 UV-I 0 W/m 6,4 C 7,6 C 0,0 km/h (0 Bft)
20.05.2020 05:17 7,6 C 5,0 C 92 % 1022,9 hPa 0,0 l/m 0,0 km/h (0 Bft) N 0 0 min 0,0 UV-I 0 W/m 6,4 C 7,6 C 0,0 km/h (0 Bft)
20.05.2020 05:18 7,7 C 4,4 C 92 % 1022,8 hPa 0,0 l/m 0,0 km/h (0 Bft) N 0 0 min 0,0 UV-I 0 W/m 6,5 C 7,7 C 0,0 km/h (0 Bft)
20.05.2020 05:19 7,7 C 4,4 C 92 % 1022,8 hPa 0,0 l/m 0,0 km/h (0 Bft) N 0 0 min 0,0 UV-I 0 W/m 6,5 C 7,7 C 0,0 km/h (0 Bft)
20.05.2020 05:20 7,6 C 4,4 C 92 % 1022,8 hPa 0,0 l/m 0,0 km/h (0 Bft) N 0 0 min 0,0 UV-I 0 W/m 6,4 C 7,6 C 0,0 km/h (0 Bft)
20.05.2020 05:21 7,6 C 4,4 C 92 % 1022,8 hPa 0,0 l/m 0,0 km/h (0 Bft) N 0 0 min 0,0 UV-I 0 W/m 6,4 C 7,6 C 0,0 km/h (0 Bft)
20.05.2020 05:22 7,4 C 4,4 C 91 % 1022,8 hPa 0,0 l/m 0,0 km/h (0 Bft) N 0 0 min 0,0 UV-I 0 W/m 6,0 C 7,4 C 0,0 km/h (0 Bft)
20.05.2020 05:23 7,2 C 4,4 C 90 % 1022,8 hPa 0,0 l/m 0,0 km/h (0 Bft) N 0 0 min 0,0 UV-I 0 W/m 5,7 C 7,2 C 0,0 km/h (0 Bft)
20.05.2020 05:24 6,9 C 4,4 C 90 % 1022,8 hPa 0,0 l/m 0,0 km/h (0 Bft) N 0 0 min 0,0 UV-I 0 W/m 5,4 C 6,9 C 0,0 km/h (0 Bft)
20.05.2020 05:25 6,9 C 4,4 C 91 % 1022,9 hPa 0,0 l/m 0,0 km/h (0 Bft) N 0 0 min 0,0 UV-I 0 W/m 5,5 C 6,9 C 0,0 km/h (0 Bft)
20.05.2020 05:26 6,8 C 4,4 C 91 % 1022,8 hPa 0,0 l/m 0,0 km/h (0 Bft) N 0 0 min 0,0 UV-I 0 W/m 5,4 C 6,8 C 0,0 km/h (0 Bft)
20.05.2020 05:27 6,9 C 4,4 C 92 % 1022,8 hPa 0,0 l/m 0,0 km/h (0 Bft) N 0 0 min 0,0 UV-I 0 W/m 5,7 C 6,9 C 0,0 km/h (0 Bft)
20.05.2020 05:28 6,9 C 4,4 C 92 % 1022,9 hPa 0,0 l/m 0,0 km/h (0 Bft) N 0 0 min 0,0 UV-I 0 W/m 5,7 C 6,9 C 0,0 km/h (0 Bft)
20.05.2020 05:29 7,0 C 5,0 C 92 % 1022,9 hPa 0,0 l/m 0,0 km/h (0 Bft) N 0 0 min 0,0 UV-I 0 W/m 5,8 C 7,0 C 0,0 km/h (0 Bft)
20.05.2020 05:30 7,1 C 5,0 C 92 % 1022,9 hPa 0,0 l/m 0,0 km/h (0 Bft) N 0 0 min 0,0 UV-I 0 W/m 5,9 C 7,1 C 0,0 km/h (0 Bft)
20.05.2020 05:31 7,1 C 5,0 C 92 % 1022,9 hPa 0,0 l/m 0,0 km/h (0 Bft) W-NW 292 0 min 0,0 UV-I 0 W/m 5,9 C 7,1 C 1,6 km/h (1 Bft)
20.05.2020 05:32 7,2 C 5,0 C 92 % 1022,9 hPa 0,0 l/m 0,0 km/h (0 Bft) W-NW 292 0 min 0,0 UV-I 0 W/m 6,0 C 7,2 C 1,6 km/h (1 Bft)
20.05.2020 05:33 7,2 C 5,6 C 92 % 1022,9 hPa 0,0 l/m 0,0 km/h (0 Bft) W-NW 292 0 min 0,0 UV-I 0 W/m 6,0 C 7,2 C 1,6 km/h (1 Bft)
20.05.2020 05:34 7,2 C 5,0 C 92 % 1022,9 hPa 0,0 l/m 0,0 km/h (0 Bft) N 0 0 min 0,0 UV-I 0 W/m 6,0 C 7,2 C 0,0 km/h (0 Bft)
20.05.2020 05:35 7,2 C 4,4 C 92 % 1022,8 hPa 0,0 l/m 0,0 km/h (0 Bft) N 0 0 min 0,0 UV-I 0 W/m 6,0 C 7,2 C 0,0 km/h (0 Bft)
20.05.2020 05:36 7,1 C 4,4 C 92 % 1022,9 hPa 0,0 l/m 0,0 km/h (0 Bft) N 0 0 min 0,0 UV-I 0 W/m 5,9 C 7,1 C 0,0 km/h (0 Bft)
20.05.2020 05:37 7,1 C 4,4 C 91 % 1022,8 hPa 0,0 l/m 0,0 km/h (0 Bft) N 0 0 min 0,0 UV-I 0 W/m 5,7 C 7,1 C 0,0 km/h (0 Bft)
20.05.2020 05:38 7,1 C 4,4 C 92 % 1022,8 hPa 0,0 l/m 0,0 km/h (0 Bft) N 0 0 min 0,0 UV-I 0 W/m 5,9 C 7,1 C 0,0 km/h (0 Bft)
20.05.2020 05:39 7,0 C 4,4 C 92 % 1022,9 hPa 0,0 l/m 0,0 km/h (0 Bft) N 0 0 min 0,0 UV-I 0 W/m 5,8 C 7,0 C 0,0 km/h (0 Bft)
20.05.2020 05:40 7,0 C 4,4 C 92 % 1022,8 hPa 0,0 l/m 0,0 km/h (0 Bft) N 0 0 min 0,0 UV-I 0 W/m 5,8 C 7,0 C 0,0 km/h (0 Bft)
20.05.2020 05:41 7,0 C 4,4 C 92 % 1022,8 hPa 0,0 l/m 0,0 km/h (0 Bft) W-NW 292 0 min 0,0 UV-I 0 W/m 5,8 C 7,0 C 1,6 km/h (1 Bft)
20.05.2020 05:42 7,0 C 4,4 C 92 % 1022,9 hPa 0,0 l/m 0,0 km/h (0 Bft) W-NW 292 0 min 0,0 UV-I 0 W/m 5,8 C 7,0 C 1,6 km/h (1 Bft)
20.05.2020 05:43 7,0 C 4,4 C 92 % 1022,9 hPa 0,0 l/m 0,0 km/h (0 Bft) W-NW 292 0 min 0,0 UV-I 0 W/m 5,8 C 7,0 C 1,6 km/h (1 Bft)
20.05.2020 05:44 6,9 C 4,4 C 92 % 1022,9 hPa 0,0 l/m 0,0 km/h (0 Bft) N 0 0 min 0,0 UV-I 5 W/m 5,7 C 6,9 C 0,0 km/h (0 Bft)
20.05.2020 05:45 6,8 C 4,4 C 92 % 1022,8 hPa 0,0 l/m 0,0 km/h (0 Bft) N 0 0 min 0,0 UV-I 5 W/m 5,6 C 6,8 C 0,0 km/h (0 Bft)
20.05.2020 05:46 6,7 C 4,4 C 91 % 1022,9 hPa 0,0 l/m 0,0 km/h (0 Bft) W-NW 292 0 min 0,0 UV-I 5 W/m 5,3 C 6,7 C 1,6 km/h (1 Bft)
20.05.2020 05:47 6,7 C 4,4 C 91 % 1022,9 hPa 0,0 l/m 0,0 km/h (0 Bft) W-NW 292 0 min 0,0 UV-I 5 W/m 5,3 C 6,7 C 1,6 km/h (1 Bft)
20.05.2020 05:48 6,7 C 4,4 C 92 % 1022,9 hPa 0,0 l/m 0,0 km/h (0 Bft) W-NW 292 0 min 0,0 UV-I 5 W/m 5,5 C 6,7 C 1,6 km/h (1 Bft)
20.05.2020 05:49 6,8 C 4,4 C 92 % 1022,9 hPa 0,0 l/m 0,0 km/h (0 Bft) N 0 0 min 0,0 UV-I 7 W/m 5,6 C 6,8 C 0,0 km/h (0 Bft)
20.05.2020 05:50 6,7 C 4,4 C 92 % 1022,9 hPa 0,0 l/m 0,0 km/h (0 Bft) N 0 0 min 0,0 UV-I 7 W/m 5,5 C 6,7 C 0,0 km/h (0 Bft)
20.05.2020 05:51 6,6 C 4,4 C 91 % 1022,9 hPa 0,0 l/m 0,0 km/h (0 Bft) W-NW 292 0 min 0,0 UV-I 7 W/m 5,2 C 6,6 C 1,6 km/h (1 Bft)
20.05.2020 05:52 6,6 C 4,4 C 91 % 1022,9 hPa 0,0 l/m 0,0 km/h (0 Bft) W-NW 292 0 min 0,0 UV-I 7 W/m 5,2 C 6,6 C 1,6 km/h (1 Bft)
20.05.2020 05:53 6,5 C 4,4 C 91 % 1022,9 hPa 0,0 l/m 0,0 km/h (0 Bft) N 0 0 min 0,0 UV-I 9 W/m 5,1 C 6,5 C 0,0 km/h (0 Bft)
20.05.2020 05:54 6,4 C 4,4 C 91 % 1022,9 hPa 0,0 l/m 0,0 km/h (0 Bft) N 0 0 min 0,0 UV-I 9 W/m 5,0 C 6,4 C 0,0 km/h (0 Bft)
20.05.2020 05:55 6,3 C 4,4 C 91 % 1022,8 hPa 0,0 l/m 0,0 km/h (0 Bft) N 0 0 min 0,0 UV-I 9 W/m 4,9 C 6,3 C 0,0 km/h (0 Bft)
20.05.2020 05:56 6,3 C 4,4 C 91 % 1022,9 hPa 0,0 l/m 0,0 km/h (0 Bft) W-NW 292 0 min 0,0 UV-I 9 W/m 4,9 C 6,3 C 1,6 km/h (1 Bft)
20.05.2020 05:57 6,3 C 4,4 C 92 % 1022,8 hPa 0,0 l/m 0,0 km/h (0 Bft) W-NW 292 0 min 0,0 UV-I 11 W/m 5,1 C 6,3 C 1,6 km/h (1 Bft)
20.05.2020 05:58 6,3 C 4,4 C 92 % 1022,8 hPa 0,0 l/m 0,0 km/h (0 Bft) N 0 0 min 0,0 UV-I 11 W/m 5,1 C 6,3 C 0,0 km/h (0 Bft)
20.05.2020 05:59 6,3 C 4,4 C 92 % 1022,9 hPa 0,0 l/m 0,0 km/h (0 Bft) N 0 0 min 0,0 UV-I 11 W/m 5,1 C 6,3 C 0,0 km/h (0 Bft)
20.05.2020 06:00 6,3 C 4,4 C 92 % 1022,8 hPa 0,0 l/m 0,0 km/h (0 Bft) N 0 0 min 0,0 UV-I 11 W/m 5,1 C 6,3 C 0,0 km/h (0 Bft)
20.05.2020 06:01 6,3 C 4,4 C 92 % 1022,8 hPa 0,0 l/m 0,0 km/h (0 Bft) N 0 0 min 0,0 UV-I 11 W/m 5,1 C 6,3 C 0,0 km/h (0 Bft)
20.05.2020 06:02 6,3 C 4,4 C 92 % 1022,8 hPa 0,0 l/m 0,0 km/h (0 Bft) N 0 0 min 0,0 UV-I 12 W/m 5,1 C 6,3 C 0,0 km/h (0 Bft)
20.05.2020 06:03 6,3 C 4,4 C 92 % 1022,8 hPa 0,0 l/m 0,0 km/h (0 Bft) N 0 0 min 0,0 UV-I 12 W/m 5,1 C 6,3 C 0,0 km/h (0 Bft)
20.05.2020 06:04 6,3 C 4,4 C 92 % 1022,8 hPa 0,0 l/m 0,0 km/h (0 Bft) N 0 0 min 0,0 UV-I 12 W/m 5,1 C 6,3 C 0,0 km/h (0 Bft)
20.05.2020 06:05 6,3 C 4,4 C 92 % 1022,9 hPa 0,0 l/m 0,0 km/h (0 Bft) N 0 0 min 0,0 UV-I 12 W/m 5,1 C 6,3 C 0,0 km/h (0 Bft)
20.05.2020 06:06 6,3 C 4,4 C 92 % 1022,8 hPa 0,0 l/m 0,0 km/h (0 Bft) W-NW 292 0 min 0,0 UV-I 14 W/m 5,1 C 6,3 C 1,6 km/h (1 Bft)
20.05.2020 06:07 6,4 C 4,4 C 92 % 1022,8 hPa 0,0 l/m 0,0 km/h (0 Bft) N 0 0 min 0,0 UV-I 14 W/m 5,2 C 6,4 C 0,0 km/h (0 Bft)
20.05.2020 06:08 6,4 C 4,4 C 92 % 1022,8 hPa 0,0 l/m 0,0 km/h (0 Bft) N 0 0 min 0,0 UV-I 14 W/m 5,2 C 6,4 C 0,0 km/h (0 Bft)
20.05.2020 06:09 6,5 C 4,4 C 92 % 1022,9 hPa 0,0 l/m 0,0 km/h (0 Bft) N 0 0 min 0,0 UV-I 16 W/m 5,3 C 6,5 C 0,0 km/h (0 Bft)
20.05.2020 06:10 6,5 C 4,4 C 92 % 1022,8 hPa 0,0 l/m 0,0 km/h (0 Bft) N 0 0 min 0,0 UV-I 16 W/m 5,3 C 6,5 C 0,0 km/h (0 Bft)
20.05.2020 06:11 6,6 C 4,4 C 92 % 1022,9 hPa 0,0 l/m 0,0 km/h (0 Bft) W-NW 292 0 min 0,0 UV-I 16 W/m 5,4 C 6,6 C 1,6 km/h (1 Bft)
20.05.2020 06:12 6,6 C 4,4 C 92 % 1022,9 hPa 0,0 l/m 0,0 km/h (0 Bft) N 0 0 min 0,0 UV-I 16 W/m 5,4 C 6,6 C 0,0 km/h (0 Bft)
20.05.2020 06:13 6,6 C 4,4 C 92 % 1022,9 hPa 0,0 l/m 0,0 km/h (0 Bft) N 0 0 min 0,0 UV-I 17 W/m 5,4 C 6,6 C 0,0 km/h (0 Bft)
20.05.2020 06:14 6,6 C 4,4 C 92 % 1022,9 hPa 0,0 l/m 0,0 km/h (0 Bft) W-NW 292 0 min 0,0 UV-I 18 W/m 5,4 C 6,6 C 1,6 km/h (1 Bft)
20.05.2020 06:15 6,6 C 5,0 C 92 % 1023,0 hPa 0,0 l/m 0,0 km/h (0 Bft) N 0 0 min 0,0 UV-I 18 W/m 5,4 C 6,6 C 0,0 km/h (0 Bft)
20.05.2020 06:16 6,7 C 4,4 C 92 % 1022,9 hPa 0,0 l/m 0,0 km/h (0 Bft) N 0 0 min 0,0 UV-I 18 W/m 5,5 C 6,7 C 0,0 km/h (0 Bft)
20.05.2020 06:17 6,7 C 4,4 C 92 % 1022,9 hPa 0,0 l/m 0,0 km/h (0 Bft) N 0 0 min 0,0 UV-I 18 W/m 5,5 C 6,7 C 0,0 km/h (0 Bft)
20.05.2020 06:18 6,7 C 5,0 C 92 % 1022,9 hPa 0,0 l/m 0,0 km/h (0 Bft) N 0 0 min 0,0 UV-I 19 W/m 5,5 C 6,7 C 0,0 km/h (0 Bft)
20.05.2020 06:19 6,7 C 5,0 C 92 % 1022,9 hPa 0,0 l/m 0,0 km/h (0 Bft) N 0 0 min 0,0 UV-I 19 W/m 5,5 C 6,7 C 0,0 km/h (0 Bft)
20.05.2020 06:20 6,7 C 5,0 C 92 % 1022,9 hPa 0,0 l/m 0,0 km/h (0 Bft) N 0 0 min 0,0 UV-I 21 W/m 5,5 C 6,7 C 0,0 km/h (0 Bft)
20.05.2020 06:21 6,7 C 5,0 C 92 % 1022,9 hPa 0,0 l/m 0,0 km/h (0 Bft) N 0 0 min 0,0 UV-I 21 W/m 5,5 C 6,7 C 0,0 km/h (0 Bft)
20.05.2020 06:22 6,8 C 5,0 C 92 % 1022,9 hPa 0,0 l/m 0,0 km/h (0 Bft) N 0 0 min 0,0 UV-I 21 W/m 5,6 C 6,8 C 0,0 km/h (0 Bft)
20.05.2020 06:23 6,7 C 5,0 C 92 % 1022,9 hPa 0,0 l/m 0,0 km/h (0 Bft) N 0 0 min 0,0 UV-I 23 W/m 5,5 C 6,7 C 0,0 km/h (0 Bft)
20.05.2020 06:24 6,7 C 5,0 C 92 % 1022,9 hPa 0,0 l/m 0,0 km/h (0 Bft) N 0 0 min 0,0 UV-I 25 W/m 5,5 C 6,7 C 0,0 km/h (0 Bft)
20.05.2020 06:25 6,7 C 5,0 C 92 % 1022,8 hPa 0,0 l/m 0,0 km/h (0 Bft) N 0 0 min 0,0 UV-I 26 W/m 5,5 C 6,7 C 0,0 km/h (0 Bft)
20.05.2020 06:26 6,7 C 5,0 C 92 % 1022,9 hPa 0,0 l/m 0,0 km/h (0 Bft) N 0 0 min 0,0 UV-I 28 W/m 5,5 C 6,7 C 0,0 km/h (0 Bft)
20.05.2020 06:27 6,7 C 5,0 C 92 % 1022,9 hPa 0,0 l/m 0,0 km/h (0 Bft) N 0 0 min 0,0 UV-I 28 W/m 5,5 C 6,7 C 0,0 km/h (0 Bft)
20.05.2020 06:28 6,7 C 5,0 C 92 % 1022,9 hPa 0,0 l/m 0,0 km/h (0 Bft) N 0 0 min 0,0 UV-I 30 W/m 5,5 C 6,7 C 0,0 km/h (0 Bft)
20.05.2020 06:29 6,8 C 5,0 C 92 % 1022,8 hPa 0,0 l/m 0,0 km/h (0 Bft) N 0 0 min 0,0 UV-I 32 W/m 5,6 C 6,8 C 0,0 km/h (0 Bft)
20.05.2020 06:30 6,8 C 5,0 C 92 % 1022,9 hPa 0,0 l/m 0,0 km/h (0 Bft) N 0 0 min 0,0 UV-I 33 W/m 5,6 C 6,8 C 0,0 km/h (0 Bft)
20.05.2020 06:31 6,9 C 5,0 C 92 % 1022,8 hPa 0,0 l/m 0,0 km/h (0 Bft) N 0 0 min 0,0 UV-I 34 W/m 5,7 C 6,9 C 0,0 km/h (0 Bft)
20.05.2020 06:32 6,9 C 5,0 C 92 % 1022,8 hPa 0,0 l/m 0,0 km/h (0 Bft) N 0 0 min 0,0 UV-I 37 W/m 5,7 C 6,9 C 0,0 km/h (0 Bft)
20.05.2020 06:33 6,9 C 5,0 C 92 % 1022,8 hPa 0,0 l/m 0,0 km/h (0 Bft) N 0 0 min 0,0 UV-I 39 W/m 5,7 C 6,9 C 0,0 km/h (0 Bft)
20.05.2020 06:34 7,1 C 5,6 C 92 % 1022,8 hPa 0,0 l/m 0,0 km/h (0 Bft) N 0 0 min 0,0 UV-I 40 W/m 5,9 C 7,1 C 0,0 km/h (0 Bft)
20.05.2020 06:35 7,0 C 5,6 C 92 % 1022,8 hPa 0,0 l/m 0,0 km/h (0 Bft) N 0 0 min 0,0 UV-I 40 W/m 5,8 C 7,0 C 0,0 km/h (0 Bft)
20.05.2020 06:36 7,0 C 5,6 C 91 % 1022,8 hPa 0,0 l/m 0,0 km/h (0 Bft) N 0 0 min 0,0 UV-I 42 W/m 5,6 C 7,0 C 0,0 km/h (0 Bft)
20.05.2020 06:37 6,9 C 5,6 C 91 % 1022,9 hPa 0,0 l/m 0,0 km/h (0 Bft) N 0 0 min 0,0 UV-I 45 W/m 5,5 C 6,9 C 0,0 km/h (0 Bft)
20.05.2020 06:38 6,9 C 5,6 C 91 % 1022,8 hPa 0,0 l/m 0,0 km/h (0 Bft) N 0 0 min 0,0 UV-I 46 W/m 5,5 C 6,9 C 0,0 km/h (0 Bft)
20.05.2020 06:39 6,9 C 5,6 C 91 % 1022,8 hPa 0,0 l/m 0,0 km/h (0 Bft) N 0 0 min 0,0 UV-I 47 W/m 5,5 C 6,9 C 0,0 km/h (0 Bft)
20.05.2020 06:40 6,9 C 5,6 C 91 % 1022,7 hPa 0,0 l/m 0,0 km/h (0 Bft) N 0 0 min 0,0 UV-I 49 W/m 5,5 C 6,9 C 0,0 km/h (0 Bft)
20.05.2020 06:41 6,9 C 5,6 C 91 % 1022,8 hPa 0,0 l/m 0,0 km/h (0 Bft) N 0 0 min 0,0 UV-I 51 W/m 5,5 C 6,9 C 0,0 km/h (0 Bft)
20.05.2020 06:42 6,9 C 5,6 C 91 % 1022,8 hPa 0,0 l/m 0,0 km/h (0 Bft) N 0 0 min 0,0 UV-I 53 W/m 5,5 C 6,9 C 0,0 km/h (0 Bft)
20.05.2020 06:43 7,0 C 5,6 C 91 % 1022,7 hPa 0,0 l/m 0,0 km/h (0 Bft) N 0 0 min 0,0 UV-I 54 W/m 5,6 C 7,0 C 0,0 km/h (0 Bft)
20.05.2020 06:44 7,1 C 5,6 C 91 % 1022,8 hPa 0,0 l/m 0,0 km/h (0 Bft) N 0 0 min 0,0 UV-I 54 W/m 5,7 C 7,1 C 0,0 km/h (0 Bft)
20.05.2020 06:45 7,1 C 5,6 C 91 % 1022,8 hPa 0,0 l/m 0,0 km/h (0 Bft) N 0 0 min 0,0 UV-I 58 W/m 5,7 C 7,1 C 0,0 km/h (0 Bft)
20.05.2020 06:46 7,1 C 5,6 C 91 % 1022,8 hPa 0,0 l/m 0,0 km/h (0 Bft) N 0 0 min 0,0 UV-I 60 W/m 5,7 C 7,1 C 0,0 km/h (0 Bft)
20.05.2020 06:47 7,2 C 5,6 C 91 % 1022,8 hPa 0,0 l/m 0,0 km/h (0 Bft) N 0 0 min 0,0 UV-I 62 W/m 5,8 C 7,2 C 0,0 km/h (0 Bft)
20.05.2020 06:48 7,2 C 5,6 C 91 % 1022,8 hPa 0,0 l/m 0,0 km/h (0 Bft) N 0 0 min 0,0 UV-I 63 W/m 5,8 C 7,2 C 0,0 km/h (0 Bft)
20.05.2020 06:49 7,3 C 5,6 C 91 % 1022,7 hPa 0,0 l/m 0,0 km/h (0 Bft) N 0 0 min 0,0 UV-I 66 W/m 5,9 C 7,3 C 0,0 km/h (0 Bft)
20.05.2020 06:50 7,3 C 6,1 C 91 % 1022,8 hPa 0,0 l/m 0,0 km/h (0 Bft) N 0 0 min 0,0 UV-I 69 W/m 5,9 C 7,3 C 0,0 km/h (0 Bft)
20.05.2020 06:51 7,3 C 6,1 C 91 % 1022,8 hPa 0,0 l/m 0,0 km/h (0 Bft) N 0 0 min 0,0 UV-I 70 W/m 5,9 C 7,3 C 0,0 km/h (0 Bft)
20.05.2020 06:52 7,4 C 6,1 C 90 % 1022,8 hPa 0,0 l/m 0,0 km/h (0 Bft) N 0 0 min 0,0 UV-I 70 W/m 5,9 C 7,4 C 0,0 km/h (0 Bft)
20.05.2020 06:53 7,5 C 6,1 C 90 % 1022,8 hPa 0,0 l/m 0,0 km/h (0 Bft) N 0 0 min 0,0 UV-I 72 W/m 6,0 C 7,5 C 0,0 km/h (0 Bft)
20.05.2020 06:54 7,6 C 6,1 C 90 % 1022,8 hPa 0,0 l/m 0,0 km/h (0 Bft) N 0 0 min 0,0 UV-I 75 W/m 6,1 C 7,6 C 0,0 km/h (0 Bft)
20.05.2020 06:55 7,6 C 6,1 C 90 % 1022,8 hPa 0,0 l/m 0,0 km/h (0 Bft) N 0 0 min 0,0 UV-I 77 W/m 6,1 C 7,6 C 0,0 km/h (0 Bft)
20.05.2020 06:56 7,7 C 6,7 C 90 % 1022,9 hPa 0,0 l/m 0,0 km/h (0 Bft) N 0 0 min 0,0 UV-I 77 W/m 6,2 C 7,7 C 0,0 km/h (0 Bft)
20.05.2020 06:57 7,7 C 6,7 C 90 % 1022,8 hPa 0,0 l/m 0,0 km/h (0 Bft) N 0 0 min 0,0 UV-I 79 W/m 6,2 C 7,7 C 0,0 km/h (0 Bft)
20.05.2020 06:58 7,8 C 6,7 C 90 % 1022,8 hPa 0,0 l/m 0,0 km/h (0 Bft) N 0 0 min 0,0 UV-I 79 W/m 6,3 C 7,8 C 0,0 km/h (0 Bft)
20.05.2020 06:59 7,9 C 6,7 C 90 % 1022,8 hPa 0,0 l/m 0,0 km/h (0 Bft) N 0 0 min 0,0 UV-I 79 W/m 6,4 C 7,9 C 0,0 km/h (0 Bft)
20.05.2020 07:00 7,9 C 6,7 C 90 % 1022,9 hPa 0,0 l/m 0,0 km/h (0 Bft) N 0 0 min 0,0 UV-I 81 W/m 6,4 C 7,9 C 0,0 km/h (0 Bft)
20.05.2020 07:01 8,0 C 7,2 C 90 % 1022,9 hPa 0,0 l/m 0,0 km/h (0 Bft) N 0 0 min 0,0 UV-I 81 W/m 6,5 C 8,0 C 0,0 km/h (0 Bft)
20.05.2020 07:02 8,1 C 7,2 C 90 % 1022,8 hPa 0,0 l/m 0,0 km/h (0 Bft) N 0 0 min 0,0 UV-I 81 W/m 6,6 C 8,1 C 0,0 km/h (0 Bft)
20.05.2020 07:03 8,1 C 7,8 C 90 % 1022,9 hPa 0,0 l/m 0,0 km/h (0 Bft) N 0 0 min 0,0 UV-I 83 W/m 6,6 C 8,1 C 0,0 km/h (0 Bft)
20.05.2020 07:04 8,2 C 7,8 C 90 % 1022,9 hPa 0,0 l/m 0,0 km/h (0 Bft) N 0 0 min 0,0 UV-I 83 W/m 6,7 C 8,2 C 0,0 km/h (0 Bft)
20.05.2020 07:05 8,2 C 7,8 C 90 % 1022,8 hPa 0,0 l/m 0,0 km/h (0 Bft) N 0 0 min 0,0 UV-I 84 W/m 6,7 C 8,2 C 0,0 km/h (0 Bft)
20.05.2020 07:06 8,2 C 7,8 C 89 % 1022,9 hPa 0,0 l/m 0,0 km/h (0 Bft) N 0 0 min 0,0 UV-I 87 W/m 6,5 C 8,2 C 0,0 km/h (0 Bft)
20.05.2020 07:07 8,2 C 7,8 C 89 % 1023,0 hPa 0,0 l/m 0,0 km/h (0 Bft) N 0 0 min 0,5 UV-I 90 W/m 6,5 C 8,2 C 0,0 km/h (0 Bft)
20.05.2020 07:08 8,3 C 8,3 C 89 % 1022,9 hPa 0,0 l/m 0,0 km/h (0 Bft) N 0 0 min 0,5 UV-I 93 W/m 6,6 C 8,3 C 0,0 km/h (0 Bft)
20.05.2020 07:09 8,4 C 8,3 C 89 % 1022,8 hPa 0,0 l/m 0,0 km/h (0 Bft) N 0 0 min 0,5 UV-I 97 W/m 6,7 C 8,4 C 0,0 km/h (0 Bft)
20.05.2020 07:10 8,4 C 8,3 C 89 % 1022,8 hPa 0,0 l/m 0,0 km/h (0 Bft) N 0 0 min 0,5 UV-I 100 W/m 6,7 C 8,4 C 0,0 km/h (0 Bft)
20.05.2020 07:11 8,5 C 8,3 C 89 % 1022,9 hPa 0,0 l/m 0,0 km/h (0 Bft) N 0 0 min 0,5 UV-I 105 W/m 6,8 C 8,5 C 0,0 km/h (0 Bft)
20.05.2020 07:12 8,6 C 8,9 C 89 % 1022,9 hPa 0,0 l/m 0,0 km/h (0 Bft) N 0 0 min 0,5 UV-I 111 W/m 6,9 C 8,6 C 0,0 km/h (0 Bft)
20.05.2020 07:13 8,6 C 8,9 C 89 % 1022,8 hPa 0,0 l/m 0,0 km/h (0 Bft) W-NW 292 0 min 0,5 UV-I 116 W/m 6,9 C 8,6 C 1,6 km/h (1 Bft)
20.05.2020 07:14 8,7 C 8,9 C 89 % 1022,9 hPa 0,0 l/m 0,0 km/h (0 Bft) W-NW 292 0 min 0,5 UV-I 121 W/m 7,0 C 8,7 C 1,6 km/h (1 Bft)
20.05.2020 07:15 8,7 C 8,9 C 88 % 1022,9 hPa 0,0 l/m 0,0 km/h (0 Bft) W-NW 292 0 min 0,6 UV-I 125 W/m 6,8 C 8,7 C 1,6 km/h (1 Bft)
20.05.2020 07:16 8,8 C 9,4 C 87 % 1022,9 hPa 0,0 l/m 0,0 km/h (0 Bft) W-NW 292 0 min 0,6 UV-I 127 W/m 6,8 C 8,8 C 1,6 km/h (1 Bft)
20.05.2020 07:17 8,9 C 9,4 C 87 % 1023,0 hPa 0,0 l/m 0,0 km/h (0 Bft) N 0 0 min 0,6 UV-I 130 W/m 6,9 C 8,9 C 0,0 km/h (0 Bft)
20.05.2020 07:18 9,0 C 9,4 C 87 % 1022,9 hPa 0,0 l/m 0,0 km/h (0 Bft) N 0 0 min 0,6 UV-I 133 W/m 7,0 C 9,0 C 0,0 km/h (0 Bft)
20.05.2020 07:19 9,1 C 10,0 C 87 % 1023,0 hPa 0,0 l/m 0,0 km/h (0 Bft) N 0 0 min 0,6 UV-I 135 W/m 7,1 C 9,1 C 0,0 km/h (0 Bft)
20.05.2020 07:20 9,2 C 10,0 C 87 % 1023,0 hPa 0,0 l/m 0,0 km/h (0 Bft) N 0 0 min 0,6 UV-I 135 W/m 7,2 C 9,2 C 0,0 km/h (0 Bft)
20.05.2020 07:21 9,3 C 10,0 C 87 % 1023,0 hPa 0,0 l/m 0,0 km/h (0 Bft) W-NW 292 0 min 0,6 UV-I 141 W/m 7,2 C 9,3 C 1,6 km/h (1 Bft)
20.05.2020 07:22 9,3 C 10,0 C 86 % 1022,9 hPa 0,0 l/m 0,0 km/h (0 Bft) W-NW 292 0 min 0,6 UV-I 142 W/m 7,1 C 9,3 C 1,6 km/h (1 Bft)
20.05.2020 07:23 9,3 C 10,0 C 86 % 1023,0 hPa 0,0 l/m 0,0 km/h (0 Bft) W-NW 292 0 min 0,6 UV-I 144 W/m 7,1 C 9,3 C 1,6 km/h (1 Bft)
20.05.2020 07:24 9,4 C 10,0 C 86 % 1023,0 hPa 0,0 l/m 0,0 km/h (0 Bft) N 0 0 min 0,6 UV-I 149 W/m 7,2 C 9,4 C 0,0 km/h (0 Bft)
20.05.2020 07:30 9,9 C 10,6 C 86 % 1023,1 hPa 0,0 l/m 0,1 km/h (0 Bft) W-NW 302 0 min 0,7 UV-I 160 W/m 7,7 C 9,9 C 1,6 km/h (1 Bft)
20.05.2020 07:32 10,1 C 10,6 C 85 % 1023,0 hPa 0,0 l/m 0,1 km/h (0 Bft) W-NW 302 0 min 0,7 UV-I 168 W/m 7,7 C 10,1 C 1,6 km/h (1 Bft)
20.05.2020 07:34 10,2 C 10,6 C 85 % 1023,1 hPa 0,0 l/m 0,0 km/h (0 Bft) W-NW 302 0 min 0,8 UV-I 174 W/m 7,8 C 10,2 C 0,0 km/h (0 Bft)
20.05.2020 07:36 10,3 C 10,6 C 85 % 1023,0 hPa 0,0 l/m 0,5 km/h (0 Bft) W-NW 302 0 min 0,8 UV-I 180 W/m 7,9 C 10,3 C 1,6 km/h (1 Bft)
20.05.2020 07:38 10,4 C 10,6 C 84 % 1022,9 hPa 0,0 l/m 0,1 km/h (0 Bft) W-NW 302 0 min 0,8 UV-I 184 W/m 7,8 C 10,4 C 1,6 km/h (1 Bft)
20.05.2020 07:40 10,7 C 11,1 C 84 % 1023,0 hPa 0,0 l/m 0,0 km/h (0 Bft) W-NW 302 0 min 0,9 UV-I 189 W/m 8,1 C 10,7 C 0,0 km/h (0 Bft)
20.05.2020 07:42 11,0 C 11,1 C 85 % 1023,0 hPa 0,0 l/m 0,1 km/h (0 Bft) W-NW 302 0 min 0,9 UV-I 194 W/m 8,6 C 11,0 C 1,6 km/h (1 Bft)
20.05.2020 07:44 11,2 C 11,7 C 84 % 1023,0 hPa 0,0 l/m 0,5 km/h (0 Bft) W-NW 302 0 min 0,9 UV-I 199 W/m 8,6 C 11,2 C 1,6 km/h (1 Bft)
20.05.2020 07:46 11,4 C 11,7 C 84 % 1023,1 hPa 0,0 l/m 0,3 km/h (0 Bft) W-NW 302 0 min 0,9 UV-I 203 W/m 8,8 C 11,4 C 1,6 km/h (1 Bft)
20.05.2020 07:48 11,5 C 12,2 C 83 % 1023,0 hPa 0,0 l/m 0,9 km/h (0 Bft) W-NW 302 0 min 1,0 UV-I 208 W/m 8,7 C 11,5 C 1,6 km/h (1 Bft)
20.05.2020 07:50 11,6 C 12,2 C 83 % 1023,0 hPa 0,0 l/m 0,8 km/h (0 Bft) W-NW 302 0 min 1,0 UV-I 214 W/m 8,8 C 11,6 C 1,6 km/h (1 Bft)
20.05.2020 07:52 11,7 C 12,8 C 82 % 1023,0 hPa 0,0 l/m 1,4 km/h (1 Bft) W-NW 302 0 min 1,0 UV-I 219 W/m 8,7 C 11,7 C 3,2 km/h (1 Bft)
20.05.2020 07:54 11,8 C 12,8 C 82 % 1023,0 hPa 0,0 l/m 1,8 km/h (1 Bft) W-NW 302 0 min 1,1 UV-I 224 W/m 8,8 C 11,8 C 3,2 km/h (1 Bft)
20.05.2020 07:56 12,0 C 13,3 C 83 % 1023,0 hPa 0,0 l/m 1,8 km/h (1 Bft) W-NW 302 0 min 1,1 UV-I 229 W/m 9,2 C 12,0 C 3,2 km/h (1 Bft)
20.05.2020 07:58 12,1 C 13,3 C 82 % 1023,1 hPa 0,0 l/m 2,0 km/h (1 Bft) W-NW 302 0 min 1,1 UV-I 234 W/m 9,1 C 12,1 C 3,2 km/h (1 Bft)
20.05.2020 08:00 12,2 C 13,3 C 83 % 1023,0 hPa 0,0 l/m 1,7 km/h (1 Bft) W-NW 302 0 min 1,2 UV-I 238 W/m 9,4 C 12,2 C 3,2 km/h (1 Bft)
20.05.2020 08:02 12,6 C 13,9 C 83 % 1023,0 hPa 0,0 l/m 0,7 km/h (0 Bft) W-NW 302 0 min 1,2 UV-I 244 W/m 9,8 C 12,6 C 1,6 km/h (1 Bft)
20.05.2020 08:04 12,8 C 14,4 C 84 % 1023,1 hPa 0,0 l/m 1,2 km/h (1 Bft) W-NW 302 0 min 1,2 UV-I 249 W/m 10,2 C 12,8 C 1,6 km/h (1 Bft)
20.05.2020 08:06 13,1 C 15,0 C 83 % 1023,1 hPa 0,0 l/m 1,0 km/h (0 Bft) W-NW 302 0 min 1,3 UV-I 256 W/m 10,3 C 13,1 C 3,2 km/h (1 Bft)
20.05.2020 08:08 13,3 C 15,0 C 82 % 1023,0 hPa 0,0 l/m 1,5 km/h (1 Bft) W-NW 302 0 min 1,3 UV-I 262 W/m 10,3 C 13,3 C 3,2 km/h (1 Bft)
20.05.2020 08:10 13,3 C 15,6 C 81 % 1023,0 hPa 0,0 l/m 1,3 km/h (1 Bft) W-NW 302 0 min 1,3 UV-I 269 W/m 10,1 C 13,3 C 3,2 km/h (1 Bft)
20.05.2020 08:12 13,3 C 15,0 C 81 % 1022,9 hPa 0,0 l/m 2,8 km/h (1 Bft) NO 34 0 min 1,4 UV-I 276 W/m 10,1 C 13,3 C 4,8 km/h (1 Bft)
20.05.2020 08:14 13,3 C 15,0 C 82 % 1023,0 hPa 0,0 l/m 2,6 km/h (1 Bft) NO 34 0 min 1,4 UV-I 283 W/m 10,3 C 13,3 C 4,8 km/h (1 Bft)
20.05.2020 08:16 13,4 C 15,6 C 82 % 1022,9 hPa 0,0 l/m 3,3 km/h (1 Bft) NO 34 0 min 1,4 UV-I 287 W/m 10,4 C 13,4 C 4,8 km/h (1 Bft)
20.05.2020 08:18 13,6 C 15,6 C 82 % 1023,0 hPa 0,0 l/m 2,4 km/h (1 Bft) N-NO 33 0 min 1,5 UV-I 296 W/m 10,6 C 13,6 C 3,2 km/h (1 Bft)
20.05.2020 08:20 13,8 C 15,6 C 81 % 1023,0 hPa 0,0 l/m 1,1 km/h (1 Bft) N-NO 33 0 min 1,5 UV-I 303 W/m 10,6 C 13,8 C 3,2 km/h (1 Bft)
20.05.2020 08:22 13,9 C 15,6 C 82 % 1023,0 hPa 0,0 l/m 1,9 km/h (1 Bft) N-NO 33 0 min 1,5 UV-I 311 W/m 10,9 C 13,9 C 4,8 km/h (1 Bft)
20.05.2020 08:24 14,1 C 15,6 C 81 % 1022,9 hPa 0,0 l/m 1,5 km/h (1 Bft) NO 35 0 min 1,6 UV-I 318 W/m 10,9 C 14,1 C 4,8 km/h (1 Bft)
20.05.2020 08:26 14,3 C 16,1 C 82 % 1023,0 hPa 0,0 l/m 4,7 km/h (1 Bft) NO 35 0 min 1,6 UV-I 322 W/m 11,3 C 14,3 C 6,4 km/h (2 Bft)
20.05.2020 08:28 14,6 C 16,1 C 80 % 1023,0 hPa 0,0 l/m 4,7 km/h (1 Bft) N-NO 24 0 min 1,7 UV-I 329 W/m 11,2 C 14,6 C 6,4 km/h (2 Bft)
20.05.2020 08:30 14,6 C 16,1 C 80 % 1022,9 hPa 0,0 l/m 3,5 km/h (1 Bft) N-NO 24 0 min 1,7 UV-I 334 W/m 11,2 C 14,6 C 4,8 km/h (1 Bft)
20.05.2020 08:32 14,4 C 15,6 C 79 % 1023,0 hPa 0,0 l/m 2,8 km/h (1 Bft) N-NO 29 0 min 1,7 UV-I 339 W/m 10,8 C 14,4 C 6,4 km/h (2 Bft)
20.05.2020 08:34 14,4 C 15,6 C 79 % 1023,0 hPa 0,0 l/m 3,4 km/h (1 Bft) N-NO 31 0 min 1,8 UV-I 344 W/m 10,8 C 14,4 C 4,8 km/h (1 Bft)
20.05.2020 08:36 14,4 C 15,6 C 79 % 1023,0 hPa 0,0 l/m 2,2 km/h (1 Bft) N-NO 31 0 min 1,8 UV-I 348 W/m 10,8 C 14,4 C 3,2 km/h (1 Bft)
20.05.2020 08:38 14,4 C 15,6 C 79 % 1023,0 hPa 0,0 l/m 3,8 km/h (1 Bft) N-NO 26 0 min 1,8 UV-I 353 W/m 10,8 C 14,4 C 6,4 km/h (2 Bft)
20.05.2020 08:40 14,4 C 16,1 C 78 % 1023,0 hPa 0,0 l/m 1,3 km/h (1 Bft) N-NO 26 0 min 1,9 UV-I 359 W/m 10,6 C 14,4 C 3,2 km/h (1 Bft)
20.05.2020 08:42 14,5 C 16,1 C 80 % 1023,0 hPa 0,0 l/m 3,7 km/h (1 Bft) N-NO 26 0 min 1,9 UV-I 363 W/m 11,1 C 14,5 C 6,4 km/h (2 Bft)
20.05.2020 08:44 14,6 C 16,1 C 79 % 1023,0 hPa 0,0 l/m 3,6 km/h (1 Bft) N-NO 27 0 min 2,0 UV-I 366 W/m 11,0 C 14,6 C 6,4 km/h (2 Bft)
20.05.2020 08:46 14,9 C 16,7 C 80 % 1023,0 hPa 0,0 l/m 4,6 km/h (1 Bft) N-NO 22 0 min 2,0 UV-I 373 W/m 11,5 C 14,9 C 6,4 km/h (2 Bft)
20.05.2020 08:48 15,1 C 16,7 C 78 % 1023,0 hPa 0,0 l/m 1,6 km/h (1 Bft) N-NO 26 0 min 2,0 UV-I 379 W/m 11,3 C 15,1 C 6,4 km/h (2 Bft)
20.05.2020 08:50 15,2 C 17,2 C 77 % 1023,0 hPa 0,0 l/m 4,2 km/h (1 Bft) N-NO 32 0 min 2,1 UV-I 387 W/m 11,2 C 15,2 C 6,4 km/h (2 Bft)
20.05.2020 08:52 15,3 C 17,2 C 79 % 1023,0 hPa 0,0 l/m 3,3 km/h (1 Bft) N 5 0 min 2,1 UV-I 389 W/m 11,7 C 15,3 C 6,4 km/h (2 Bft)
20.05.2020 08:54 15,6 C 17,2 C 78 % 1023,0 hPa 0,0 l/m 2,8 km/h (1 Bft) NO 41 0 min 2,2 UV-I 395 W/m 11,8 C 15,6 C 6,4 km/h (2 Bft)
20.05.2020 08:56 15,7 C 17,2 C 76 % 1023,0 hPa 0,0 l/m 5,3 km/h (1 Bft) N-NW 338 0 min 2,2 UV-I 403 W/m 11,5 C 15,7 C 9,7 km/h (2 Bft)
20.05.2020 08:58 15,9 C 17,8 C 75 % 1023,0 hPa 0,0 l/m 9,7 km/h (2 Bft) N 355 0 min 2,2 UV-I 409 W/m 11,5 C 14,2 C 12,9 km/h (3 Bft)
20.05.2020 09:00 15,9 C 17,8 C 74 % 1023,0 hPa 0,0 l/m 8,2 km/h (2 Bft) N-NW 347 0 min 2,3 UV-I 413 W/m 11,3 C 14,9 C 14,5 km/h (3 Bft)
20.05.2020 09:02 16,1 C 18,3 C 75 % 1023,0 hPa 0,0 l/m 4,7 km/h (1 Bft) NW 309 0 min 2,3 UV-I 418 W/m 11,7 C 16,1 C 8,0 km/h (2 Bft)
20.05.2020 09:04 16,1 C 18,3 C 74 % 1023,0 hPa 0,0 l/m 7,0 km/h (2 Bft) N 5 0 min 2,4 UV-I 424 W/m 11,5 C 15,8 C 12,9 km/h (3 Bft)
20.05.2020 09:06 16,2 C 18,3 C 74 % 1023,0 hPa 0,0 l/m 6,9 km/h (2 Bft) N-NW 335 0 min 2,4 UV-I 427 W/m 11,6 C 15,9 C 14,5 km/h (3 Bft)
20.05.2020 09:08 16,3 C 18,3 C 74 % 1023,0 hPa 0,0 l/m 11,9 km/h (2 Bft) N 355 0 min 2,4 UV-I 431 W/m 11,7 C 13,8 C 14,5 km/h (3 Bft)
20.05.2020 09:10 16,3 C 18,9 C 74 % 1023,1 hPa 0,0 l/m 10,1 km/h (2 Bft) N 360 0 min 2,5 UV-I 445 W/m 11,7 C 14,5 C 14,5 km/h (3 Bft)
20.05.2020 09:12 16,2 C 18,3 C 73 % 1023,0 hPa 0,0 l/m 7,8 km/h (2 Bft) N-NO 26 0 min 2,5 UV-I 448 W/m 11,4 C 15,5 C 14,5 km/h (3 Bft)
20.05.2020 09:14 16,2 C 18,3 C 74 % 1023,0 hPa 0,0 l/m 7,4 km/h (2 Bft) N-NW 341 0 min 2,6 UV-I 446 W/m 11,6 C 15,7 C 12,9 km/h (3 Bft)
20.05.2020 09:16 16,3 C 18,3 C 73 % 1023,0 hPa 0,0 l/m 9,8 km/h (2 Bft) N-NW 337 0 min 2,6 UV-I 448 W/m 11,4 C 14,6 C 14,5 km/h (3 Bft)
20.05.2020 09:18 16,3 C 18,3 C 73 % 1023,0 hPa 0,0 l/m 6,8 km/h (2 Bft) N-NO 17 0 min 2,7 UV-I 456 W/m 11,4 C 16,1 C 12,9 km/h (3 Bft)
20.05.2020 09:20 16,4 C 18,3 C 73 % 1022,9 hPa 0,0 l/m 8,4 km/h (2 Bft) NO 35 0 min 2,7 UV-I 465 W/m 11,5 C 15,4 C 12,9 km/h (3 Bft)
20.05.2020 09:22 16,5 C 18,9 C 74 % 1022,9 hPa 0,0 l/m 7,9 km/h (2 Bft) N 355 0 min 2,8 UV-I 470 W/m 11,8 C 15,7 C 14,5 km/h (3 Bft)
20.05.2020 09:24 16,6 C 18,9 C 72 % 1022,9 hPa 0,0 l/m 8,5 km/h (2 Bft) N-NW 330 0 min 2,8 UV-I 474 W/m 11,5 C 15,5 C 17,7 km/h (3 Bft)
20.05.2020 09:26 16,8 C 18,9 C 73 % 1022,9 hPa 0,0 l/m 7,4 km/h (2 Bft) N 360 0 min 2,8 UV-I 473 W/m 11,9 C 16,3 C 14,5 km/h (3 Bft)
20.05.2020 09:28 17,0 C 19,4 C 74 % 1022,9 hPa 0,0 l/m 7,9 km/h (2 Bft) N 5 0 min 2,9 UV-I 476 W/m 12,3 C 16,2 C 12,9 km/h (3 Bft)
20.05.2020 09:30 17,0 C 19,4 C 72 % 1022,9 hPa 0,0 l/m 7,4 km/h (2 Bft) N-NW 340 0 min 2,9 UV-I 476 W/m 11,9 C 16,5 C 11,3 km/h (2 Bft)
20.05.2020 09:32 17,1 C 20,0 C 73 % 1022,9 hPa 0,0 l/m 9,6 km/h (2 Bft) N-NW 340 0 min 3,0 UV-I 475 W/m 12,2 C 15,6 C 16,1 km/h (3 Bft)
20.05.2020 09:34 16,9 C 19,4 C 70 % 1022,9 hPa 0,0 l/m 7,0 km/h (2 Bft) N-NO 19 0 min 3,0 UV-I 469 W/m 11,4 C 16,6 C 14,5 km/h (3 Bft)
20.05.2020 09:36 17,1 C 19,4 C 72 % 1022,9 hPa 0,0 l/m 6,9 km/h (2 Bft) NO 51 0 min 3,1 UV-I 473 W/m 12,0 C 16,9 C 11,3 km/h (2 Bft)
20.05.2020 09:38 17,2 C 20,0 C 72 % 1022,9 hPa 0,0 l/m 6,6 km/h (2 Bft) N-NO 17 0 min 3,1 UV-I 470 W/m 12,1 C 17,1 C 11,3 km/h (2 Bft)
20.05.2020 09:40 17,3 C 20,0 C 70 % 1022,9 hPa 0,0 l/m 8,0 km/h (2 Bft) N 350 0 min 3,2 UV-I 469 W/m 11,8 C 16,5 C 12,9 km/h (3 Bft)
20.05.2020 09:42 17,4 C 20,0 C 73 % 1023,0 hPa 0,0 l/m 6,9 km/h (2 Bft) N-NO 13 0 min 3,2 UV-I 459 W/m 12,5 C 17,2 C 12,9 km/h (3 Bft)
20.05.2020 09:44 17,3 C 20,0 C 69 % 1022,9 hPa 0,0 l/m 5,6 km/h (1 Bft) NO 34 0 min 3,2 UV-I 457 W/m 11,6 C 17,3 C 8,0 km/h (2 Bft)
20.05.2020 09:46 17,4 C 20,0 C 71 % 1022,9 hPa 0,0 l/m 5,8 km/h (2 Bft) N 350 0 min 3,3 UV-I 455 W/m 12,1 C 17,4 C 12,9 km/h (3 Bft)
20.05.2020 09:48 17,4 C 20,0 C 70 % 1022,9 hPa 0,0 l/m 8,3 km/h (2 Bft) N 355 0 min 3,4 UV-I 453 W/m 11,9 C 16,5 C 16,1 km/h (3 Bft)
20.05.2020 09:50 17,4 C 20,0 C 72 % 1022,9 hPa 0,0 l/m 7,1 km/h (2 Bft) N-NO 19 0 min 3,4 UV-I 447 W/m 12,3 C 17,1 C 12,9 km/h (3 Bft)
20.05.2020 09:52 17,3 C 20,0 C 70 % 1023,0 hPa 0,0 l/m 8,8 km/h (2 Bft) N 10 0 min 3,5 UV-I 447 W/m 11,8 C 16,2 C 12,9 km/h (3 Bft)
20.05.2020 09:54 17,4 C 20,0 C 70 % 1022,9 hPa 0,0 l/m 7,4 km/h (2 Bft) NO 35 0 min 3,5 UV-I 444 W/m 11,9 C 16,9 C 12,9 km/h (3 Bft)
20.05.2020 09:56 17,5 C 20,0 C 70 % 1023,0 hPa 0,0 l/m 9,5 km/h (2 Bft) N 350 0 min 3,5 UV-I 444 W/m 12,0 C 16,1 C 14,5 km/h (3 Bft)
20.05.2020 09:58 17,5 C 20,6 C 68 % 1022,9 hPa 0,0 l/m 5,4 km/h (1 Bft) N-NO 23 0 min 3,6 UV-I 452 W/m 11,5 C 17,5 C 9,7 km/h (2 Bft)
20.05.2020 10:00 17,5 C 20,6 C 70 % 1022,9 hPa 0,0 l/m 9,7 km/h (2 Bft) NO 38 0 min 3,6 UV-I 449 W/m 12,0 C 16,0 C 14,5 km/h (3 Bft)
20.05.2020 10:02 17,6 C 20,6 C 69 % 1022,9 hPa 0,0 l/m 6,4 km/h (2 Bft) N 355 0 min 3,7 UV-I 454 W/m 11,8 C 17,6 C 12,9 km/h (3 Bft)
20.05.2020 10:04 17,8 C 20,6 C 67 % 1023,0 hPa 0,0 l/m 8,6 km/h (2 Bft) N-NO 12 0 min 3,7 UV-I 460 W/m 11,6 C 16,8 C 12,9 km/h (3 Bft)
20.05.2020 10:06 17,8 C 20,6 C 67 % 1023,0 hPa 0,0 l/m 9,5 km/h (2 Bft) N-NW 338 0 min 3,8 UV-I 470 W/m 11,6 C 16,4 C 14,5 km/h (3 Bft)
20.05.2020 10:08 17,8 C 20,6 C 68 % 1023,0 hPa 0,0 l/m 5,3 km/h (1 Bft) N-NW 344 0 min 3,8 UV-I 480 W/m 11,8 C 17,8 C 8,0 km/h (2 Bft)
20.05.2020 10:10 17,8 C 20,6 C 65 % 1022,9 hPa 0,0 l/m 3,7 km/h (1 Bft) N-NW 333 0 min 3,9 UV-I 491 W/m 11,1 C 17,8 C 8,0 km/h (2 Bft)
20.05.2020 10:12 18,2 C 20,6 C 68 % 1023,0 hPa 0,0 l/m 7,2 km/h (2 Bft) N 360 0 min 4,0 UV-I 509 W/m 12,2 C 17,8 C 12,9 km/h (3 Bft)
20.05.2020 10:14 18,4 C 21,1 C 66 % 1023,0 hPa 0,0 l/m 11,5 km/h (2 Bft) N-NO 28 0 min 4,0 UV-I 524 W/m 11,9 C 16,4 C 19,3 km/h (3 Bft)
20.05.2020 10:16 18,3 C 21,1 C 64 % 1023,0 hPa 0,0 l/m 10,6 km/h (2 Bft) NO 43 0 min 4,1 UV-I 539 W/m 11,4 C 16,5 C 14,5 km/h (3 Bft)
20.05.2020 10:18 18,1 C 21,1 C 67 % 1022,9 hPa 0,0 l/m 7,5 km/h (2 Bft) O-NO 69 0 min 4,1 UV-I 553 W/m 11,9 C 17,6 C 14,5 km/h (3 Bft)
20.05.2020 10:20 18,1 C 21,1 C 68 % 1022,9 hPa 0,0 l/m 7,9 km/h (2 Bft) N-NW 333 0 min 4,1 UV-I 567 W/m 12,1 C 17,4 C 12,9 km/h (3 Bft)
20.05.2020 10:22 18,2 C 21,7 C 67 % 1022,9 hPa 0,0 l/m 12,0 km/h (2 Bft) N-NW 348 0 min 4,2 UV-I 579 W/m 12,0 C 16,0 C 16,1 km/h (3 Bft)
20.05.2020 10:24 18,3 C 21,7 C 68 % 1022,9 hPa 0,0 l/m 11,1 km/h (2 Bft) N-NO 21 2 min 4,2 UV-I 593 W/m 12,3 C 16,4 C 17,7 km/h (3 Bft)
20.05.2020 10:26 18,4 C 22,2 C 67 % 1022,9 hPa 0,0 l/m 9,1 km/h (2 Bft) N-NO 14 2 min 4,3 UV-I 608 W/m 12,2 C 17,2 C 14,5 km/h (3 Bft)
20.05.2020 10:28 18,5 C 22,2 C 66 % 1022,8 hPa 0,0 l/m 8,4 km/h (2 Bft) NO 38 2 min 4,3 UV-I 621 W/m 12,0 C 17,6 C 14,5 km/h (3 Bft)
20.05.2020 10:30 18,2 C 21,7 C 64 % 1022,8 hPa 0,0 l/m 4,2 km/h (1 Bft) N-NO 28 2 min 4,3 UV-I 632 W/m 11,3 C 18,2 C 6,4 km/h (2 Bft)
20.05.2020 10:32 18,1 C 22,2 C 68 % 1022,8 hPa 0,0 l/m 2,2 km/h (1 Bft) N-NO 30 2 min 4,4 UV-I 651 W/m 12,1 C 18,1 C 4,8 km/h (1 Bft)
20.05.2020 10:34 18,3 C 22,2 C 68 % 1022,9 hPa 0,0 l/m 7,1 km/h (2 Bft) NO 46 2 min 4,5 UV-I 664 W/m 12,3 C 18,0 C 17,7 km/h (3 Bft)
20.05.2020 10:36 18,4 C 22,2 C 65 % 1022,9 hPa 0,0 l/m 9,7 km/h (2 Bft) N-NO 27 2 min 4,5 UV-I 678 W/m 11,7 C 17,0 C 16,1 km/h (3 Bft)
20.05.2020 10:38 18,3 C 22,2 C 65 % 1022,8 hPa 0,0 l/m 7,4 km/h (2 Bft) NO 44 2 min 4,0 UV-I 694 W/m 11,6 C 17,8 C 12,9 km/h (3 Bft)
20.05.2020 10:40 18,2 C 21,7 C 69 % 1022,7 hPa 0,0 l/m 2,2 km/h (1 Bft) O-NO 69 0 min 3,4 UV-I 447 W/m 12,4 C 18,2 C 4,8 km/h (1 Bft)
20.05.2020 10:42 18,5 C 22,2 C 67 % 1022,8 hPa 0,0 l/m 4,2 km/h (1 Bft) N-NO 28 2 min 4,6 UV-I 670 W/m 12,3 C 18,5 C 14,5 km/h (3 Bft)
20.05.2020 10:44 18,6 C 22,8 C 66 % 1022,8 hPa 0,0 l/m 7,7 km/h (2 Bft) N-NO 26 2 min 4,6 UV-I 693 W/m 12,1 C 18,0 C 16,1 km/h (3 Bft)
20.05.2020 10:46 18,3 C 21,7 C 66 % 1022,8 hPa 0,0 l/m 3,6 km/h (1 Bft) NO 36 2 min 4,3 UV-I 600 W/m 11,8 C 18,3 C 6,4 km/h (2 Bft)
20.05.2020 10:48 18,3 C 22,8 C 67 % 1022,8 hPa 0,0 l/m 3,8 km/h (1 Bft) NW 316 2 min 4,9 UV-I 635 W/m 12,1 C 18,3 C 8,0 km/h (2 Bft)
20.05.2020 10:50 18,8 C 23,3 C 67 % 1022,7 hPa 0,0 l/m 7,3 km/h (2 Bft) N-NW 342 2 min 4,4 UV-I 786 W/m 12,5 C 18,4 C 12,9 km/h (3 Bft)
20.05.2020 10:52 18,8 C 22,8 C 66 % 1022,7 hPa 0,0 l/m 4,7 km/h (1 Bft) N 360 2 min 4,2 UV-I 786 W/m 12,3 C 18,8 C 12,9 km/h (3 Bft)
20.05.2020 10:54 18,9 C 23,3 C 67 % 1022,7 hPa 0,0 l/m 6,3 km/h (2 Bft) N 5 2 min 4,6 UV-I 765 W/m 12,6 C 18,9 C 9,7 km/h (2 Bft)
20.05.2020 10:56 18,8 C 22,8 C 64 % 1022,8 hPa 0,0 l/m 4,5 km/h (1 Bft) N-NW 335 2 min 5,0 UV-I 727 W/m 11,8 C 18,8 C 8,0 km/h (2 Bft)
20.05.2020 10:58 18,8 C 22,8 C 65 % 1022,7 hPa 0,0 l/m 7,9 km/h (2 Bft) N 11 2 min 4,5 UV-I 729 W/m 12,1 C 18,1 C 12,9 km/h (3 Bft)
20.05.2020 11:00 18,7 C 23,3 C 67 % 1022,8 hPa 0,0 l/m 5,1 km/h (1 Bft) NO 45 2 min 5,0 UV-I 738 W/m 12,4 C 18,7 C 8,0 km/h (2 Bft)
20.05.2020 11:02 18,8 C 23,9 C 66 % 1022,8 hPa 0,0 l/m 6,8 km/h (2 Bft) NO 42 2 min 5,3 UV-I 765 W/m 12,3 C 18,6 C 11,3 km/h (2 Bft)
20.05.2020 11:04 19,1 C 23,9 C 67 % 1022,8 hPa 0,0 l/m 3,8 km/h (1 Bft) N-NO 26 2 min 5,3 UV-I 797 W/m 12,8 C 19,1 C 6,4 km/h (2 Bft)
20.05.2020 11:06 19,4 C 25,6 C 64 % 1022,9 hPa 0,0 l/m 7,2 km/h (2 Bft) NO 42 2 min 5,4 UV-I 791 W/m 12,4 C 19,1 C 12,9 km/h (3 Bft)
20.05.2020 11:08 19,6 C 25,6 C 64 % 1022,7 hPa 0,0 l/m 10,6 km/h (2 Bft) N-NO 30 2 min 5,5 UV-I 806 W/m 12,6 C 18,0 C 16,1 km/h (3 Bft)
20.05.2020 11:10 19,4 C 26,1 C 63 % 1022,7 hPa 0,0 l/m 8,7 km/h (2 Bft) NO 35 2 min 5,6 UV-I 815 W/m 12,2 C 18,4 C 16,1 km/h (3 Bft)
20.05.2020 11:12 19,3 C 25,6 C 65 % 1022,8 hPa 0,0 l/m 8,0 km/h (2 Bft) NO 39 2 min 5,7 UV-I 836 W/m 12,6 C 18,6 C 14,5 km/h (3 Bft)
20.05.2020 11:14 19,1 C 25,6 C 63 % 1022,7 hPa 0,0 l/m 10,6 km/h (2 Bft) NO 55 2 min 5,7 UV-I 839 W/m 11,9 C 17,4 C 16,1 km/h (3 Bft)
20.05.2020 11:16 18,8 C 23,9 C 63 % 1022,7 hPa 0,0 l/m 9,0 km/h (2 Bft) O-NO 64 2 min 5,0 UV-I 849 W/m 11,6 C 17,7 C 16,1 km/h (3 Bft)
20.05.2020 11:18 18,6 C 21,7 C 65 % 1022,7 hPa 0,0 l/m 8,3 km/h (2 Bft) O-NO 62 0 min 3,1 UV-I 512 W/m 11,9 C 17,8 C 14,5 km/h (3 Bft)
20.05.2020 11:20 18,4 C 23,3 C 65 % 1022,7 hPa 0,0 l/m 9,5 km/h (2 Bft) NO 42 0 min 5,4 UV-I 253 W/m 11,7 C 17,1 C 16,1 km/h (3 Bft)
20.05.2020 11:22 18,7 C 23,9 C 66 % 1022,7 hPa 0,0 l/m 7,5 km/h (2 Bft) O-NO 60 2 min 5,2 UV-I 713 W/m 12,2 C 18,2 C 16,1 km/h (3 Bft)
20.05.2020 11:24 18,8 C 25,0 C 67 % 1022,7 hPa 0,0 l/m 3,7 km/h (1 Bft) N-NO 13 2 min 4,8 UV-I 805 W/m 12,5 C 18,8 C 6,4 km/h (2 Bft)
20.05.2020 11:26 19,1 C 24,4 C 64 % 1022,7 hPa 0,0 l/m 9,9 km/h (2 Bft) N 355 2 min 4,8 UV-I 801 W/m 12,1 C 17,7 C 20,9 km/h (4 Bft)
20.05.2020 11:28 19,4 C 26,1 C 64 % 1022,7 hPa 0,0 l/m 11,6 km/h (2 Bft) W-NW 301 2 min 5,9 UV-I 834 W/m 12,4 C 17,5 C 16,1 km/h (3 Bft)
20.05.2020 11:30 19,4 C 27,2 C 63 % 1022,7 hPa 0,0 l/m 6,9 km/h (2 Bft) N-NO 30 2 min 5,9 UV-I 815 W/m 12,2 C 19,2 C 9,7 km/h (2 Bft)
20.05.2020 11:32 19,4 C 26,7 C 63 % 1022,7 hPa 0,0 l/m 8,6 km/h (2 Bft) N-NO 19 2 min 5,3 UV-I 842 W/m 12,2 C 18,5 C 12,9 km/h (3 Bft)
20.05.2020 11:34 19,5 C 27,2 C 68 % 1022,7 hPa 0,0 l/m 1,8 km/h (1 Bft) NW 324 2 min 5,8 UV-I 811 W/m 13,4 C 19,5 C 4,8 km/h (1 Bft)
20.05.2020 11:36 19,6 C 27,2 C 64 % 1022,7 hPa 0,0 l/m 9,9 km/h (2 Bft) N-NW 341 2 min 6,0 UV-I 815 W/m 12,6 C 18,2 C 19,3 km/h (3 Bft)
20.05.2020 11:38 19,7 C 27,2 C 63 % 1022,8 hPa 0,0 l/m 10,0 km/h (2 Bft) NO 51 2 min 6,0 UV-I 816 W/m 12,5 C 18,3 C 20,9 km/h (4 Bft)
20.05.2020 11:40 19,9 C 28,3 C 64 % 1022,7 hPa 0,0 l/m 11,5 km/h (2 Bft) N 5 2 min 6,1 UV-I 833 W/m 12,9 C 18,1 C 16,1 km/h (3 Bft)
20.05.2020 11:42 19,8 C 27,8 C 61 % 1022,7 hPa 0,0 l/m 6,6 km/h (2 Bft) O-NO 64 2 min 6,2 UV-I 861 W/m 12,1 C 19,7 C 12,9 km/h (3 Bft)
20.05.2020 11:44 19,8 C 27,8 C 61 % 1022,7 hPa 0,0 l/m 11,3 km/h (2 Bft) N-NO 13 2 min 6,4 UV-I 899 W/m 12,1 C 18,0 C 20,9 km/h (4 Bft)
20.05.2020 11:46 19,8 C 26,7 C 64 % 1022,6 hPa 0,0 l/m 8,2 km/h (2 Bft) N 349 2 min 6,3 UV-I 880 W/m 12,8 C 19,1 C 14,5 km/h (3 Bft)
20.05.2020 11:48 20,2 C 27,2 C 62 % 1022,6 hPa 0,0 l/m 12,2 km/h (2 Bft) W-NW 303 2 min 6,3 UV-I 858 W/m 12,7 C 18,2 C 22,5 km/h (4 Bft)
20.05.2020 11:50 20,2 C 27,2 C 61 % 1022,7 hPa 0,0 l/m 9,3 km/h (2 Bft) W-NW 300 2 min 6,4 UV-I 878 W/m 12,4 C 19,1 C 16,1 km/h (3 Bft)
20.05.2020 11:52 20,0 C 26,7 C 62 % 1022,7 hPa 0,0 l/m 6,5 km/h (2 Bft) N 355 2 min 6,3 UV-I 872 W/m 12,5 C 20,0 C 12,9 km/h (3 Bft)
20.05.2020 11:54 19,8 C 25,6 C 62 % 1022,6 hPa 0,0 l/m 12,8 km/h (3 Bft) N-NO 22 2 min 4,9 UV-I 872 W/m 12,3 C 17,6 C 19,3 km/h (3 Bft)
20.05.2020 11:56 19,7 C 27,2 C 65 % 1022,6 hPa 0,0 l/m 8,4 km/h (2 Bft) N-NO 24 2 min 6,2 UV-I 864 W/m 12,9 C 18,9 C 14,5 km/h (3 Bft)
20.05.2020 11:58 19,9 C 27,2 C 61 % 1022,6 hPa 0,0 l/m 9,7 km/h (2 Bft) N-NO 31 2 min 6,3 UV-I 838 W/m 12,2 C 18,6 C 16,1 km/h (3 Bft)
20.05.2020 12:00 19,9 C 27,2 C 64 % 1022,6 hPa 0,0 l/m 9,8 km/h (2 Bft) N 360 2 min 6,4 UV-I 836 W/m 12,9 C 18,6 C 14,5 km/h (3 Bft)
20.05.2020 12:02 20,0 C 27,2 C 65 % 1022,6 hPa 0,0 l/m 7,9 km/h (2 Bft) N-NO 29 2 min 6,4 UV-I 830 W/m 13,2 C 19,4 C 11,3 km/h (2 Bft)
20.05.2020 12:04 20,2 C 27,2 C 62 % 1022,6 hPa 0,0 l/m 11,4 km/h (2 Bft) N-NO 32 2 min 6,4 UV-I 831 W/m 12,7 C 18,4 C 17,7 km/h (3 Bft)
20.05.2020 12:06 20,2 C 27,8 C 61 % 1022,5 hPa 0,0 l/m 7,9 km/h (2 Bft) O-NO 73 2 min 6,4 UV-I 828 W/m 12,4 C 19,6 C 14,5 km/h (3 Bft)
20.05.2020 12:08 20,3 C 28,3 C 60 % 1022,5 hPa 0,0 l/m 9,9 km/h (2 Bft) NO 54 2 min 6,5 UV-I 839 W/m 12,3 C 19,0 C 16,1 km/h (3 Bft)
20.05.2020 12:10 20,5 C 28,3 C 60 % 1022,5 hPa 0,0 l/m 10,0 km/h (2 Bft) NO 49 2 min 6,6 UV-I 854 W/m 12,5 C 19,2 C 14,5 km/h (3 Bft)
20.05.2020 12:12 20,6 C 28,3 C 61 % 1022,6 hPa 0,0 l/m 10,8 km/h (2 Bft) NW 311 2 min 6,6 UV-I 857 W/m 12,8 C 19,1 C 19,3 km/h (3 Bft)
20.05.2020 12:14 20,4 C 28,3 C 61 % 1022,6 hPa 0,0 l/m 4,4 km/h (1 Bft) NW 320 2 min 6,6 UV-I 854 W/m 12,6 C 20,4 C 11,3 km/h (2 Bft)
20.05.2020 12:16 20,5 C 27,8 C 61 % 1022,6 hPa 0,0 l/m 9,1 km/h (2 Bft) N 5 2 min 6,7 UV-I 867 W/m 12,7 C 19,5 C 17,7 km/h (3 Bft)
20.05.2020 12:18 20,4 C 27,2 C 61 % 1022,5 hPa 0,0 l/m 11,5 km/h (2 Bft) N 360 2 min 6,7 UV-I 878 W/m 12,6 C 18,6 C 16,1 km/h (3 Bft)
20.05.2020 12:20 20,3 C 27,2 C 63 % 1022,7 hPa 0,0 l/m 6,9 km/h (2 Bft) NO 44 2 min 6,7 UV-I 868 W/m 13,0 C 20,1 C 16,1 km/h (3 Bft)
20.05.2020 12:22 20,3 C 27,8 C 61 % 1022,5 hPa 0,0 l/m 11,5 km/h (2 Bft) N-NO 32 2 min 6,7 UV-I 843 W/m 12,5 C 18,5 C 17,7 km/h (3 Bft)
20.05.2020 12:24 20,2 C 27,2 C 62 % 1022,5 hPa 0,0 l/m 8,4 km/h (2 Bft) NO 51 2 min 6,7 UV-I 851 W/m 12,7 C 19,4 C 17,7 km/h (3 Bft)
20.05.2020 12:26 20,4 C 27,2 C 64 % 1022,6 hPa 0,0 l/m 10,6 km/h (2 Bft) N-NO 26 2 min 6,7 UV-I 858 W/m 13,4 C 18,9 C 16,1 km/h (3 Bft)
20.05.2020 12:28 20,4 C 28,3 C 63 % 1022,6 hPa 0,0 l/m 9,6 km/h (2 Bft) NO 35 2 min 6,8 UV-I 867 W/m 13,1 C 19,2 C 16,1 km/h (3 Bft)
20.05.2020 12:30 20,4 C 28,3 C 60 % 1022,6 hPa 0,0 l/m 10,6 km/h (2 Bft) N 355 2 min 6,8 UV-I 866 W/m 12,4 C 18,9 C 16,1 km/h (3 Bft)
20.05.2020 12:32 20,3 C 28,9 C 62 % 1022,5 hPa 0,0 l/m 8,7 km/h (2 Bft) NO 36 2 min 6,9 UV-I 871 W/m 12,8 C 19,4 C 14,5 km/h (3 Bft)
20.05.2020 12:34 20,3 C 28,9 C 62 % 1022,5 hPa 0,0 l/m 6,2 km/h (2 Bft) N 355 2 min 6,9 UV-I 871 W/m 12,8 C 20,3 C 11,3 km/h (2 Bft)
20.05.2020 12:36 20,3 C 28,3 C 59 % 1022,5 hPa 0,0 l/m 5,3 km/h (1 Bft) N-NO 15 2 min 6,9 UV-I 865 W/m 12,0 C 20,3 C 12,9 km/h (3 Bft)
20.05.2020 12:38 20,4 C 27,8 C 62 % 1022,6 hPa 0,0 l/m 9,7 km/h (2 Bft) N-NO 30 2 min 6,9 UV-I 857 W/m 12,9 C 19,2 C 19,3 km/h (3 Bft)
20.05.2020 12:40 20,4 C 28,9 C 61 % 1022,6 hPa 0,0 l/m 9,7 km/h (2 Bft) N-NO 18 2 min 6,9 UV-I 864 W/m 12,6 C 19,2 C 16,1 km/h (3 Bft)
20.05.2020 12:42 20,2 C 28,3 C 59 % 1022,6 hPa 0,0 l/m 7,0 km/h (2 Bft) O-NO 70 2 min 6,9 UV-I 863 W/m 11,9 C 20,0 C 14,5 km/h (3 Bft)
20.05.2020 12:44 20,1 C 28,9 C 59 % 1022,5 hPa 0,0 l/m 3,9 km/h (1 Bft) O-NO 63 2 min 6,9 UV-I 867 W/m 11,8 C 20,1 C 8,0 km/h (2 Bft)
20.05.2020 12:46 20,6 C 29,4 C 64 % 1022,6 hPa 0,0 l/m 5,5 km/h (1 Bft) N 355 2 min 7,0 UV-I 868 W/m 13,5 C 20,6 C 9,7 km/h (2 Bft)
20.05.2020 12:48 21,1 C 30,0 C 59 % 1022,5 hPa 0,0 l/m 11,9 km/h (2 Bft) N-NW 340 2 min 7,1 UV-I 872 W/m 12,8 C 19,3 C 19,3 km/h (3 Bft)
20.05.2020 12:50 20,9 C 29,4 C 59 % 1022,6 hPa 0,0 l/m 9,4 km/h (2 Bft) N-NW 345 2 min 7,1 UV-I 874 W/m 12,6 C 19,8 C 14,5 km/h (3 Bft)
20.05.2020 12:52 21,1 C 29,4 C 60 % 1022,6 hPa 0,0 l/m 12,5 km/h (3 Bft) N 351 2 min 7,1 UV-I 879 W/m 13,0 C 19,2 C 17,7 km/h (3 Bft)
20.05.2020 12:54 20,9 C 29,4 C 57 % 1022,6 hPa 0,0 l/m 7,5 km/h (2 Bft) N 5 2 min 7,1 UV-I 880 W/m 12,1 C 20,5 C 16,1 km/h (3 Bft)
20.05.2020 12:56 20,8 C 28,9 C 62 % 1022,5 hPa 0,0 l/m 6,1 km/h (2 Bft) N 351 2 min 7,2 UV-I 881 W/m 13,2 C 20,8 C 12,9 km/h (3 Bft)
20.05.2020 12:58 20,7 C 29,4 C 59 % 1022,6 hPa 0,0 l/m 7,6 km/h (2 Bft) N-NW 329 2 min 7,2 UV-I 881 W/m 12,4 C 20,2 C 20,9 km/h (4 Bft)
20.05.2020 13:00 20,7 C 28,9 C 60 % 1022,5 hPa 0,0 l/m 4,1 km/h (1 Bft) W 277 2 min 7,2 UV-I 881 W/m 12,7 C 20,7 C 9,7 km/h (2 Bft)
20.05.2020 13:02 20,9 C 29,4 C 62 % 1022,6 hPa 0,0 l/m 8,3 km/h (2 Bft) N 349 2 min 7,1 UV-I 878 W/m 13,3 C 20,2 C 16,1 km/h (3 Bft)
20.05.2020 13:04 21,1 C 29,4 C 61 % 1022,6 hPa 0,0 l/m 7,6 km/h (2 Bft) N 355 2 min 7,1 UV-I 877 W/m 13,3 C 20,7 C 14,5 km/h (3 Bft)
20.05.2020 13:06 21,2 C 29,4 C 58 % 1022,6 hPa 0,0 l/m 8,9 km/h (2 Bft) N-NO 20 2 min 7,1 UV-I 868 W/m 12,6 C 20,3 C 16,1 km/h (3 Bft)
20.05.2020 13:08 20,9 C 28,9 C 61 % 1022,5 hPa 0,0 l/m 10,1 km/h (2 Bft) N-NW 336 2 min 7,2 UV-I 885 W/m 13,1 C 19,6 C 20,9 km/h (4 Bft)
20.05.2020 13:10 21,0 C 28,9 C 61 % 1022,6 hPa 0,0 l/m 15,6 km/h (3 Bft) N 355 2 min 7,2 UV-I 904 W/m 13,2 C 18,3 C 24,1 km/h (4 Bft)
20.05.2020 13:12 21,1 C 30,0 C 59 % 1022,6 hPa 0,0 l/m 12,7 km/h (3 Bft) N-NW 341 2 min 7,3 UV-I 916 W/m 12,8 C 19,1 C 17,7 km/h (3 Bft)
20.05.2020 13:14 20,8 C 29,4 C 62 % 1022,6 hPa 0,0 l/m 14,2 km/h (3 Bft) N 360 2 min 7,3 UV-I 902 W/m 13,2 C 18,4 C 20,9 km/h (4 Bft)
20.05.2020 13:16 20,9 C 29,4 C 60 % 1022,5 hPa 0,0 l/m 12,1 km/h (2 Bft) N-NW 336 2 min 7,3 UV-I 894 W/m 12,8 C 19,0 C 22,5 km/h (4 Bft)
20.05.2020 13:18 21,2 C 29,4 C 58 % 1022,6 hPa 0,0 l/m 12,4 km/h (3 Bft) N-NW 342 2 min 7,2 UV-I 867 W/m 12,6 C 19,3 C 19,3 km/h (3 Bft)
20.05.2020 13:20 21,1 C 30,0 C 62 % 1022,5 hPa 0,0 l/m 10,7 km/h (2 Bft) N-NW 338 2 min 7,2 UV-I 878 W/m 13,5 C 19,7 C 16,1 km/h (3 Bft)
20.05.2020 13:22 21,1 C 30,0 C 61 % 1022,5 hPa 0,0 l/m 9,4 km/h (2 Bft) N-NW 342 2 min 7,2 UV-I 884 W/m 13,3 C 20,0 C 17,7 km/h (3 Bft)
20.05.2020 13:24 21,0 C 30,0 C 62 % 1022,5 hPa 0,0 l/m 9,0 km/h (2 Bft) N-NO 21 2 min 7,2 UV-I 882 W/m 13,4 C 20,1 C 14,5 km/h (3 Bft)
20.05.2020 13:26 21,3 C 30,0 C 59 % 1022,5 hPa 0,0 l/m 12,9 km/h (3 Bft) N-NW 342 2 min 7,2 UV-I 876 W/m 13,0 C 19,3 C 19,3 km/h (3 Bft)
20.05.2020 13:28 21,3 C 30,0 C 60 % 1022,5 hPa 0,0 l/m 11,9 km/h (2 Bft) N-NW 331 2 min 7,2 UV-I 880 W/m 13,2 C 19,6 C 19,3 km/h (3 Bft)
20.05.2020 13:30 21,2 C 30,6 C 57 % 1022,6 hPa 0,0 l/m 10,8 km/h (2 Bft) N-NW 331 2 min 7,1 UV-I 869 W/m 12,3 C 19,7 C 17,7 km/h (3 Bft)
20.05.2020 13:32 20,8 C 30,0 C 57 % 1022,5 hPa 0,0 l/m 8,0 km/h (2 Bft) NW 305 2 min 7,1 UV-I 868 W/m 12,0 C 20,2 C 12,9 km/h (3 Bft)
20.05.2020 13:34 20,7 C 29,4 C 61 % 1022,5 hPa 0,0 l/m 3,8 km/h (1 Bft) N 5 2 min 7,2 UV-I 879 W/m 12,9 C 20,7 C 8,0 km/h (2 Bft)
20.05.2020 13:36 20,7 C 28,3 C 61 % 1022,5 hPa 0,0 l/m 7,5 km/h (2 Bft) N 11 2 min 7,3 UV-I 879 W/m 12,9 C 20,3 C 16,1 km/h (3 Bft)
20.05.2020 13:38 20,8 C 29,4 C 62 % 1022,5 hPa 0,0 l/m 12,1 km/h (2 Bft) N 355 2 min 7,2 UV-I 875 W/m 13,2 C 18,9 C 19,3 km/h (3 Bft)
20.05.2020 13:40 20,8 C 29,4 C 59 % 1022,6 hPa 0,0 l/m 10,9 km/h (2 Bft) N-NW 339 2 min 7,2 UV-I 877 W/m 12,5 C 19,3 C 16,1 km/h (3 Bft)
20.05.2020 13:42 20,8 C 29,4 C 59 % 1022,6 hPa 0,0 l/m 9,3 km/h (2 Bft) N 360 2 min 7,2 UV-I 876 W/m 12,5 C 19,7 C 16,1 km/h (3 Bft)
20.05.2020 13:44 20,6 C 28,3 C 62 % 1022,6 hPa 0,0 l/m 7,6 km/h (2 Bft) NO 46 2 min 7,2 UV-I 877 W/m 13,1 C 20,1 C 16,1 km/h (3 Bft)
20.05.2020 13:46 20,7 C 29,4 C 65 % 1022,5 hPa 0,0 l/m 12,0 km/h (2 Bft) O-NO 67 2 min 7,1 UV-I 872 W/m 13,9 C 18,8 C 17,7 km/h (3 Bft)
20.05.2020 13:48 21,0 C 30,0 C 63 % 1022,5 hPa 0,0 l/m 8,2 km/h (2 Bft) N 355 2 min 7,1 UV-I 869 W/m 13,7 C 20,3 C 16,1 km/h (3 Bft)
20.05.2020 13:50 20,9 C 30,0 C 58 % 1022,4 hPa 0,0 l/m 12,2 km/h (2 Bft) N 11 2 min 7,2 UV-I 871 W/m 12,3 C 19,0 C 20,9 km/h (4 Bft)
20.05.2020 13:52 20,9 C 30,0 C 62 % 1022,5 hPa 0,0 l/m 10,5 km/h (2 Bft) N 5 2 min 7,2 UV-I 871 W/m 13,3 C 19,5 C 17,7 km/h (3 Bft)
20.05.2020 13:54 20,7 C 29,4 C 62 % 1022,5 hPa 0,0 l/m 8,1 km/h (2 Bft) N 5 2 min 7,2 UV-I 872 W/m 13,2 C 20,0 C 14,5 km/h (3 Bft)
20.05.2020 13:56 20,7 C 30,0 C 61 % 1022,5 hPa 0,0 l/m 14,4 km/h (3 Bft) N-NO 26 2 min 7,1 UV-I 872 W/m 12,9 C 18,2 C 19,3 km/h (3 Bft)
20.05.2020 13:58 20,7 C 29,4 C 61 % 1022,5 hPa 0,0 l/m 11,7 km/h (2 Bft) O-NO 61 2 min 7,1 UV-I 871 W/m 12,9 C 18,9 C 22,5 km/h (4 Bft)
20.05.2020 14:00 20,7 C 29,4 C 61 % 1022,5 hPa 0,0 l/m 13,3 km/h (3 Bft) N 355 2 min 7,1 UV-I 868 W/m 12,9 C 18,5 C 20,9 km/h (4 Bft)
20.05.2020 14:02 20,7 C 28,9 C 62 % 1022,5 hPa 0,0 l/m 15,7 km/h (3 Bft) N-NO 29 2 min 7,1 UV-I 873 W/m 13,2 C 17,9 C 22,5 km/h (4 Bft)
20.05.2020 14:04 20,7 C 28,9 C 61 % 1022,5 hPa 0,0 l/m 12,6 km/h (3 Bft) N-NO 17 2 min 7,1 UV-I 868 W/m 12,9 C 18,7 C 17,7 km/h (3 Bft)
20.05.2020 14:06 20,9 C 30,0 C 63 % 1022,5 hPa 0,0 l/m 11,9 km/h (2 Bft) N-NO 19 2 min 6,9 UV-I 853 W/m 13,6 C 19,1 C 20,9 km/h (4 Bft)
20.05.2020 14:08 21,2 C 30,0 C 61 % 1022,6 hPa 0,0 l/m 13,5 km/h (3 Bft) N-NO 19 2 min 6,8 UV-I 833 W/m 13,4 C 19,0 C 20,9 km/h (4 Bft)
20.05.2020 14:10 21,3 C 30,6 C 62 % 1022,6 hPa 0,0 l/m 11,5 km/h (2 Bft) N-NW 347 2 min 6,9 UV-I 843 W/m 13,7 C 19,7 C 16,1 km/h (3 Bft)
20.05.2020 14:12 21,3 C 30,6 C 61 % 1022,5 hPa 0,0 l/m 11,4 km/h (2 Bft) N-NO 26 2 min 7,0 UV-I 850 W/m 13,5 C 19,7 C 20,9 km/h (4 Bft)
20.05.2020 14:14 21,3 C 30,6 C 61 % 1022,6 hPa 0,0 l/m 15,6 km/h (3 Bft) N 355 2 min 7,0 UV-I 865 W/m 13,5 C 18,7 C 22,5 km/h (4 Bft)
20.05.2020 14:16 21,2 C 30,6 C 61 % 1022,5 hPa 0,0 l/m 14,2 km/h (3 Bft) N 355 2 min 7,0 UV-I 864 W/m 13,4 C 18,9 C 22,5 km/h (4 Bft)
20.05.2020 14:18 21,0 C 30,6 C 60 % 1022,5 hPa 0,0 l/m 12,2 km/h (2 Bft) N 355 2 min 6,9 UV-I 858 W/m 12,9 C 19,1 C 19,3 km/h (3 Bft)
20.05.2020 14:20 20,9 C 30,0 C 60 % 1022,4 hPa 0,0 l/m 11,0 km/h (2 Bft) N-NO 28 2 min 6,9 UV-I 860 W/m 12,8 C 19,3 C 17,7 km/h (3 Bft)
20.05.2020 14:22 20,9 C 30,0 C 62 % 1022,6 hPa 0,0 l/m 16,1 km/h (3 Bft) N 5 2 min 7,0 UV-I 863 W/m 13,3 C 18,1 C 20,9 km/h (4 Bft)
20.05.2020 14:24 20,9 C 30,0 C 63 % 1022,6 hPa 0,0 l/m 10,9 km/h (2 Bft) N-NO 22 2 min 6,8 UV-I 858 W/m 13,6 C 19,4 C 16,1 km/h (3 Bft)
20.05.2020 14:26 20,9 C 30,0 C 62 % 1022,7 hPa 0,0 l/m 16,0 km/h (3 Bft) N-NO 28 2 min 6,9 UV-I 862 W/m 13,3 C 18,1 C 29,0 km/h (5 Bft)
20.05.2020 14:28 20,9 C 29,4 C 62 % 1022,5 hPa 0,0 l/m 14,1 km/h (3 Bft) NO 34 2 min 6,9 UV-I 853 W/m 13,3 C 18,5 C 20,9 km/h (4 Bft)
20.05.2020 14:30 20,7 C 28,9 C 62 % 1022,5 hPa 0,0 l/m 13,9 km/h (3 Bft) N-NO 26 2 min 6,9 UV-I 859 W/m 13,2 C 18,4 C 22,5 km/h (4 Bft)
20.05.2020 14:32 20,7 C 28,9 C 61 % 1022,4 hPa 0,0 l/m 16,1 km/h (3 Bft) N-NO 28 2 min 6,7 UV-I 844 W/m 12,9 C 17,9 C 20,9 km/h (4 Bft)
20.05.2020 14:34 20,8 C 28,9 C 63 % 1022,5 hPa 0,0 l/m 13,2 km/h (3 Bft) N 360 2 min 6,7 UV-I 838 W/m 13,5 C 18,6 C 24,1 km/h (4 Bft)
20.05.2020 14:36 20,8 C 29,4 C 60 % 1022,5 hPa 0,0 l/m 15,3 km/h (3 Bft) N-NW 335 2 min 6,2 UV-I 822 W/m 12,7 C 18,2 C 22,5 km/h (4 Bft)
20.05.2020 14:38 20,6 C 29,4 C 62 % 1022,5 hPa 0,0 l/m 13,8 km/h (3 Bft) N-NO 28 2 min 6,6 UV-I 839 W/m 13,1 C 18,3 C 17,7 km/h (3 Bft)
20.05.2020 14:40 20,8 C 28,9 C 61 % 1022,4 hPa 0,0 l/m 13,4 km/h (3 Bft) N-NO 26 2 min 6,6 UV-I 841 W/m 13,0 C 18,6 C 17,7 km/h (3 Bft)
20.05.2020 14:42 20,9 C 29,4 C 63 % 1022,4 hPa 0,0 l/m 16,4 km/h (3 Bft) N-NW 346 2 min 6,5 UV-I 831 W/m 13,6 C 18,0 C 20,9 km/h (4 Bft)
20.05.2020 14:44 21,1 C 30,0 C 63 % 1022,5 hPa 0,0 l/m 16,3 km/h (3 Bft) NO 37 2 min 6,6 UV-I 829 W/m 13,8 C 18,3 C 24,1 km/h (4 Bft)
20.05.2020 14:46 20,7 C 30,6 C 62 % 1022,4 hPa 0,0 l/m 20,0 km/h (4 Bft) N-NO 29 2 min 6,6 UV-I 839 W/m 13,2 C 17,1 C 25,7 km/h (4 Bft)
20.05.2020 14:48 20,4 C 29,4 C 64 % 1022,5 hPa 0,0 l/m 17,7 km/h (3 Bft) N-NO 22 2 min 6,5 UV-I 837 W/m 13,4 C 17,2 C 24,1 km/h (4 Bft)
20.05.2020 14:50 20,3 C 29,4 C 62 % 1022,4 hPa 0,0 l/m 16,5 km/h (3 Bft) N 355 2 min 6,4 UV-I 812 W/m 12,8 C 17,3 C 22,5 km/h (4 Bft)
20.05.2020 14:52 20,3 C 29,4 C 67 % 1022,5 hPa 0,0 l/m 12,5 km/h (3 Bft) N-NO 32 2 min 6,4 UV-I 834 W/m 14,0 C 18,2 C 19,3 km/h (3 Bft)
20.05.2020 14:54 20,4 C 28,9 C 65 % 1022,5 hPa 0,0 l/m 13,5 km/h (3 Bft) N-NO 30 2 min 6,4 UV-I 829 W/m 13,6 C 18,1 C 19,3 km/h (3 Bft)
20.05.2020 14:56 20,5 C 29,4 C 66 % 1022,5 hPa 0,0 l/m 18,0 km/h (3 Bft) N 5 2 min 6,3 UV-I 814 W/m 13,9 C 17,2 C 22,5 km/h (4 Bft)
20.05.2020 14:58 20,4 C 30,0 C 65 % 1022,5 hPa 0,0 l/m 12,2 km/h (2 Bft) N-NW 333 2 min 6,4 UV-I 830 W/m 13,6 C 18,4 C 16,1 km/h (3 Bft)
20.05.2020 15:00 20,4 C 30,0 C 63 % 1022,5 hPa 0,0 l/m 13,2 km/h (3 Bft) N 11 2 min 6,4 UV-I 828 W/m 13,1 C 18,2 C 22,5 km/h (4 Bft)
20.05.2020 15:02 20,5 C 30,0 C 63 % 1022,5 hPa 0,0 l/m 17,6 km/h (3 Bft) N-NO 15 2 min 6,3 UV-I 820 W/m 13,2 C 17,3 C 22,5 km/h (4 Bft)
20.05.2020 15:04 20,4 C 29,4 C 64 % 1022,4 hPa 0,0 l/m 15,7 km/h (3 Bft) N 360 2 min 6,2 UV-I 817 W/m 13,4 C 17,6 C 20,9 km/h (4 Bft)
20.05.2020 15:06 20,4 C 30,6 C 64 % 1022,5 hPa 0,0 l/m 16,7 km/h (3 Bft) N 5 2 min 6,3 UV-I 831 W/m 13,4 C 17,4 C 24,1 km/h (4 Bft)
20.05.2020 15:08 20,3 C 30,0 C 63 % 1022,5 hPa 0,0 l/m 16,6 km/h (3 Bft) N 360 2 min 6,2 UV-I 822 W/m 13,0 C 17,3 C 24,1 km/h (4 Bft)
20.05.2020 15:10 20,2 C 30,0 C 63 % 1022,4 hPa 0,0 l/m 14,1 km/h (3 Bft) N-NO 31 2 min 6,1 UV-I 808 W/m 12,9 C 17,7 C 20,9 km/h (4 Bft)
20.05.2020 15:12 20,4 C 29,4 C 63 % 1022,5 hPa 0,0 l/m 14,5 km/h (3 Bft) N-NO 17 2 min 6,1 UV-I 799 W/m 13,1 C 17,9 C 20,9 km/h (4 Bft)
20.05.2020 15:14 20,4 C 28,9 C 63 % 1022,4 hPa 0,0 l/m 15,4 km/h (3 Bft) N-NO 26 2 min 6,0 UV-I 797 W/m 13,1 C 17,6 C 25,7 km/h (4 Bft)
20.05.2020 15:16 20,4 C 29,4 C 64 % 1022,5 hPa 0,0 l/m 15,5 km/h (3 Bft) N 9 2 min 6,1 UV-I 812 W/m 13,4 C 17,6 C 24,1 km/h (4 Bft)
20.05.2020 15:18 20,3 C 29,4 C 63 % 1022,4 hPa 0,0 l/m 13,4 km/h (3 Bft) N 355 2 min 6,1 UV-I 816 W/m 13,0 C 18,0 C 19,3 km/h (3 Bft)
20.05.2020 15:20 20,4 C 30,0 C 64 % 1022,4 hPa 0,0 l/m 10,5 km/h (2 Bft) N-NW 348 2 min 6,0 UV-I 796 W/m 13,4 C 18,9 C 14,5 km/h (3 Bft)
20.05.2020 15:22 20,4 C 30,0 C 60 % 1022,4 hPa 0,0 l/m 14,7 km/h (3 Bft) N 355 2 min 6,0 UV-I 793 W/m 12,4 C 17,8 C 20,9 km/h (4 Bft)
20.05.2020 15:24 20,1 C 29,4 C 62 % 1022,4 hPa 0,0 l/m 15,0 km/h (3 Bft) N-NW 348 2 min 6,0 UV-I 796 W/m 12,6 C 17,4 C 20,9 km/h (4 Bft)
20.05.2020 15:26 19,9 C 30,0 C 62 % 1022,3 hPa 0,0 l/m 13,3 km/h (3 Bft) N 360 2 min 6,0 UV-I 798 W/m 12,4 C 17,6 C 17,7 km/h (3 Bft)
20.05.2020 15:28 19,9 C 30,0 C 61 % 1022,2 hPa 0,0 l/m 14,5 km/h (3 Bft) N-NO 16 2 min 5,9 UV-I 785 W/m 12,2 C 17,3 C 22,5 km/h (4 Bft)
20.05.2020 15:30 20,0 C 29,4 C 62 % 1022,3 hPa 0,0 l/m 14,0 km/h (3 Bft) N-NW 346 2 min 5,9 UV-I 795 W/m 12,5 C 17,5 C 17,7 km/h (3 Bft)
20.05.2020 15:32 20,2 C 29,4 C 62 % 1022,4 hPa 0,0 l/m 13,8 km/h (3 Bft) N 9 2 min 5,8 UV-I 791 W/m 12,7 C 17,8 C 20,9 km/h (4 Bft)
20.05.2020 15:34 20,4 C 30,0 C 61 % 1022,3 hPa 0,0 l/m 11,3 km/h (2 Bft) NO 34 2 min 5,8 UV-I 786 W/m 12,6 C 18,7 C 17,7 km/h (3 Bft)
20.05.2020 15:36 20,4 C 30,0 C 63 % 1022,4 hPa 0,0 l/m 16,4 km/h (3 Bft) N-NO 27 2 min 5,8 UV-I 780 W/m 13,1 C 17,4 C 22,5 km/h (4 Bft)
20.05.2020 15:38 20,4 C 30,6 C 65 % 1022,3 hPa 0,0 l/m 12,9 km/h (3 Bft) N-NO 31 2 min 5,7 UV-I 776 W/m 13,6 C 18,2 C 17,7 km/h (3 Bft)
20.05.2020 15:40 20,4 C 30,0 C 64 % 1022,3 hPa 0,0 l/m 13,0 km/h (3 Bft) N-NW 344 2 min 5,7 UV-I 779 W/m 13,4 C 18,2 C 17,7 km/h (3 Bft)
20.05.2020 15:42 20,4 C 30,0 C 61 % 1022,3 hPa 0,0 l/m 14,0 km/h (3 Bft) N 5 2 min 5,7 UV-I 780 W/m 12,6 C 18,0 C 17,7 km/h (3 Bft)
20.05.2020 15:44 20,2 C 28,9 C 62 % 1022,2 hPa 0,0 l/m 10,2 km/h (2 Bft) NO 42 2 min 5,6 UV-I 767 W/m 12,7 C 18,8 C 17,7 km/h (3 Bft)
20.05.2020 15:46 20,3 C 28,9 C 62 % 1022,3 hPa 0,0 l/m 13,3 km/h (3 Bft) N-NW 345 2 min 5,5 UV-I 765 W/m 12,8 C 18,0 C 24,1 km/h (4 Bft)
20.05.2020 15:48 20,2 C 29,4 C 63 % 1022,3 hPa 0,0 l/m 13,7 km/h (3 Bft) NW 320 2 min 5,3 UV-I 746 W/m 12,9 C 17,8 C 19,3 km/h (3 Bft)
20.05.2020 15:50 20,1 C 30,0 C 61 % 1022,3 hPa 0,0 l/m 8,6 km/h (2 Bft) N-NW 339 2 min 5,4 UV-I 757 W/m 12,3 C 19,2 C 14,5 km/h (3 Bft)
20.05.2020 15:52 20,2 C 30,0 C 60 % 1022,3 hPa 0,0 l/m 10,5 km/h (2 Bft) N-NW 344 2 min 5,4 UV-I 758 W/m 12,2 C 18,7 C 17,7 km/h (3 Bft)
20.05.2020 15:54 20,2 C 29,4 C 61 % 1022,2 hPa 0,0 l/m 10,5 km/h (2 Bft) N-NO 23 2 min 5,4 UV-I 760 W/m 12,4 C 18,7 C 16,1 km/h (3 Bft)
20.05.2020 15:56 20,3 C 29,4 C 62 % 1022,2 hPa 0,0 l/m 10,6 km/h (2 Bft) N-NO 29 2 min 5,2 UV-I 734 W/m 12,8 C 18,8 C 17,7 km/h (3 Bft)
20.05.2020 15:58 20,7 C 30,0 C 62 % 1022,2 hPa 0,0 l/m 10,5 km/h (2 Bft) N 355 2 min 5,2 UV-I 733 W/m 13,2 C 19,3 C 16,1 km/h (3 Bft)
20.05.2020 16:00 20,6 C 30,0 C 60 % 1022,3 hPa 0,0 l/m 14,1 km/h (3 Bft) N-NO 32 2 min 5,2 UV-I 741 W/m 12,6 C 18,2 C 20,9 km/h (4 Bft)
20.05.2020 16:02 20,7 C 30,6 C 62 % 1022,3 hPa 0,0 l/m 13,7 km/h (3 Bft) N-NO 19 2 min 5,1 UV-I 734 W/m 13,2 C 18,4 C 17,7 km/h (3 Bft)
20.05.2020 16:04 20,7 C 31,1 C 63 % 1022,2 hPa 0,0 l/m 11,4 km/h (2 Bft) N-NO 13 2 min 5,1 UV-I 729 W/m 13,4 C 19,0 C 17,7 km/h (3 Bft)
20.05.2020 16:06 20,6 C 30,6 C 59 % 1022,2 hPa 0,0 l/m 15,0 km/h (3 Bft) N-NO 28 2 min 5,0 UV-I 712 W/m 12,3 C 18,0 C 19,3 km/h (3 Bft)
20.05.2020 16:08 20,2 C 30,0 C 60 % 1022,2 hPa 0,0 l/m 11,3 km/h (2 Bft) NO 51 2 min 5,0 UV-I 710 W/m 12,2 C 18,5 C 16,1 km/h (3 Bft)
20.05.2020 16:10 20,0 C 29,4 C 62 % 1022,2 hPa 0,0 l/m 12,3 km/h (3 Bft) NO 48 2 min 5,0 UV-I 713 W/m 12,5 C 17,9 C 19,3 km/h (3 Bft)
20.05.2020 16:12 20,0 C 29,4 C 63 % 1022,2 hPa 0,0 l/m 7,2 km/h (2 Bft) N-NO 15 2 min 4,9 UV-I 714 W/m 12,7 C 19,7 C 16,1 km/h (3 Bft)
20.05.2020 16:14 20,2 C 29,4 C 62 % 1022,1 hPa 0,0 l/m 14,8 km/h (3 Bft) N 5 2 min 4,9 UV-I 704 W/m 12,7 C 17,5 C 19,3 km/h (3 Bft)
20.05.2020 16:16 20,2 C 30,0 C 62 % 1022,1 hPa 0,0 l/m 14,5 km/h (3 Bft) N-NO 26 2 min 4,9 UV-I 712 W/m 12,7 C 17,6 C 22,5 km/h (4 Bft)
20.05.2020 16:18 20,2 C 29,4 C 61 % 1022,1 hPa 0,0 l/m 15,7 km/h (3 Bft) N-NO 24 2 min 4,8 UV-I 703 W/m 12,4 C 17,3 C 20,9 km/h (4 Bft)
20.05.2020 16:20 20,3 C 30,0 C 62 % 1022,1 hPa 0,0 l/m 12,6 km/h (3 Bft) N-NO 28 2 min 4,7 UV-I 699 W/m 12,8 C 18,2 C 17,7 km/h (3 Bft)
20.05.2020 16:22 20,3 C 30,0 C 60 % 1022,2 hPa 0,0 l/m 13,4 km/h (3 Bft) NO 35 2 min 4,7 UV-I 695 W/m 12,3 C 18,0 C 17,7 km/h (3 Bft)
20.05.2020 16:24 20,3 C 29,4 C 60 % 1022,1 hPa 0,0 l/m 15,9 km/h (3 Bft) N-NW 344 2 min 4,7 UV-I 695 W/m 12,3 C 17,4 C 20,9 km/h (4 Bft)
20.05.2020 16:26 20,2 C 29,4 C 61 % 1022,1 hPa 0,0 l/m 9,1 km/h (2 Bft) NW 323 2 min 4,6 UV-I 693 W/m 12,4 C 19,2 C 14,5 km/h (3 Bft)
20.05.2020 16:28 20,5 C 30,0 C 61 % 1022,2 hPa 0,0 l/m 12,0 km/h (2 Bft) N-NW 346 2 min 4,5 UV-I 679 W/m 12,7 C 18,6 C 20,9 km/h (4 Bft)
20.05.2020 16:30 20,3 C 28,9 C 59 % 1022,2 hPa 0,0 l/m 10,5 km/h (2 Bft) N 9 2 min 4,5 UV-I 674 W/m 12,0 C 18,8 C 16,1 km/h (3 Bft)
20.05.2020 16:32 20,1 C 29,4 C 61 % 1022,2 hPa 0,0 l/m 8,1 km/h (2 Bft) N 5 2 min 4,5 UV-I 685 W/m 12,3 C 19,4 C 16,1 km/h (3 Bft)
20.05.2020 16:34 20,3 C 28,9 C 61 % 1022,2 hPa 0,0 l/m 15,7 km/h (3 Bft) N 5 2 min 4,5 UV-I 680 W/m 12,5 C 17,5 C 20,9 km/h (4 Bft)
20.05.2020 16:36 20,1 C 28,3 C 59 % 1022,2 hPa 0,0 l/m 12,6 km/h (3 Bft) N 360 2 min 4,4 UV-I 664 W/m 11,8 C 18,0 C 17,7 km/h (3 Bft)
20.05.2020 16:38 20,1 C 28,9 C 60 % 1022,2 hPa 0,0 l/m 16,5 km/h (3 Bft) N 355 2 min 4,3 UV-I 661 W/m 12,1 C 17,0 C 20,9 km/h (4 Bft)
20.05.2020 16:40 19,9 C 29,4 C 60 % 1022,2 hPa 0,0 l/m 14,1 km/h (3 Bft) N-NW 344 2 min 4,3 UV-I 659 W/m 11,9 C 17,3 C 20,9 km/h (4 Bft)
20.05.2020 16:42 20,0 C 28,9 C 62 % 1022,2 hPa 0,0 l/m 9,8 km/h (2 Bft) N-NO 15 2 min 4,2 UV-I 653 W/m 12,5 C 18,7 C 16,1 km/h (3 Bft)
20.05.2020 16:44 20,2 C 29,4 C 60 % 1022,2 hPa 0,0 l/m 10,7 km/h (2 Bft) N 349 2 min 4,2 UV-I 641 W/m 12,2 C 18,6 C 16,1 km/h (3 Bft)
20.05.2020 16:46 20,3 C 30,0 C 61 % 1022,2 hPa 0,0 l/m 12,0 km/h (2 Bft) N-NO 16 2 min 4,1 UV-I 637 W/m 12,5 C 18,4 C 19,3 km/h (3 Bft)
20.05.2020 16:48 20,3 C 30,6 C 60 % 1022,2 hPa 0,0 l/m 13,3 km/h (3 Bft) NO 51 2 min 4,1 UV-I 639 W/m 12,3 C 18,0 C 19,3 km/h (3 Bft)
20.05.2020 16:50 20,2 C 30,6 C 61 % 1022,1 hPa 0,0 l/m 6,5 km/h (2 Bft) NO 51 2 min 4,0 UV-I 630 W/m 12,4 C 20,2 C 14,5 km/h (3 Bft)
20.05.2020 16:52 20,2 C 29,4 C 59 % 1022,1 hPa 0,0 l/m 10,3 km/h (2 Bft) N 360 2 min 4,0 UV-I 622 W/m 11,9 C 18,8 C 14,5 km/h (3 Bft)
20.05.2020 16:54 20,1 C 29,4 C 60 % 1022,1 hPa 0,0 l/m 15,3 km/h (3 Bft) N-NW 344 2 min 4,0 UV-I 625 W/m 12,1 C 17,3 C 19,3 km/h (3 Bft)
20.05.2020 16:56 20,0 C 30,0 C 61 % 1022,1 hPa 0,0 l/m 10,3 km/h (2 Bft) N-NW 345 2 min 3,9 UV-I 610 W/m 12,2 C 18,5 C 17,7 km/h (3 Bft)
20.05.2020 16:58 20,0 C 29,4 C 61 % 1022,1 hPa 0,0 l/m 12,7 km/h (3 Bft) N-NO 22 2 min 3,8 UV-I 611 W/m 12,2 C 17,8 C 19,3 km/h (3 Bft)
20.05.2020 17:00 20,2 C 29,4 C 62 % 1022,1 hPa 0,0 l/m 10,6 km/h (2 Bft) N 5 2 min 3,8 UV-I 603 W/m 12,7 C 18,7 C 20,9 km/h (4 Bft)
20.05.2020 17:02 20,0 C 30,0 C 61 % 1022,1 hPa 0,0 l/m 16,3 km/h (3 Bft) N 355 2 min 3,8 UV-I 600 W/m 12,2 C 17,0 C 20,9 km/h (4 Bft)
20.05.2020 17:04 20,0 C 29,4 C 61 % 1022,1 hPa 0,0 l/m 14,2 km/h (3 Bft) N-NO 13 2 min 3,8 UV-I 604 W/m 12,2 C 17,4 C 22,5 km/h (4 Bft)
20.05.2020 17:06 19,9 C 29,4 C 61 % 1022,1 hPa 0,0 l/m 14,6 km/h (3 Bft) N-NW 342 2 min 3,6 UV-I 597 W/m 12,2 C 17,2 C 20,9 km/h (4 Bft)
20.05.2020 17:08 19,9 C 28,9 C 64 % 1022,1 hPa 0,0 l/m 9,3 km/h (2 Bft) N 11 2 min 3,6 UV-I 590 W/m 12,9 C 18,8 C 14,5 km/h (3 Bft)
20.05.2020 17:10 20,2 C 29,4 C 63 % 1022,1 hPa 0,0 l/m 7,9 km/h (2 Bft) NO 36 0 min 3,5 UV-I 579 W/m 12,9 C 19,6 C 14,5 km/h (3 Bft)
20.05.2020 17:12 20,3 C 29,4 C 62 % 1022,1 hPa 0,0 l/m 13,1 km/h (3 Bft) N 5 0 min 3,4 UV-I 570 W/m 12,8 C 18,1 C 20,9 km/h (4 Bft)
20.05.2020 17:14 20,1 C 29,4 C 61 % 1022,1 hPa 0,0 l/m 14,2 km/h (3 Bft) N-NO 21 0 min 3,4 UV-I 572 W/m 12,3 C 17,6 C 19,3 km/h (3 Bft)
20.05.2020 17:16 20,0 C 28,9 C 61 % 1022,2 hPa 0,0 l/m 13,3 km/h (3 Bft) N-NW 331 0 min 3,3 UV-I 559 W/m 12,2 C 17,7 C 19,3 km/h (3 Bft)
20.05.2020 17:18 19,9 C 28,3 C 62 % 1022,1 hPa 0,0 l/m 15,6 km/h (3 Bft) N-NO 27 0 min 3,2 UV-I 537 W/m 12,4 C 17,0 C 22,5 km/h (4 Bft)
20.05.2020 17:20 19,8 C 28,3 C 62 % 1022,1 hPa 0,0 l/m 12,6 km/h (3 Bft) N-NO 21 0 min 3,2 UV-I 543 W/m 12,3 C 17,6 C 19,3 km/h (3 Bft)
20.05.2020 17:22 19,8 C 28,9 C 61 % 1022,1 hPa 0,0 l/m 12,0 km/h (2 Bft) N 5 0 min 3,2 UV-I 546 W/m 12,1 C 17,8 C 19,3 km/h (3 Bft)
20.05.2020 17:24 19,9 C 29,4 C 63 % 1022,1 hPa 0,0 l/m 11,7 km/h (2 Bft) N-NO 32 0 min 3,1 UV-I 536 W/m 12,6 C 18,0 C 19,3 km/h (3 Bft)
20.05.2020 17:26 19,9 C 29,4 C 63 % 1022,2 hPa 0,0 l/m 14,2 km/h (3 Bft) N 5 0 min 3,1 UV-I 538 W/m 12,6 C 17,3 C 20,9 km/h (4 Bft)
20.05.2020 17:28 19,8 C 29,4 C 61 % 1022,2 hPa 0,0 l/m 11,9 km/h (2 Bft) N-NO 26 0 min 3,1 UV-I 548 W/m 12,1 C 17,8 C 19,3 km/h (3 Bft)
20.05.2020 17:30 19,7 C 28,9 C 62 % 1022,2 hPa 0,0 l/m 9,1 km/h (2 Bft) N-NO 30 0 min 3,1 UV-I 544 W/m 12,2 C 18,6 C 14,5 km/h (3 Bft)
20.05.2020 17:32 19,6 C 27,8 C 61 % 1022,1 hPa 0,0 l/m 12,9 km/h (3 Bft) NO 34 0 min 3,0 UV-I 520 W/m 11,9 C 17,3 C 16,1 km/h (3 Bft)
20.05.2020 17:34 19,6 C 28,3 C 64 % 1022,1 hPa 0,0 l/m 9,9 km/h (2 Bft) NO 42 0 min 2,9 UV-I 494 W/m 12,6 C 18,2 C 17,7 km/h (3 Bft)
20.05.2020 17:36 19,6 C 28,3 C 61 % 1022,1 hPa 0,0 l/m 14,5 km/h (3 Bft) N-NO 16 0 min 2,9 UV-I 521 W/m 11,9 C 16,9 C 20,9 km/h (4 Bft)
20.05.2020 17:38 19,4 C 27,8 C 63 % 1022,2 hPa 0,0 l/m 12,7 km/h (3 Bft) NO 39 0 min 3,0 UV-I 527 W/m 12,2 C 17,1 C 19,3 km/h (3 Bft)
20.05.2020 17:40 19,6 C 28,3 C 63 % 1022,2 hPa 0,0 l/m 15,2 km/h (3 Bft) N-NO 32 0 min 2,9 UV-I 521 W/m 12,4 C 16,7 C 24,1 km/h (4 Bft)
20.05.2020 17:42 19,5 C 27,8 C 62 % 1022,1 hPa 0,0 l/m 12,1 km/h (2 Bft) N 5 0 min 2,8 UV-I 505 W/m 12,0 C 17,4 C 19,3 km/h (3 Bft)
20.05.2020 17:44 19,6 C 27,8 C 62 % 1022,1 hPa 0,0 l/m 14,4 km/h (3 Bft) N 5 0 min 2,7 UV-I 493 W/m 12,1 C 16,9 C 20,9 km/h (4 Bft)
20.05.2020 17:46 19,4 C 28,3 C 62 % 1022,3 hPa 0,0 l/m 14,1 km/h (3 Bft) N-NO 23 0 min 2,7 UV-I 488 W/m 11,9 C 16,8 C 17,7 km/h (3 Bft)
20.05.2020 17:48 19,6 C 28,3 C 63 % 1022,2 hPa 0,0 l/m 12,5 km/h (3 Bft) N-NO 13 0 min 2,6 UV-I 471 W/m 12,4 C 17,4 C 17,7 km/h (3 Bft)
20.05.2020 17:50 19,6 C 28,3 C 62 % 1022,1 hPa 0,0 l/m 12,8 km/h (3 Bft) N 5 0 min 2,6 UV-I 479 W/m 12,1 C 17,3 C 17,7 km/h (3 Bft)
20.05.2020 17:52 19,5 C 28,3 C 63 % 1022,2 hPa 0,0 l/m 12,2 km/h (2 Bft) N 350 0 min 2,5 UV-I 466 W/m 12,3 C 17,4 C 17,7 km/h (3 Bft)
20.05.2020 17:54 19,3 C 27,8 C 61 % 1022,2 hPa 0,0 l/m 13,1 km/h (3 Bft) N 5 0 min 2,5 UV-I 462 W/m 11,6 C 16,9 C 17,7 km/h (3 Bft)
20.05.2020 17:56 19,3 C 27,8 C 62 % 1022,2 hPa 0,0 l/m 10,8 km/h (2 Bft) N 5 0 min 2,5 UV-I 459 W/m 11,8 C 17,6 C 14,5 km/h (3 Bft)
20.05.2020 17:58 19,3 C 27,2 C 62 % 1022,1 hPa 0,0 l/m 9,3 km/h (2 Bft) N-NO 24 0 min 2,4 UV-I 454 W/m 11,8 C 18,1 C 16,1 km/h (3 Bft)
20.05.2020 18:00 19,3 C 27,8 C 63 % 1022,1 hPa 0,0 l/m 9,6 km/h (2 Bft) N 5 0 min 2,4 UV-I 452 W/m 12,1 C 18,0 C 16,1 km/h (3 Bft)
20.05.2020 18:02 19,3 C 27,2 C 62 % 1022,2 hPa 0,0 l/m 10,9 km/h (2 Bft) N 355 0 min 2,4 UV-I 454 W/m 11,8 C 17,6 C 17,7 km/h (3 Bft)
20.05.2020 18:04 19,3 C 27,2 C 62 % 1022,2 hPa 0,0 l/m 8,2 km/h (2 Bft) N 5 0 min 2,3 UV-I 452 W/m 11,8 C 18,5 C 14,5 km/h (3 Bft)
20.05.2020 18:06 19,3 C 27,8 C 61 % 1022,2 hPa 0,0 l/m 14,7 km/h (3 Bft) N-NW 340 0 min 2,4 UV-I 462 W/m 11,6 C 16,5 C 22,5 km/h (4 Bft)
20.05.2020 18:08 19,2 C 27,2 C 63 % 1022,2 hPa 0,0 l/m 15,5 km/h (3 Bft) N-NO 28 0 min 2,3 UV-I 459 W/m 12,0 C 16,2 C 24,1 km/h (4 Bft)
20.05.2020 18:10 19,2 C 27,8 C 62 % 1022,1 hPa 0,0 l/m 11,5 km/h (2 Bft) N 5 0 min 2,2 UV-I 448 W/m 11,7 C 17,3 C 17,7 km/h (3 Bft)
20.05.2020 18:12 19,3 C 27,2 C 63 % 1022,1 hPa 0,0 l/m 10,8 km/h (2 Bft) N-NO 22 0 min 2,2 UV-I 431 W/m 12,1 C 17,6 C 19,3 km/h (3 Bft)
20.05.2020 18:14 19,2 C 27,2 C 62 % 1022,2 hPa 0,0 l/m 13,2 km/h (3 Bft) N 355 0 min 2,1 UV-I 429 W/m 11,7 C 16,8 C 17,7 km/h (3 Bft)
20.05.2020 18:16 19,0 C 27,2 C 62 % 1022,1 hPa 0,0 l/m 12,7 km/h (3 Bft) N 349 0 min 2,1 UV-I 418 W/m 11,6 C 16,7 C 19,3 km/h (3 Bft)
20.05.2020 18:18 19,1 C 27,2 C 64 % 1022,2 hPa 0,0 l/m 8,8 km/h (2 Bft) N-NO 30 0 min 2,1 UV-I 423 W/m 12,1 C 18,1 C 16,1 km/h (3 Bft)
20.05.2020 18:20 19,1 C 26,7 C 64 % 1022,1 hPa 0,0 l/m 13,6 km/h (3 Bft) N 360 0 min 2,0 UV-I 408 W/m 12,1 C 16,5 C 19,3 km/h (3 Bft)
20.05.2020 18:22 18,8 C 26,1 C 61 % 1022,2 hPa 0,0 l/m 12,7 km/h (3 Bft) N 349 0 min 2,0 UV-I 425 W/m 11,1 C 16,4 C 19,3 km/h (3 Bft)
20.05.2020 18:24 18,7 C 25,0 C 63 % 1022,1 hPa 0,0 l/m 12,9 km/h (3 Bft) N 5 0 min 2,0 UV-I 419 W/m 11,5 C 16,3 C 19,3 km/h (3 Bft)
20.05.2020 18:26 18,7 C 25,0 C 64 % 1022,1 hPa 0,0 l/m 9,8 km/h (2 Bft) N 5 0 min 1,9 UV-I 390 W/m 11,7 C 17,3 C 16,1 km/h (3 Bft)
20.05.2020 18:28 18,8 C 23,9 C 63 % 1022,1 hPa 0,0 l/m 12,6 km/h (3 Bft) N 5 0 min 1,9 UV-I 376 W/m 11,6 C 16,5 C 19,3 km/h (3 Bft)
20.05.2020 18:30 18,8 C 23,3 C 64 % 1022,2 hPa 0,0 l/m 12,9 km/h (3 Bft) NO 36 0 min 1,9 UV-I 425 W/m 11,8 C 16,4 C 17,7 km/h (3 Bft)
20.05.2020 18:32 18,8 C 23,3 C 63 % 1022,1 hPa 0,0 l/m 12,3 km/h (3 Bft) N-NO 24 0 min 1,9 UV-I 416 W/m 11,6 C 16,6 C 17,7 km/h (3 Bft)
20.05.2020 18:34 18,8 C 22,8 C 63 % 1022,1 hPa 0,0 l/m 10,6 km/h (2 Bft) N 5 0 min 1,8 UV-I 405 W/m 11,6 C 17,1 C 17,7 km/h (3 Bft)
20.05.2020 18:36 18,8 C 22,2 C 64 % 1022,1 hPa 0,0 l/m 11,3 km/h (2 Bft) N 5 0 min 1,8 UV-I 387 W/m 11,8 C 16,9 C 19,3 km/h (3 Bft)
20.05.2020 18:38 18,6 C 22,2 C 63 % 1022,1 hPa 0,0 l/m 12,7 km/h (3 Bft) N-NO 15 0 min 1,7 UV-I 356 W/m 11,4 C 16,2 C 20,9 km/h (4 Bft)
20.05.2020 18:40 18,6 C 22,2 C 64 % 1022,1 hPa 0,0 l/m 13,9 km/h (3 Bft) N-NO 19 0 min 1,6 UV-I 355 W/m 11,7 C 15,9 C 20,9 km/h (4 Bft)
20.05.2020 18:42 18,6 C 22,2 C 65 % 1022,1 hPa 0,0 l/m 9,5 km/h (2 Bft) N-NO 13 0 min 1,6 UV-I 364 W/m 11,9 C 17,3 C 19,3 km/h (3 Bft)
20.05.2020 18:44 18,6 C 22,2 C 64 % 1022,1 hPa 0,0 l/m 10,4 km/h (2 Bft) N-NW 347 0 min 1,6 UV-I 363 W/m 11,7 C 17,0 C 17,7 km/h (3 Bft)
20.05.2020 18:46 18,5 C 21,7 C 64 % 1022,1 hPa 0,0 l/m 14,1 km/h (3 Bft) N-NO 22 0 min 1,5 UV-I 341 W/m 11,6 C 15,7 C 20,9 km/h (4 Bft)
20.05.2020 18:48 18,4 C 21,7 C 64 % 1022,1 hPa 0,0 l/m 11,7 km/h (2 Bft) N 355 0 min 1,5 UV-I 315 W/m 11,5 C 16,3 C 16,1 km/h (3 Bft)
20.05.2020 18:50 18,3 C 21,1 C 64 % 1022,1 hPa 0,0 l/m 11,3 km/h (2 Bft) N-NO 22 0 min 1,4 UV-I 299 W/m 11,4 C 16,3 C 16,1 km/h (3 Bft)
20.05.2020 18:52 18,3 C 21,1 C 64 % 1022,1 hPa 0,0 l/m 10,1 km/h (2 Bft) N-NO 28 0 min 1,4 UV-I 298 W/m 11,4 C 16,7 C 14,5 km/h (3 Bft)
20.05.2020 18:54 18,3 C 21,7 C 64 % 1022,1 hPa 0,0 l/m 12,3 km/h (3 Bft) N-NO 19 0 min 1,3 UV-I 299 W/m 11,4 C 16,0 C 17,7 km/h (3 Bft)
20.05.2020 18:56 18,2 C 22,2 C 65 % 1022,0 hPa 0,0 l/m 12,3 km/h (3 Bft) N 355 0 min 1,3 UV-I 293 W/m 11,5 C 15,9 C 16,1 km/h (3 Bft)
20.05.2020 18:58 18,1 C 22,8 C 65 % 1022,0 hPa 0,0 l/m 13,5 km/h (3 Bft) N 5 0 min 1,3 UV-I 288 W/m 11,4 C 15,4 C 19,3 km/h (3 Bft)
20.05.2020 19:00 18,0 C 22,8 C 65 % 1022,1 hPa 0,0 l/m 14,6 km/h (3 Bft) N 9 0 min 1,2 UV-I 276 W/m 11,3 C 14,9 C 19,3 km/h (3 Bft)
20.05.2020 19:02 17,9 C 23,3 C 66 % 1022,0 hPa 0,0 l/m 12,3 km/h (3 Bft) NO 38 0 min 1,2 UV-I 276 W/m 11,5 C 15,5 C 19,3 km/h (3 Bft)
20.05.2020 19:04 17,9 C 23,3 C 66 % 1022,1 hPa 0,0 l/m 13,1 km/h (3 Bft) N-NO 30 0 min 1,1 UV-I 253 W/m 11,5 C 15,3 C 19,3 km/h (3 Bft)
20.05.2020 19:06 17,8 C 23,3 C 66 % 1022,1 hPa 0,0 l/m 14,7 km/h (3 Bft) N 5 0 min 1,1 UV-I 243 W/m 11,4 C 14,7 C 19,3 km/h (3 Bft)
20.05.2020 19:08 17,6 C 22,8 C 66 % 1022,1 hPa 0,0 l/m 12,9 km/h (3 Bft) N-NO 22 0 min 1,1 UV-I 245 W/m 11,2 C 15,0 C 16,1 km/h (3 Bft)
20.05.2020 19:10 17,6 C 23,3 C 66 % 1022,1 hPa 0,0 l/m 10,9 km/h (2 Bft) NO 34 0 min 1,1 UV-I 256 W/m 11,2 C 15,7 C 17,7 km/h (3 Bft)
20.05.2020 19:12 17,6 C 23,3 C 67 % 1022,1 hPa 0,0 l/m 6,3 km/h (2 Bft) N-NW 342 0 min 1,0 UV-I 247 W/m 11,4 C 17,6 C 12,9 km/h (3 Bft)
20.05.2020 19:14 17,6 C 23,9 C 67 % 1022,1 hPa 0,0 l/m 9,9 km/h (2 Bft) N 9 0 min 1,0 UV-I 244 W/m 11,4 C 16,0 C 16,1 km/h (3 Bft)
20.05.2020 19:16 17,6 C 23,3 C 67 % 1022,1 hPa 0,0 l/m 12,3 km/h (3 Bft) N 11 0 min 1,0 UV-I 236 W/m 11,4 C 15,2 C 16,1 km/h (3 Bft)
20.05.2020 19:18 17,6 C 23,3 C 67 % 1022,1 hPa 0,0 l/m 9,9 km/h (2 Bft) N 355 0 min 1,0 UV-I 235 W/m 11,4 C 16,0 C 14,5 km/h (3 Bft)
20.05.2020 19:20 17,6 C 23,3 C 67 % 1022,1 hPa 0,0 l/m 9,8 km/h (2 Bft) N 9 0 min 0,9 UV-I 238 W/m 11,4 C 16,1 C 17,7 km/h (3 Bft)
20.05.2020 19:22 17,6 C 23,3 C 67 % 1022,1 hPa 0,0 l/m 9,8 km/h (2 Bft) N 350 0 min 0,9 UV-I 239 W/m 11,4 C 16,1 C 14,5 km/h (3 Bft)
20.05.2020 19:24 17,4 C 22,2 C 68 % 1022,2 hPa 0,0 l/m 10,5 km/h (2 Bft) N-NO 24 0 min 0,9 UV-I 233 W/m 11,4 C 15,6 C 16,1 km/h (3 Bft)
20.05.2020 19:26 17,5 C 22,2 C 68 % 1022,1 hPa 0,0 l/m 4,6 km/h (1 Bft) N 10 0 min 0,8 UV-I 220 W/m 11,5 C 17,5 C 6,4 km/h (2 Bft)
20.05.2020 19:28 17,4 C 21,7 C 67 % 1022,1 hPa 0,0 l/m 10,8 km/h (2 Bft) N 5 0 min 0,8 UV-I 195 W/m 11,2 C 15,5 C 19,3 km/h (3 Bft)
20.05.2020 19:30 17,3 C 20,6 C 67 % 1022,0 hPa 0,0 l/m 12,9 km/h (3 Bft) N 5 0 min 0,8 UV-I 186 W/m 11,1 C 14,6 C 17,7 km/h (3 Bft)
20.05.2020 19:32 17,2 C 20,6 C 67 % 1022,1 hPa 0,0 l/m 12,2 km/h (2 Bft) N-NO 22 0 min 0,7 UV-I 169 W/m 11,0 C 14,7 C 17,7 km/h (3 Bft)
20.05.2020 19:34 17,1 C 20,6 C 68 % 1022,1 hPa 0,0 l/m 11,6 km/h (2 Bft) N-NO 12 0 min 0,7 UV-I 172 W/m 11,1 C 14,8 C 16,1 km/h (3 Bft)
20.05.2020 19:36 16,9 C 20,6 C 68 % 1022,1 hPa 0,0 l/m 10,2 km/h (2 Bft) N-NO 24 0 min 0,7 UV-I 168 W/m 11,0 C 15,1 C 16,1 km/h (3 Bft)
20.05.2020 19:38 16,9 C 20,6 C 69 % 1022,1 hPa 0,0 l/m 12,9 km/h (3 Bft) N-NO 29 0 min 0,7 UV-I 184 W/m 11,2 C 14,2 C 19,3 km/h (3 Bft)
20.05.2020 19:40 16,8 C 20,6 C 69 % 1022,2 hPa 0,0 l/m 13,1 km/h (3 Bft) N 355 0 min 0,7 UV-I 175 W/m 11,1 C 14,0 C 17,7 km/h (3 Bft)
20.05.2020 19:42 16,8 C 20,6 C 69 % 1022,2 hPa 0,0 l/m 10,3 km/h (2 Bft) N-NO 20 0 min 0,7 UV-I 170 W/m 11,1 C 15,0 C 17,7 km/h (3 Bft)
20.05.2020 19:44 16,8 C 20,6 C 69 % 1022,2 hPa 0,0 l/m 9,7 km/h (2 Bft) N 10 0 min 0,6 UV-I 162 W/m 11,1 C 15,2 C 17,7 km/h (3 Bft)
20.05.2020 19:46 16,8 C 20,0 C 69 % 1022,3 hPa 0,0 l/m 11,5 km/h (2 Bft) N-NO 33 0 min 0,6 UV-I 157 W/m 11,1 C 14,5 C 16,1 km/h (3 Bft)
20.05.2020 19:48 16,7 C 20,0 C 69 % 1022,3 hPa 0,0 l/m 13,1 km/h (3 Bft) N-NW 348 0 min 0,6 UV-I 143 W/m 11,0 C 13,9 C 20,9 km/h (4 Bft)
20.05.2020 19:50 16,6 C 19,4 C 69 % 1022,2 hPa 0,0 l/m 12,8 km/h (3 Bft) N-NO 12 0 min 0,5 UV-I 119 W/m 10,9 C 13,8 C 20,9 km/h (4 Bft)
20.05.2020 19:52 16,5 C 18,9 C 70 % 1022,3 hPa 0,0 l/m 14,6 km/h (3 Bft) N-NO 32 0 min 0,5 UV-I 114 W/m 11,0 C 13,1 C 20,9 km/h (4 Bft)
20.05.2020 19:54 16,4 C 18,3 C 70 % 1022,3 hPa 0,0 l/m 9,6 km/h (2 Bft) N-NO 25 0 min 0,5 UV-I 109 W/m 10,9 C 14,8 C 16,1 km/h (3 Bft)
20.05.2020 19:56 16,3 C 17,8 C 70 % 1022,3 hPa 0,0 l/m 9,8 km/h (2 Bft) N-NO 24 0 min 0,2 UV-I 106 W/m 10,8 C 14,6 C 14,5 km/h (3 Bft)
20.05.2020 19:58 16,3 C 17,2 C 70 % 1022,4 hPa 0,0 l/m 10,3 km/h (2 Bft) N 5 0 min 0,0 UV-I 100 W/m 10,8 C 14,4 C 16,1 km/h (3 Bft)
20.05.2020 20:00 16,2 C 17,2 C 70 % 1022,3 hPa 0,0 l/m 7,5 km/h (2 Bft) N-NO 23 0 min 0,0 UV-I 102 W/m 10,7 C 15,6 C 12,9 km/h (3 Bft)
20.05.2020 20:02 16,1 C 16,7 C 71 % 1022,4 hPa 0,0 l/m 10,5 km/h (2 Bft) NO 34 0 min 0,0 UV-I 93 W/m 10,8 C 14,1 C 17,7 km/h (3 Bft)
20.05.2020 20:04 16,1 C 16,7 C 71 % 1022,4 hPa 0,0 l/m 9,9 km/h (2 Bft) N-NO 31 0 min 0,0 UV-I 92 W/m 10,8 C 14,4 C 16,1 km/h (3 Bft)
20.05.2020 20:06 16,1 C 16,7 C 71 % 1022,4 hPa 0,0 l/m 11,0 km/h (2 Bft) N-NW 348 0 min 0,0 UV-I 93 W/m 10,8 C 13,9 C 14,5 km/h (3 Bft)
20.05.2020 20:08 16,0 C 16,7 C 70 % 1022,5 hPa 0,0 l/m 9,9 km/h (2 Bft) N-NO 19 0 min 0,0 UV-I 88 W/m 10,5 C 14,3 C 14,5 km/h (3 Bft)
20.05.2020 20:10 16,0 C 16,1 C 71 % 1022,5 hPa 0,0 l/m 8,6 km/h (2 Bft) N 9 0 min 0,0 UV-I 78 W/m 10,7 C 14,9 C 14,5 km/h (3 Bft)
20.05.2020 20:12 15,9 C 16,1 C 71 % 1022,5 hPa 0,0 l/m 6,7 km/h (2 Bft) N-NO 12 0 min 0,0 UV-I 71 W/m 10,6 C 15,7 C 11,3 km/h (2 Bft)
20.05.2020 20:14 15,9 C 16,1 C 71 % 1022,6 hPa 0,0 l/m 9,3 km/h (2 Bft) N-NO 13 0 min 0,0 UV-I 67 W/m 10,6 C 14,4 C 14,5 km/h (3 Bft)
20.05.2020 20:16 15,9 C 16,1 C 71 % 1022,6 hPa 0,0 l/m 7,3 km/h (2 Bft) N 11 0 min 0,0 UV-I 64 W/m 10,6 C 15,4 C 12,9 km/h (3 Bft)
20.05.2020 20:18 15,8 C 16,1 C 72 % 1022,6 hPa 0,0 l/m 7,8 km/h (2 Bft) N 360 0 min 0,0 UV-I 63 W/m 10,8 C 15,0 C 12,9 km/h (3 Bft)
20.05.2020 20:20 15,8 C 15,6 C 72 % 1022,7 hPa 0,0 l/m 11,4 km/h (2 Bft) N 360 0 min 0,0 UV-I 63 W/m 10,8 C 13,4 C 17,7 km/h (3 Bft)
20.05.2020 20:22 15,8 C 15,6 C 72 % 1022,6 hPa 0,0 l/m 12,5 km/h (3 Bft) N-NO 17 0 min 0,0 UV-I 60 W/m 10,8 C 13,0 C 16,1 km/h (3 Bft)
20.05.2020 20:24 15,7 C 15,6 C 72 % 1022,6 hPa 0,0 l/m 12,2 km/h (2 Bft) N-NW 347 0 min 0,0 UV-I 56 W/m 10,7 C 13,0 C 17,7 km/h (3 Bft)
20.05.2020 20:26 15,7 C 15,6 C 72 % 1022,6 hPa 0,0 l/m 14,0 km/h (3 Bft) N 360 0 min 0,0 UV-I 53 W/m 10,7 C 12,4 C 20,9 km/h (4 Bft)
20.05.2020 20:28 15,7 C 15,6 C 72 % 1022,6 hPa 0,0 l/m 12,8 km/h (3 Bft) N-NW 343 0 min 0,0 UV-I 49 W/m 10,7 C 12,8 C 16,1 km/h (3 Bft)
20.05.2020 20:30 15,7 C 15,6 C 72 % 1022,6 hPa 0,0 l/m 8,9 km/h (2 Bft) N-NO 14 0 min 0,0 UV-I 49 W/m 10,7 C 14,4 C 16,1 km/h (3 Bft)
20.05.2020 20:32 15,6 C 15,6 C 73 % 1022,7 hPa 0,0 l/m 6,1 km/h (2 Bft) N 5 0 min 0,0 UV-I 51 W/m 10,8 C 15,6 C 12,9 km/h (3 Bft)
20.05.2020 20:34 15,5 C 15,0 C 73 % 1022,7 hPa 0,0 l/m 10,6 km/h (2 Bft) N 360 0 min 0,0 UV-I 49 W/m 10,7 C 13,4 C 16,1 km/h (3 Bft)
20.05.2020 20:36 15,4 C 15,0 C 73 % 1022,6 hPa 0,0 l/m 10,6 km/h (2 Bft) N-NW 348 0 min 0,0 UV-I 46 W/m 10,6 C 13,3 C 16,1 km/h (3 Bft)
20.05.2020 20:38 15,4 C 15,0 C 73 % 1022,6 hPa 0,0 l/m 9,2 km/h (2 Bft) N 5 0 min 0,0 UV-I 44 W/m 10,6 C 13,9 C 14,5 km/h (3 Bft)
20.05.2020 20:40 15,3 C 15,0 C 73 % 1022,6 hPa 0,0 l/m 6,3 km/h (2 Bft) NO 35 0 min 0,0 UV-I 41 W/m 10,5 C 15,3 C 11,3 km/h (2 Bft)
20.05.2020 20:42 15,3 C 15,0 C 73 % 1022,6 hPa 0,0 l/m 5,3 km/h (1 Bft) N 11 0 min 0,0 UV-I 40 W/m 10,5 C 15,3 C 8,0 km/h (2 Bft)
20.05.2020 20:44 15,2 C 14,4 C 74 % 1022,7 hPa 0,0 l/m 5,2 km/h (1 Bft) N 5 0 min 0,0 UV-I 38 W/m 10,6 C 15,2 C 8,0 km/h (2 Bft)
20.05.2020 20:46 15,1 C 14,4 C 74 % 1022,6 hPa 0,0 l/m 6,4 km/h (2 Bft) N 355 0 min 0,0 UV-I 33 W/m 10,5 C 15,1 C 8,0 km/h (2 Bft)
20.05.2020 20:48 15,0 C 13,9 C 75 % 1022,7 hPa 0,0 l/m 6,0 km/h (2 Bft) N 5 0 min 0,0 UV-I 32 W/m 10,6 C 15,0 C 8,0 km/h (2 Bft)
20.05.2020 20:50 14,9 C 13,9 C 74 % 1022,7 hPa 0,0 l/m 9,5 km/h (2 Bft) N 11 0 min 0,0 UV-I 30 W/m 10,3 C 13,2 C 16,1 km/h (3 Bft)
20.05.2020 20:52 15,0 C 13,9 C 74 % 1022,7 hPa 0,0 l/m 7,2 km/h (2 Bft) N-NW 336 0 min 0,0 UV-I 28 W/m 10,4 C 14,5 C 12,9 km/h (3 Bft)
20.05.2020 20:54 14,9 C 13,9 C 74 % 1022,7 hPa 0,0 l/m 7,1 km/h (2 Bft) N-NW 348 0 min 0,0 UV-I 26 W/m 10,3 C 14,5 C 12,9 km/h (3 Bft)
20.05.2020 20:56 14,8 C 13,9 C 75 % 1022,8 hPa 0,0 l/m 7,0 km/h (2 Bft) N-NO 17 0 min 0,0 UV-I 24 W/m 10,4 C 14,5 C 12,9 km/h (3 Bft)
20.05.2020 20:58 14,7 C 13,3 C 75 % 1022,8 hPa 0,0 l/m 5,1 km/h (1 Bft) N-NO 13 0 min 0,0 UV-I 22 W/m 10,3 C 14,7 C 8,0 km/h (2 Bft)
20.05.2020 21:00 14,7 C 13,3 C 75 % 1022,8 hPa 0,0 l/m 5,2 km/h (1 Bft) N 355 0 min 0,0 UV-I 19 W/m 10,3 C 14,7 C 8,0 km/h (2 Bft)
20.05.2020 21:02 14,6 C 13,3 C 75 % 1022,7 hPa 0,0 l/m 5,5 km/h (1 Bft) N 5 0 min 0,0 UV-I 16 W/m 10,2 C 14,6 C 11,3 km/h (2 Bft)
20.05.2020 21:04 14,5 C 13,3 C 76 % 1022,8 hPa 0,0 l/m 5,3 km/h (1 Bft) N 360 0 min 0,0 UV-I 14 W/m 10,3 C 14,5 C 8,0 km/h (2 Bft)
20.05.2020 21:06 14,5 C 12,8 C 76 % 1022,8 hPa 0,0 l/m 6,7 km/h (2 Bft) N 355 0 min 0,0 UV-I 11 W/m 10,3 C 14,3 C 8,0 km/h (2 Bft)
20.05.2020 21:08 14,5 C 12,8 C 76 % 1022,8 hPa 0,0 l/m 7,2 km/h (2 Bft) N 351 0 min 0,0 UV-I 10 W/m 10,3 C 14,0 C 9,7 km/h (2 Bft)
20.05.2020 21:10 14,4 C 12,8 C 76 % 1022,8 hPa 0,0 l/m 7,5 km/h (2 Bft) N 5 0 min 0,0 UV-I 9 W/m 10,2 C 13,8 C 9,7 km/h (2 Bft)
20.05.2020 21:12 14,4 C 12,8 C 76 % 1022,9 hPa 0,0 l/m 8,4 km/h (2 Bft) N 355 0 min 0,0 UV-I 7 W/m 10,2 C 13,3 C 14,5 km/h (3 Bft)
20.05.2020 21:14 14,4 C 12,8 C 76 % 1022,8 hPa 0,0 l/m 6,2 km/h (2 Bft) N 11 0 min 0,0 UV-I 6 W/m 10,2 C 14,4 C 8,0 km/h (2 Bft)
20.05.2020 21:16 14,3 C 12,8 C 76 % 1022,8 hPa 0,0 l/m 7,6 km/h (2 Bft) N-NW 347 0 min 0,0 UV-I 5 W/m 10,1 C 13,6 C 9,7 km/h (2 Bft)
20.05.2020 21:18 14,2 C 12,2 C 76 % 1022,8 hPa 0,0 l/m 7,4 km/h (2 Bft) N-NO 20 0 min 0,0 UV-I 4 W/m 10,0 C 13,6 C 9,7 km/h (2 Bft)
20.05.2020 21:20 14,2 C 12,2 C 77 % 1022,8 hPa 0,0 l/m 7,3 km/h (2 Bft) N 11 0 min 0,0 UV-I 0 W/m 10,2 C 13,7 C 8,0 km/h (2 Bft)
20.05.2020 21:22 14,1 C 12,2 C 77 % 1022,8 hPa 0,0 l/m 6,6 km/h (2 Bft) N 5 0 min 0,0 UV-I 0 W/m 10,1 C 14,0 C 8,0 km/h (2 Bft)
20.05.2020 21:24 14,1 C 12,2 C 77 % 1022,7 hPa 0,0 l/m 6,5 km/h (2 Bft) N 360 0 min 0,0 UV-I 0 W/m 10,1 C 14,1 C 9,7 km/h (2 Bft)
20.05.2020 21:26 14,1 C 11,7 C 77 % 1022,8 hPa 0,0 l/m 6,3 km/h (2 Bft) N-NO 18 0 min 0,0 UV-I 0 W/m 10,1 C 14,1 C 8,0 km/h (2 Bft)
20.05.2020 21:28 13,9 C 11,7 C 77 % 1022,8 hPa 0,0 l/m 5,1 km/h (1 Bft) N 5 0 min 0,0 UV-I 0 W/m 9,9 C 13,9 C 8,0 km/h (2 Bft)
20.05.2020 21:30 13,8 C 11,1 C 78 % 1022,7 hPa 0,0 l/m 4,1 km/h (1 Bft) N 9 0 min 0,0 UV-I 0 W/m 10,0 C 13,8 C 6,4 km/h (2 Bft)
20.05.2020 21:32 13,7 C 11,1 C 78 % 1022,9 hPa 0,0 l/m 4,0 km/h (1 Bft) N 9 0 min 0,0 UV-I 0 W/m 9,9 C 13,7 C 6,4 km/h (2 Bft)
20.05.2020 21:34 13,6 C 11,1 C 79 % 1022,9 hPa 0,0 l/m 4,6 km/h (1 Bft) N 9 0 min 0,0 UV-I 0 W/m 10,0 C 13,6 C 6,4 km/h (2 Bft)
20.05.2020 21:36 13,4 C 11,1 C 79 % 1022,9 hPa 0,0 l/m 4,8 km/h (1 Bft) N-NO 12 0 min 0,0 UV-I 0 W/m 9,8 C 13,4 C 8,0 km/h (2 Bft)
20.05.2020 21:38 13,4 C 10,6 C 79 % 1022,9 hPa 0,0 l/m 5,3 km/h (1 Bft) N-NO 14 0 min 0,0 UV-I 0 W/m 9,8 C 13,4 C 6,4 km/h (2 Bft)
20.05.2020 21:40 13,3 C 10,6 C 80 % 1023,0 hPa 0,0 l/m 5,2 km/h (1 Bft) N-NO 19 0 min 0,0 UV-I 0 W/m 9,9 C 13,3 C 8,0 km/h (2 Bft)
20.05.2020 21:42 13,2 C 10,6 C 80 % 1022,9 hPa 0,0 l/m 5,4 km/h (1 Bft) N-NO 24 0 min 0,0 UV-I 0 W/m 9,8 C 13,2 C 6,4 km/h (2 Bft)
20.05.2020 21:44 13,1 C 10,6 C 80 % 1022,9 hPa 0,0 l/m 4,3 km/h (1 Bft) N-NO 17 0 min 0,0 UV-I 0 W/m 9,7 C 13,1 C 6,4 km/h (2 Bft)
20.05.2020 21:46 13,0 C 10,6 C 80 % 1022,9 hPa 0,0 l/m 4,4 km/h (1 Bft) N-NO 17 0 min 0,0 UV-I 0 W/m 9,6 C 13,0 C 6,4 km/h (2 Bft)
20.05.2020 21:48 12,9 C 10,0 C 81 % 1023,0 hPa 0,0 l/m 4,1 km/h (1 Bft) N 11 0 min 0,0 UV-I 0 W/m 9,7 C 12,9 C 6,4 km/h (2 Bft)
20.05.2020 21:50 12,9 C 10,0 C 81 % 1022,9 hPa 0,0 l/m 4,4 km/h (1 Bft) N 355 0 min 0,0 UV-I 0 W/m 9,7 C 12,9 C 8,0 km/h (2 Bft)
20.05.2020 21:52 12,9 C 10,0 C 81 % 1023,1 hPa 0,0 l/m 3,2 km/h (1 Bft) N 360 0 min 0,0 UV-I 0 W/m 9,7 C 12,9 C 4,8 km/h (1 Bft)
20.05.2020 21:54 13,0 C 10,0 C 81 % 1023,1 hPa 0,0 l/m 5,4 km/h (1 Bft) N 360 0 min 0,0 UV-I 0 W/m 9,8 C 13,0 C 6,4 km/h (2 Bft)
20.05.2020 21:56 13,1 C 10,6 C 81 % 1023,1 hPa 0,0 l/m 5,7 km/h (1 Bft) N 360 0 min 0,0 UV-I 0 W/m 9,9 C 13,1 C 8,0 km/h (2 Bft)
20.05.2020 21:58 13,1 C 10,6 C 81 % 1023,2 hPa 0,0 l/m 5,5 km/h (1 Bft) N 360 0 min 0,0 UV-I 0 W/m 9,9 C 13,1 C 8,0 km/h (2 Bft)
20.05.2020 22:00 13,1 C 10,6 C 80 % 1023,1 hPa 0,0 l/m 5,8 km/h (2 Bft) N 360 0 min 0,0 UV-I 0 W/m 9,7 C 13,1 C 8,0 km/h (2 Bft)
20.05.2020 22:02 13,1 C 10,6 C 80 % 1023,2 hPa 0,0 l/m 5,7 km/h (1 Bft) N 360 0 min 0,0 UV-I 0 W/m 9,7 C 13,1 C 8,0 km/h (2 Bft)
20.05.2020 22:04 13,0 C 10,6 C 81 % 1023,2 hPa 0,0 l/m 6,5 km/h (2 Bft) N 355 0 min 0,0 UV-I 0 W/m 9,8 C 13,0 C 8,0 km/h (2 Bft)
20.05.2020 22:06 13,0 C 10,6 C 81 % 1023,2 hPa 0,0 l/m 6,7 km/h (2 Bft) N 360 0 min 0,0 UV-I 0 W/m 9,8 C 12,8 C 8,0 km/h (2 Bft)
20.05.2020 22:08 12,9 C 10,6 C 81 % 1023,2 hPa 0,0 l/m 6,9 km/h (2 Bft) N 360 0 min 0,0 UV-I 0 W/m 9,7 C 12,6 C 9,7 km/h (2 Bft)
20.05.2020 22:10 12,9 C 10,6 C 81 % 1023,2 hPa 0,0 l/m 7,6 km/h (2 Bft) N-NO 15 0 min 0,0 UV-I 0 W/m 9,7 C 12,1 C 11,3 km/h (2 Bft)
20.05.2020 22:12 12,9 C 10,6 C 81 % 1023,2 hPa 0,0 l/m 7,3 km/h (2 Bft) N 360 0 min 0,0 UV-I 0 W/m 9,7 C 12,3 C 9,7 km/h (2 Bft)
20.05.2020 22:14 12,8 C 10,6 C 81 % 1023,2 hPa 0,0 l/m 7,9 km/h (2 Bft) N 5 0 min 0,0 UV-I 0 W/m 9,6 C 11,9 C 9,7 km/h (2 Bft)
20.05.2020 22:16 12,8 C 10,6 C 81 % 1023,2 hPa 0,0 l/m 5,8 km/h (2 Bft) N 5 0 min 0,0 UV-I 0 W/m 9,6 C 12,8 C 8,0 km/h (2 Bft)
20.05.2020 22:18 12,8 C 10,6 C 81 % 1023,2 hPa 0,0 l/m 6,8 km/h (2 Bft) N 5 0 min 0,0 UV-I 0 W/m 9,6 C 12,6 C 8,0 km/h (2 Bft)
20.05.2020 22:20 12,8 C 10,6 C 81 % 1023,2 hPa 0,0 l/m 8,1 km/h (2 Bft) N 355 0 min 0,0 UV-I 0 W/m 9,6 C 11,7 C 9,7 km/h (2 Bft)
20.05.2020 22:22 12,8 C 10,6 C 81 % 1023,2 hPa 0,0 l/m 8,0 km/h (2 Bft) N 360 0 min 0,0 UV-I 0 W/m 9,6 C 11,8 C 9,7 km/h (2 Bft)
20.05.2020 22:24 12,8 C 10,6 C 81 % 1023,2 hPa 0,0 l/m 7,6 km/h (2 Bft) N 360 0 min 0,0 UV-I 0 W/m 9,6 C 12,0 C 9,7 km/h (2 Bft)
20.05.2020 22:26 12,7 C 10,6 C 81 % 1023,2 hPa 0,0 l/m 6,7 km/h (2 Bft) N 355 0 min 0,0 UV-I 0 W/m 9,5 C 12,5 C 8,0 km/h (2 Bft)
20.05.2020 22:28 12,6 C 10,6 C 81 % 1023,2 hPa 0,0 l/m 5,3 km/h (1 Bft) N-NW 340 0 min 0,0 UV-I 0 W/m 9,4 C 12,6 C 8,0 km/h (2 Bft)
20.05.2020 22:30 12,6 C 10,6 C 82 % 1023,2 hPa 0,0 l/m 4,2 km/h (1 Bft) N-NW 347 0 min 0,0 UV-I 0 W/m 9,6 C 12,6 C 8,0 km/h (2 Bft)
20.05.2020 22:32 12,6 C 10,6 C 82 % 1023,3 hPa 0,0 l/m 4,3 km/h (1 Bft) N 355 0 min 0,0 UV-I 0 W/m 9,6 C 12,6 C 8,0 km/h (2 Bft)
20.05.2020 22:34 12,5 C 10,0 C 82 % 1023,3 hPa 0,0 l/m 1,6 km/h (1 Bft) N 355 0 min 0,0 UV-I 0 W/m 9,5 C 12,5 C 3,2 km/h (1 Bft)
20.05.2020 22:36 12,3 C 9,4 C 81 % 1023,3 hPa 0,0 l/m 2,7 km/h (1 Bft) N 355 0 min 0,0 UV-I 0 W/m 9,1 C 12,3 C 4,8 km/h (1 Bft)
20.05.2020 22:38 12,2 C 9,4 C 82 % 1023,3 hPa 0,0 l/m 1,7 km/h (1 Bft) N 355 0 min 0,0 UV-I 0 W/m 9,2 C 12,2 C 3,2 km/h (1 Bft)
20.05.2020 22:40 12,0 C 9,4 C 83 % 1023,3 hPa 0,0 l/m 1,5 km/h (1 Bft) N 355 0 min 0,0 UV-I 0 W/m 9,2 C 12,0 C 3,2 km/h (1 Bft)
20.05.2020 22:42 11,9 C 8,9 C 84 % 1023,3 hPa 0,0 l/m 0,0 km/h (0 Bft) N 355 0 min 0,0 UV-I 0 W/m 9,3 C 11,9 C 0,0 km/h (0 Bft)
20.05.2020 22:44 12,0 C 8,9 C 84 % 1023,2 hPa 0,0 l/m 0,0 km/h (0 Bft) N 355 0 min 0,0 UV-I 0 W/m 9,4 C 12,0 C 0,0 km/h (0 Bft)
20.05.2020 22:46 12,1 C 8,9 C 84 % 1023,4 hPa 0,0 l/m 0,4 km/h (0 Bft) N 355 0 min 0,0 UV-I 0 W/m 9,5 C 12,1 C 1,6 km/h (1 Bft)
20.05.2020 22:48 12,1 C 8,9 C 84 % 1023,3 hPa 0,0 l/m 0,4 km/h (0 Bft) N 355 0 min 0,0 UV-I 0 W/m 9,5 C 12,1 C 1,6 km/h (1 Bft)
20.05.2020 22:50 12,1 C 8,9 C 84 % 1023,4 hPa 0,0 l/m 0,0 km/h (0 Bft) N 355 0 min 0,0 UV-I 0 W/m 9,5 C 12,1 C 0,0 km/h (0 Bft)
20.05.2020 22:52 12,1 C 8,9 C 83 % 1023,3 hPa 0,0 l/m 0,0 km/h (0 Bft) N 355 0 min 0,0 UV-I 0 W/m 9,3 C 12,1 C 1,6 km/h (1 Bft)
20.05.2020 22:54 12,1 C 8,9 C 83 % 1023,3 hPa 0,0 l/m 0,9 km/h (0 Bft) N 355 0 min 0,0 UV-I 0 W/m 9,3 C 12,1 C 1,6 km/h (1 Bft)
20.05.2020 22:56 12,0 C 8,3 C 84 % 1023,3 hPa 0,0 l/m 2,1 km/h (1 Bft) N 355 0 min 0,0 UV-I 0 W/m 9,4 C 12,0 C 3,2 km/h (1 Bft)
20.05.2020 22:58 11,9 C 8,3 C 84 % 1023,4 hPa 0,0 l/m 1,7 km/h (1 Bft) N 355 0 min 0,0 UV-I 0 W/m 9,3 C 11,9 C 3,2 km/h (1 Bft)
20.05.2020 23:00 11,8 C 8,3 C 84 % 1023,4 hPa 0,0 l/m 2,6 km/h (1 Bft) N 355 0 min 0,0 UV-I 0 W/m 9,2 C 11,8 C 4,8 km/h (1 Bft)
20.05.2020 23:02 11,8 C 8,3 C 84 % 1023,4 hPa 0,0 l/m 3,0 km/h (1 Bft) N 355 0 min 0,0 UV-I 0 W/m 9,2 C 11,8 C 4,8 km/h (1 Bft)
20.05.2020 23:04 11,7 C 8,3 C 85 % 1023,5 hPa 0,0 l/m 2,6 km/h (1 Bft) N 355 0 min 0,0 UV-I 0 W/m 9,3 C 11,7 C 3,2 km/h (1 Bft)
20.05.2020 23:06 11,8 C 8,3 C 85 % 1023,4 hPa 0,0 l/m 1,3 km/h (1 Bft) N 355 0 min 0,0 UV-I 0 W/m 9,4 C 11,8 C 3,2 km/h (1 Bft)
20.05.2020 23:08 11,8 C 8,3 C 85 % 1023,4 hPa 0,0 l/m 0,2 km/h (0 Bft) N 355 0 min 0,0 UV-I 0 W/m 9,4 C 11,8 C 1,6 km/h (1 Bft)
20.05.2020 23:10 11,8 C 8,3 C 84 % 1023,5 hPa 0,0 l/m 0,3 km/h (0 Bft) N 355 0 min 0,0 UV-I 0 W/m 9,2 C 11,8 C 1,6 km/h (1 Bft)
20.05.2020 23:12 11,8 C 8,9 C 84 % 1023,5 hPa 0,0 l/m 0,0 km/h (0 Bft) N 355 0 min 0,0 UV-I 0 W/m 9,2 C 11,8 C 1,6 km/h (1 Bft)
20.05.2020 23:14 11,8 C 8,3 C 84 % 1023,6 hPa 0,0 l/m 0,2 km/h (0 Bft) N 355 0 min 0,0 UV-I 0 W/m 9,2 C 11,8 C 1,6 km/h (1 Bft)
20.05.2020 23:16 11,8 C 8,3 C 84 % 1023,5 hPa 0,0 l/m 0,7 km/h (0 Bft) N 355 0 min 0,0 UV-I 0 W/m 9,2 C 11,8 C 1,6 km/h (1 Bft)
20.05.2020 23:18 11,7 C 8,3 C 84 % 1023,6 hPa 0,0 l/m 1,2 km/h (1 Bft) N 355 0 min 0,0 UV-I 0 W/m 9,1 C 11,7 C 3,2 km/h (1 Bft)
20.05.2020 23:20 11,7 C 7,8 C 85 % 1023,6 hPa 0,0 l/m 2,0 km/h (1 Bft) N 355 0 min 0,0 UV-I 0 W/m 9,3 C 11,7 C 3,2 km/h (1 Bft)
20.05.2020 23:22 11,7 C 7,8 C 85 % 1023,6 hPa 0,0 l/m 3,0 km/h (1 Bft) N 355 0 min 0,0 UV-I 0 W/m 9,3 C 11,7 C 4,8 km/h (1 Bft)
20.05.2020 23:24 11,7 C 8,3 C 85 % 1023,6 hPa 0,0 l/m 3,4 km/h (1 Bft) N 355 0 min 0,0 UV-I 0 W/m 9,3 C 11,7 C 4,8 km/h (1 Bft)
20.05.2020 23:26 11,8 C 8,3 C 85 % 1023,7 hPa 0,0 l/m 2,9 km/h (1 Bft) N 355 0 min 0,0 UV-I 0 W/m 9,4 C 11,8 C 3,2 km/h (1 Bft)
20.05.2020 23:28 11,8 C 8,3 C 85 % 1023,6 hPa 0,0 l/m 3,2 km/h (1 Bft) N 355 0 min 0,0 UV-I 0 W/m 9,4 C 11,8 C 4,8 km/h (1 Bft)
20.05.2020 23:30 11,8 C 8,9 C 85 % 1023,6 hPa 0,0 l/m 3,1 km/h (1 Bft) N 355 0 min 0,0 UV-I 0 W/m 9,4 C 11,8 C 4,8 km/h (1 Bft)
20.05.2020 23:32 11,8 C 8,9 C 85 % 1023,7 hPa 0,0 l/m 2,9 km/h (1 Bft) N 355 0 min 0,0 UV-I 0 W/m 9,4 C 11,8 C 4,8 km/h (1 Bft)
20.05.2020 23:34 11,9 C 8,9 C 85 % 1023,7 hPa 0,0 l/m 2,4 km/h (1 Bft) N 355 0 min 0,0 UV-I 0 W/m 9,5 C 11,9 C 3,2 km/h (1 Bft)
20.05.2020 23:36 11,8 C 8,9 C 84 % 1023,7 hPa 0,0 l/m 2,2 km/h (1 Bft) N 355 0 min 0,0 UV-I 0 W/m 9,2 C 11,8 C 3,2 km/h (1 Bft)
20.05.2020 23:38 11,8 C 8,9 C 84 % 1023,7 hPa 0,0 l/m 2,0 km/h (1 Bft) N 355 0 min 0,0 UV-I 0 W/m 9,2 C 11,8 C 3,2 km/h (1 Bft)
20.05.2020 23:40 11,6 C 8,3 C 85 % 1023,7 hPa 0,0 l/m 0,3 km/h (0 Bft) N 355 0 min 0,0 UV-I 0 W/m 9,2 C 11,6 C 1,6 km/h (1 Bft)
20.05.2020 23:42 11,5 C 7,8 C 85 % 1023,8 hPa 0,0 l/m 0,2 km/h (0 Bft) N 355 0 min 0,0 UV-I 0 W/m 9,1 C 11,5 C 1,6 km/h (1 Bft)
20.05.2020 23:44 11,5 C 7,8 C 85 % 1023,7 hPa 0,0 l/m 1,2 km/h (1 Bft) N 355 0 min 0,0 UV-I 0 W/m 9,1 C 11,5 C 3,2 km/h (1 Bft)
20.05.2020 23:46 11,5 C 7,8 C 85 % 1023,8 hPa 0,0 l/m 1,6 km/h (1 Bft) N 355 0 min 0,0 UV-I 0 W/m 9,1 C 11,5 C 3,2 km/h (1 Bft)
20.05.2020 23:48 11,2 C 8,3 C 84 % 1023,8 hPa 0,0 l/m 0,1 km/h (0 Bft) N 355 0 min 0,0 UV-I 0 W/m 8,6 C 11,2 C 1,6 km/h (1 Bft)
20.05.2020 23:50 10,8 C 7,8 C 84 % 1023,7 hPa 0,0 l/m 0,0 km/h (0 Bft) N 355 0 min 0,0 UV-I 0 W/m 8,2 C 10,8 C 0,0 km/h (0 Bft)
20.05.2020 23:52 10,7 C 7,8 C 86 % 1023,7 hPa 0,0 l/m 0,0 km/h (0 Bft) N 355 0 min 0,0 UV-I 0 W/m 8,5 C 10,7 C 0,0 km/h (0 Bft)
20.05.2020 23:54 10,7 C 7,8 C 87 % 1023,7 hPa 0,0 l/m 0,0 km/h (0 Bft) N 355 0 min 0,0 UV-I 0 W/m 8,6 C 10,7 C 0,0 km/h (0 Bft)
20.05.2020 23:56 10,7 C 7,8 C 87 % 1023,6 hPa 0,0 l/m 0,5 km/h (0 Bft) N 355 0 min 0,0 UV-I 0 W/m 8,6 C 10,7 C 1,6 km/h (1 Bft)
20.05.2020 23:58 10,6 C 7,8 C 86 % 1023,6 hPa 0,0 l/m 0,0 km/h (0 Bft) N 355 0 min 0,0 UV-I 0 W/m 8,4 C 10,6 C 0,0 km/h (0 Bft)
20.05.2020 23:59 10,6 C 7,8 C 86 % 1023,7 hPa 0,0 l/m 0,0 km/h (0 Bft) N 0 0 min 0,0 UV-I 0 W/m 8,4 C 10,6 C 0,0 km/h (0 Bft)
_ Min-Zeit 05:55 04:56 12:54 18:56 - 01:10 - - - - - 05:55 05:55 00:02
Minimum _ 6,3 C 4,4 C 57 % 1022,0 hPa - 0,0 km/h (0 Bft) - - - - - 4,9 C 6,3 C 0,0 km/h (0 Bft)
_ Max-Zeit 13:30 16:04 05:07 00:00 00:00 14:46 - - 10:24 13:12 13:12 14:52 12:56 14:26
Maximum _ 21,4 C 31,1 C 92 % 1023,8 hPa 0,0 l/m 20,0 km/h
N-NO (4 Bft)
- - 2 min 7,3 UV-I 916 W/m 14,0 C 20,8 C 29,0 km/h
N-NO (5 Bft)
Durchschnitt _ 14,8 C 16,9 C 75 % 1022,8 hPa #0,0 l/m 6,1 km/h (2 Bft) N - #6:40 h 4,0 UV-I 488 W/m 10,1 C 14,0 C 9,7 km/h (2 Bft)